[[{"header":{"parameterUnit":"m.s-1","parameterCategory":1,"la1":30.6,"la2":28.766,"lo1":-90.7593,"lo2":-88.6598,"dy":0.0162,"dx":0.0183,"nx":116,"ny":114,"refTime":"2023-05-03T18:00:00:Z","depth":0,"parameterNumber":2,"parameterNumberName":"U-component_of_WINDS"},"data":[0.0,0.0,0.0,0.0,0.0,0.0,0.0,0.0,0.0,0.0,0.0,0.0,0.0,0.0,0.0,0.0,0.0,0.0,0.0,0.0,0.0,0.0,0.0,0.0,0.0,0.0,0.0,0.0,0.0,0.0,0.0,0.0,0.0,0.0,0.0,0.0,0.0,0.0,0.0,0.0,0.0,0.0,0.0,0.0,0.0,0.0,0.0,0.0,0.0,0.0,0.0,0.0,0.0,0.0,0.0,0.0,0.0,0.0,0.0,0.0,0.0,0.0,0.0,0.0,0.0,0.0,0.0,0.0,0.0,0.0,0.0,0.0,0.0,0.0,0.0,0.0,0.0,0.0,0.0,0.0,0.0,0.0,0.0,0.0,0.0,0.0,0.0,0.0,0.0,0.0,0.0,0.0,0.0,0.0,0.0,0.0,0.0,0.0,0.0,0.0,0.0,0.0,0.0,0.0,0.0,0.0,0.0,0.0,0.0,0.0,0.0,0.0,0.0,0.0,0.0,0.0,0.0,0.0,0.0,0.0,0.0,0.0,0.0,0.0,0.0,0.0,0.0,0.0,0.0,0.0,0.0,0.0,0.0,0.0,0.0,0.0,0.0,0.0,0.0,0.0,0.0,0.0,0.0,0.0,0.0,0.0,0.0,0.0,0.0,0.0,0.0,0.0,0.0,0.0,0.0,0.0,0.0,0.0,0.0,0.0,0.0,0.0,0.0,0.0,0.0,0.0,0.0,0.0,0.0,0.0,0.0,0.0,0.0,0.0,0.0,0.0,0.0,0.0,0.0,0.0,0.0,0.0,0.0,0.0,0.0,0.0,0.0,0.0,0.0,0.0,0.0,0.0,0.0,0.0,0.0,0.0,0.0,0.0,0.0,0.0,0.0,0.0,0.0,0.0,0.0,0.0,0.0,0.0,0.0,0.0,0.0,0.0,0.0,0.0,0.0,0.0,0.0,0.0,0.0,0.0,0.0,0.0,0.0,0.0,0.0,0.0,0.0,0.0,0.0,0.0,0.0,0.0,0.0,0.0,0.0,0.0,0.0,0.0,0.0,0.0,0.0,0.0,0.0,0.0,0.0,0.0,0.0,0.0,0.0,0.0,0.0,0.0,0.0,0.0,0.0,0.0,0.0,0.0,0.0,0.0,0.0,0.0,0.0,0.0,0.0,0.0,0.0,0.0,0.0,0.0,0.0,0.0,0.0,0.0,0.0,0.0,0.0,0.0,0.0,0.0,0.0,0.0,0.0,0.0,0.0,0.0,0.0,0.0,0.0,0.0,0.0,0.0,0.0,0.0,0.0,0.0,0.0,0.0,0.0,0.0,0.0,0.0,0.0,0.0,0.0,0.0,0.0,0.0,0.0,0.0,0.0,0.0,0.0,0.0,0.0,0.0,0.0,0.0,0.0,0.0,0.0,0.0,0.0,0.0,0.0,0.0,0.0,0.0,0.0,0.0,0.0,0.0,0.0,0.0,0.0,0.0,0.0,0.0,0.0,0.0,0.0,0.0,0.0,0.0,0.0,0.0,0.0,0.0,0.0,0.0,0.0,0.0,0.0,0.0,0.0,0.0,0.0,0.0,0.0,0.0,0.0,0.0,0.0,0.0,0.0,0.0,0.0,0.0,0.0,0.0,0.0,0.0,0.0,0.0,0.0,0.0,0.0,0.0,0.0,0.0,0.0,0.0,0.0,0.0,0.0,0.0,0.0,0.0,0.0,0.0,0.0,0.0,0.0,0.0,0.0,0.0,0.0,0.0,0.0,0.0,0.0,0.0,0.0,0.0,0.0,0.0,0.0,0.0,0.0,0.0,0.0,0.0,0.0,0.0,0.0,0.0,0.0,0.0,0.0,0.0,0.0,0.0,0.0,0.0,0.0,0.0,0.0,0.0,0.0,0.0,0.0,0.0,0.0,0.0,0.0,0.0,0.0,0.0,0.0,0.0,0.0,0.0,0.0,0.0,0.0,0.0,0.0,0.0,0.0,0.0,0.0,0.0,0.0,0.0,0.0,0.0,0.0,0.0,0.0,0.0,0.0,0.0,0.0,0.0,0.0,0.0,0.0,0.0,0.0,0.0,0.0,0.0,0.0,0.0,0.0,0.0,0.0,0.0,0.0,0.0,0.0,0.0,0.0,0.0,0.0,0.0,0.0,0.0,0.0,0.0,0.0,0.0,0.0,0.0,0.0,0.0,0.0,0.0,0.0,0.0,0.0,0.0,0.0,0.0,0.0,0.0,0.0,0.0,0.0,0.0,0.0,0.0,0.0,0.0,0.0,0.0,0.0,0.0,0.0,0.0,0.0,0.0,0.0,0.0,0.0,0.0,0.0,0.0,0.0,0.0,0.0,0.0,0.0,0.0,0.0,0.0,0.0,0.0,0.0,0.0,0.0,0.0,0.0,0.0,0.0,0.0,0.0,0.0,0.0,0.0,0.0,0.0,0.0,0.0,0.0,0.0,0.0,0.0,0.0,0.0,0.0,0.0,0.0,0.0,0.0,0.0,0.0,0.0,0.0,0.0,0.0,0.0,0.0,0.0,0.0,0.0,0.0,0.0,0.0,0.0,0.0,0.0,0.0,0.0,0.0,0.0,0.0,0.0,0.0,0.0,0.0,0.0,0.0,0.0,0.0,0.0,0.0,0.0,0.0,0.0,0.0,0.0,0.0,0.0,0.0,0.0,0.0,0.0,0.0,0.0,0.0,0.0,0.0,0.0,0.0,0.0,0.0,0.0,0.0,0.0,0.0,0.0,0.0,0.0,0.0,0.0,0.0,0.0,0.0,0.0,0.0,0.0,0.0,0.0,0.0,0.0,0.0,0.0,0.0,0.0,0.0,0.0,0.0,0.0,0.0,0.0,0.0,0.0,0.0,0.0,0.0,0.0,0.0,0.0,0.0,0.0,0.0,0.0,0.0,0.0,0.0,0.0,0.0,0.0,0.0,0.0,0.0,0.0,0.0,0.0,0.0,0.0,0.0,0.0,0.0,0.0,0.0,0.0,0.0,0.0,0.0,0.0,0.0,0.0,0.0,0.0,0.0,0.0,0.0,0.0,0.0,0.0,0.0,0.0,0.0,0.0,0.0,0.0,0.0,0.0,0.0,0.0,0.0,0.0,0.0,0.0,0.0,0.0,0.0,0.0,0.0,0.0,0.0,0.0,0.0,0.0,0.0,0.0,0.0,0.0,0.0,0.0,0.0,0.0,0.0,0.0,0.0,0.0,0.0,0.0,0.0,0.0,0.0,0.0,0.0,0.0,0.0,0.0,0.0,0.0,0.0,0.0,0.0,0.0,0.0,0.0,0.0,0.0,0.0,0.0,0.0,0.0,0.0,0.0,0.0,0.0,0.0,0.0,0.0,0.0,0.0,0.0,0.0,0.0,0.0,0.0,0.0,0.0,0.0,0.0,0.0,0.0,0.0,0.0,0.0,0.0,0.0,0.0,0.0,0.0,0.0,0.0,0.0,0.0,0.0,0.0,0.0,0.0,0.0,0.0,0.0,0.0,0.0,0.0,0.0,0.0,0.0,0.0,0.0,0.0,0.0,0.0,0.0,0.0,0.0,0.0,0.0,0.0,0.0,0.0,0.0,0.0,0.0,0.0,0.0,0.0,0.0,0.0,0.0,0.0,0.0,0.0,0.0,0.0,0.0,0.0,0.0,0.0,0.0,0.0,0.0,0.0,0.0,0.0,0.0,0.0,0.0,0.0,0.0,0.0,0.0,0.0,0.0,0.0,0.0,0.0,0.0,0.0,0.0,0.0,0.0,0.0,0.0,0.0,0.0,0.0,0.0,0.0,0.0,0.0,0.0,0.0,0.0,0.0,0.0,0.0,0.0,0.0,0.0,0.0,0.0,0.0,0.0,0.0,0.0,0.0,0.0,0.0,0.0,0.0,0.0,0.0,0.0,0.0,0.0,0.0,0.0,0.0,0.0,0.0,0.0,0.0,0.0,0.0,0.0,0.0,0.0,0.0,0.0,0.0,0.0,0.0,0.0,0.0,0.0,0.0,0.0,0.0,0.0,0.0,0.0,0.0,0.0,0.0,0.0,0.0,0.0,0.0,0.0,0.0,0.0,0.0,0.0,0.0,0.0,0.0,0.0,0.0,0.0,0.0,0.0,0.0,0.0,0.0,0.0,0.0,0.0,0.0,0.0,0.0,0.0,0.0,0.0,0.0,0.0,0.0,0.0,0.0,0.0,0.0,0.0,0.0,0.0,0.0,0.0,0.0,0.0,0.0,0.0,0.0,0.0,0.0,0.0,0.0,0.0,0.0,0.0,0.0,0.0,0.0,0.0,0.0,0.0,0.0,0.0,0.0,0.0,0.0,0.0,0.0,0.0,0.0,0.0,0.0,0.0,0.0,0.0,0.0,0.0,0.0,0.0,0.0,0.0,0.0,0.0,0.0,0.0,0.0,0.0,0.0,0.0,0.0,0.0,0.0,0.0,0.0,0.0,0.0,0.0,0.0,0.0,0.0,0.0,0.0,0.0,0.0,0.0,0.0,0.0,0.0,0.0,0.0,0.0,0.0,0.0,0.0,0.0,0.0,0.0,0.0,0.0,0.0,0.0,0.0,0.0,0.0,0.0,0.0,0.0,0.0,0.0,0.0,0.0,0.0,0.0,0.0,0.0,0.0,0.0,0.0,0.0,0.0,0.0,0.0,0.0,0.0,0.0,0.0,0.0,0.0,0.0,0.0,0.0,0.0,0.0,0.0,0.0,0.0,0.0,0.0,0.0,0.0,0.0,0.0,0.0,0.0,0.0,0.0,0.0,0.0,0.0,0.0,0.0,0.0,0.0,0.0,0.0,0.0,0.0,0.0,0.0,0.0,0.0,0.0,0.0,0.0,0.0,0.0,0.0,0.0,0.0,0.0,0.0,0.0,0.0,0.0,0.0,0.0,0.0,0.0,0.0,0.0,0.0,0.0,0.0,0.0,0.0,0.0,0.0,0.0,0.0,0.0,0.0,0.0,0.0,0.0,0.0,0.0,0.0,0.0,0.0,0.0,0.0,0.0,0.0,0.0,0.0,0.0,0.0,0.0,0.0,0.0,0.0,0.0,0.0,0.0,0.0,0.0,0.0,0.0,0.0,0.0,0.0,0.0,0.0,0.0,0.0,0.0,0.0,0.0,0.0,0.0,0.0,0.0,0.0,0.0,0.0,0.0,0.0,0.0,0.0,0.0,0.0,0.0,0.0,0.0,0.0,0.0,0.0,0.0,0.0,0.0,0.0,0.0,0.0,0.0,0.0,0.0,0.0,0.0,0.0,0.0,0.0,0.0,0.0,0.0,0.0,0.0,0.0,0.0,0.0,0.0,0.0,0.0,0.0,0.0,0.0,0.0,0.0,0.0,0.0,0.0,0.0,0.0,0.0,0.0,0.0,0.0,0.0,0.0,0.0,0.0,0.0,0.0,0.0,0.0,0.0,0.0,0.0,0.0,0.0,0.0,0.0,0.0,0.0,0.0,0.0,0.0,0.0,0.0,0.0,0.0,0.0,0.0,0.0,0.0,0.0,0.0,0.0,0.0,0.0,0.0,0.0,0.0,0.0,0.0,0.0,0.0,0.0,0.0,0.0,0.0,0.0,0.0,0.0,0.0,0.0,0.0,0.0,0.0,0.0,0.0,0.0,0.0,0.0,0.0,0.0,0.0,0.0,0.0,0.0,0.0,0.0,0.0,0.0,0.0,0.0,0.0,0.0,0.0,0.0,0.0,0.0,0.0,0.0,0.0,0.0,0.0,0.0,0.0,0.0,0.0,0.0,0.0,0.0,0.0,0.0,0.0,0.0,0.0,0.0,0.0,0.0,0.0,0.0,0.0,0.0,0.0,0.0,0.0,0.0,0.0,0.0,0.0,0.0,0.0,0.0,0.0,0.0,0.0,0.0,0.0,0.0,0.0,0.0,0.0,0.0,0.0,0.0,0.0,0.0,0.0,0.0,0.0,0.0,0.0,0.0,0.0,0.0,0.0,0.0,0.0,0.0,0.0,0.0,0.0,0.0,0.0,0.0,0.0,0.0,0.0,0.0,0.0,0.0,0.0,0.0,0.0,0.0,0.0,0.0,0.0,0.0,0.0,0.0,0.0,0.0,0.0,0.0,0.0,-4.0824,0.0,0.0,0.0,0.0,0.0,0.0,0.0,0.0,0.0,0.0,0.0,0.0,0.0,0.0,0.0,0.0,0.0,0.0,0.0,0.0,0.0,0.0,0.0,0.0,0.0,0.0,0.0,0.0,0.0,0.0,0.0,0.0,0.0,0.0,0.0,0.0,0.0,0.0,-4.1877,-4.1328,-4.1897,-4.3477,-4.3027,-4.2833,-4.2803,0.0,0.0,0.0,0.0,0.0,0.0,0.0,0.0,0.0,0.0,0.0,0.0,0.0,0.0,0.0,0.0,0.0,0.0,0.0,0.0,0.0,0.0,0.0,0.0,0.0,0.0,0.0,0.0,0.0,0.0,0.0,0.0,0.0,0.0,0.0,0.0,0.0,0.0,0.0,0.0,0.0,0.0,0.0,0.0,0.0,0.0,0.0,0.0,0.0,0.0,0.0,0.0,0.0,0.0,0.0,0.0,0.0,0.0,0.0,0.0,0.0,0.0,0.0,0.0,0.0,0.0,0.0,0.0,0.0,0.0,0.0,-4.0655,0.0,0.0,0.0,0.0,0.0,0.0,0.0,0.0,0.0,0.0,0.0,0.0,0.0,0.0,0.0,0.0,0.0,0.0,0.0,0.0,0.0,0.0,0.0,0.0,-4.1701,-4.3087,-4.3196,-4.3087,0.0,0.0,0.0,0.0,0.0,0.0,-4.15,-4.1098,-4.1471,-4.2657,-4.2519,-4.3105,-4.4343,-4.4208,-4.376,-4.3043,-4.31,0.0,0.0,0.0,0.0,0.0,0.0,0.0,0.0,0.0,0.0,0.0,0.0,0.0,0.0,0.0,0.0,0.0,0.0,0.0,0.0,0.0,0.0,0.0,0.0,0.0,0.0,0.0,0.0,0.0,0.0,0.0,0.0,0.0,0.0,0.0,0.0,0.0,0.0,0.0,0.0,0.0,0.0,0.0,0.0,0.0,0.0,0.0,0.0,0.0,0.0,0.0,0.0,0.0,0.0,0.0,0.0,0.0,0.0,0.0,0.0,0.0,0.0,0.0,-4.2595,-4.2667,-4.2793,-4.334,-4.295,-4.1781,-4.1714,-4.1185,-4.0389,-4.0522,0.0,0.0,0.0,0.0,0.0,0.0,0.0,0.0,0.0,0.0,0.0,0.0,0.0,0.0,0.0,0.0,0.0,0.0,0.0,0.0,0.0,-4.1271,-4.1548,-4.3069,-4.3142,-4.3049,0.0,0.0,0.0,0.0,0.0,0.0,-4.2167,-4.077,-4.1085,-4.3191,-4.3625,-4.3936,-4.4147,-4.3991,-4.3983,-4.4024,-4.426,-4.4118,-4.3718,0.0,0.0,0.0,0.0,0.0,0.0,0.0,0.0,0.0,0.0,0.0,0.0,0.0,0.0,0.0,0.0,0.0,0.0,0.0,0.0,0.0,0.0,0.0,0.0,0.0,0.0,0.0,0.0,0.0,0.0,0.0,0.0,0.0,0.0,0.0,0.0,0.0,0.0,0.0,0.0,0.0,-4.398,-4.3553,0.0,0.0,0.0,0.0,0.0,0.0,0.0,0.0,0.0,0.0,0.0,0.0,0.0,-4.3432,-4.3996,-4.3883,-4.417,-4.4859,-4.4975,-4.5051,-4.5052,-4.462,-4.4327,-4.4125,-4.3479,0.0,-4.1203,-4.1843,0.0,0.0,0.0,0.0,0.0,0.0,0.0,0.0,0.0,0.0,0.0,0.0,0.0,0.0,0.0,0.0,0.0,0.0,0.0,0.0,0.0,-4.1119,-4.1428,-4.2905,-4.2974,-4.2681,-4.2097,-4.2356,0.0,0.0,0.0,-4.1716,-4.1627,-4.0949,-4.1395,-4.3072,-4.4096,-4.4758,-4.5051,-4.5002,-4.496,-4.5016,-4.5423,-4.5003,-4.3999,-4.4288,0.0,0.0,0.0,0.0,0.0,0.0,0.0,0.0,0.0,0.0,0.0,0.0,0.0,0.0,0.0,0.0,0.0,0.0,0.0,0.0,0.0,0.0,0.0,0.0,0.0,0.0,0.0,0.0,0.0,0.0,0.0,0.0,0.0,0.0,0.0,0.0,0.0,0.0,0.0,-4.3356,-4.3958,-4.3306,-4.3981,-4.4254,0.0,0.0,0.0,0.0,0.0,0.0,0.0,0.0,0.0,-4.4507,-4.445,-4.4593,-4.4862,-4.4785,-4.4947,-4.5291,-4.5368,-4.5426,-4.5504,-4.5236,-4.5129,-4.5149,-4.4894,-4.4178,-4.3111,-4.2608,-4.1972,-4.1298,0.0,0.0,0.0,0.0,-4.084,-4.094,0.0,0.0,0.0,0.0,0.0,0.0,0.0,0.0,0.0,0.0,0.0,0.0,-4.1188,-4.1124,-4.1488,-4.2755,-4.2765,-4.2416,-4.1764,-4.2165,0.0,-4.0748,-4.1723,-4.1961,-4.1273,-4.1603,-4.2302,-4.3434,-4.4652,-4.5404,-4.5744,-4.577,-4.5761,-4.5667,-4.5912,-4.5378,-4.431,-4.4445,-4.3977,-4.3159,0.0,0.0,0.0,0.0,0.0,0.0,0.0,0.0,0.0,0.0,0.0,0.0,0.0,0.0,0.0,0.0,0.0,0.0,0.0,0.0,0.0,0.0,0.0,0.0,0.0,0.0,0.0,0.0,0.0,0.0,0.0,0.0,0.0,0.0,0.0,0.0,0.0,-4.3476,-4.4076,-4.3262,-4.418,-4.462,0.0,0.0,0.0,0.0,0.0,0.0,-4.56,-4.5725,-4.5704,-4.5446,-4.5645,-4.5715,-4.5617,-4.5816,-4.5906,-4.5906,-4.5906,-4.5965,-4.6063,-4.5903,-4.5833,-4.5873,-4.5788,-4.5424,-4.4766,-4.3497,-4.255,-4.1859,-4.1859,-4.1859,-4.1841,-4.1654,-4.158,-4.1686,0.0,0.0,0.0,0.0,0.0,0.0,0.0,0.0,0.0,0.0,0.0,-4.0484,-4.129,-4.1426,-4.1827,-4.2731,-4.257,-4.2454,-4.2518,-4.2391,-4.2331,-4.2396,-4.2331,-4.2089,-4.1678,-4.2916,-4.4003,-4.4881,-4.56,-4.5837,-4.5615,-4.5744,-4.5812,-4.5778,-4.5222,-4.4817,-4.4596,-4.5122,-4.4766,-4.3857,-4.3992,0.0,0.0,0.0,0.0,0.0,0.0,0.0,0.0,0.0,0.0,0.0,0.0,0.0,0.0,0.0,0.0,0.0,0.0,0.0,0.0,0.0,0.0,0.0,0.0,0.0,0.0,0.0,0.0,0.0,0.0,0.0,0.0,0.0,0.0,0.0,0.0,0.0,0.0,-4.378,-4.4788,0.0,0.0,0.0,0.0,-4.5493,-4.6235,-4.6303,-4.5559,-4.6094,-4.6087,-4.5327,-4.6051,-4.645,-4.645,-4.721,-4.7591,-4.7591,-4.7591,-4.7591,-4.7572,-4.6914,-4.6648,-4.6613,-4.591,-4.5602,-4.5512,-4.4857,-4.4103,-4.3386,-4.3386,-4.3386,-4.3311,-4.259,-4.2347,-4.2364,0.0,0.0,0.0,0.0,0.0,0.0,0.0,0.0,-3.9903,-3.967,-3.997,-4.0422,-4.1006,-4.1306,-4.1766,-4.2534,-4.2348,-4.2228,-4.2269,-4.2207,-4.2205,-4.2225,-4.2023,-4.1978,-4.2072,-4.3533,-4.4309,-4.4361,-4.4914,-4.5079,-4.4889,-4.5336,-4.5494,-4.5381,-4.5137,-4.4765,-4.4343,-4.433,-4.3686,-4.2702,-4.295,-4.3036,0.0,0.0,0.0,0.0,0.0,0.0,0.0,0.0,0.0,0.0,0.0,0.0,0.0,0.0,0.0,0.0,0.0,0.0,0.0,0.0,0.0,0.0,0.0,0.0,0.0,0.0,0.0,0.0,0.0,0.0,0.0,0.0,0.0,0.0,0.0,0.0,0.0,-4.405,-4.5352,0.0,-4.5503,-4.5743,-4.6036,-4.6288,-4.7422,-4.7977,-4.7687,-4.8409,-4.8677,-4.8387,-4.8659,-4.8804,-4.8804,-4.9094,-4.9238,-4.9238,-4.9238,-4.9238,-4.9238,-4.8992,-4.8614,-4.8125,-4.792,-4.7252,-4.6289,-4.6116,-4.5626,-4.4985,-4.504,-4.4727,-4.425,-4.4024,-4.3617,-4.3192,0.0,0.0,0.0,0.0,0.0,0.0,0.0,0.0,-3.9973,-3.9994,-4.03,-4.0705,-4.1251,-4.1523,-4.1896,-4.2371,-4.2225,-4.2124,-4.2166,-4.2124,-4.2124,-4.2184,-4.1995,-4.2281,-4.3119,-4.3875,-4.4277,-4.4333,-4.4633,-4.468,-4.4502,-4.4981,-4.5239,-4.5249,-4.4978,-4.4576,-4.4087,-4.3732,-4.3108,-4.2374,-4.277,-4.2946,-4.2887,0.0,0.0,0.0,0.0,0.0,0.0,0.0,0.0,0.0,0.0,0.0,0.0,0.0,0.0,0.0,0.0,0.0,0.0,0.0,0.0,0.0,0.0,0.0,0.0,0.0,0.0,0.0,0.0,0.0,0.0,0.0,0.0,0.0,0.0,-4.4288,-4.5287,-4.4746,-4.5872,-4.6682,-4.6585,-4.688,-4.7282,-4.7804,-4.8756,-4.9311,-4.9311,-4.98,-5.0112,-5.0112,-5.0112,-5.0112,-5.0112,-5.0112,-5.0112,-5.0112,-5.0112,-5.0112,-5.0112,-5.0112,-4.98,-4.9311,-4.9397,-4.8675,-4.7441,-4.7545,-4.7151,-4.6463,-4.603,-4.5535,-4.5112,-4.5148,-4.4668,-4.3968,0.0,0.0,0.0,0.0,0.0,0.0,0.0,-3.9994,-4.014,-4.0875,-4.104,-4.1353,-4.1996,-4.2188,-4.2308,-4.2308,-4.2184,-4.2163,-4.2323,-4.2184,-4.2163,-4.2302,-4.2324,-4.3119,-4.475,-4.4018,-4.4065,-4.4978,-4.4899,-4.4735,-4.4474,-4.4746,-4.5062,-4.5354,-4.4707,-4.422,-4.3857,-4.3553,-4.3252,-4.3032,-4.3566,-4.3402,-4.2865,0.0,0.0,0.0,0.0,0.0,0.0,0.0,0.0,0.0,0.0,0.0,0.0,0.0,0.0,0.0,0.0,0.0,0.0,0.0,0.0,0.0,0.0,0.0,0.0,0.0,0.0,0.0,0.0,0.0,0.0,0.0,0.0,0.0,-4.4334,-4.539,-4.6087,-4.5869,-4.6374,-4.7231,-4.8443,-4.8146,-4.8493,-4.9985,-5.013,-5.0148,-5.0148,-5.0166,-5.0162,-5.0144,-5.0162,-5.0162,-5.0122,-5.0162,-5.0162,-5.0122,-5.0122,-5.014,-5.0144,-5.0144,-5.0144,-5.0148,-5.0148,-4.9673,-4.8949,-4.9077,-4.8665,-4.7813,-4.641,-4.5901,-4.5938,-4.5938,-4.5424,-4.4653,0.0,0.0,0.0,0.0,0.0,0.0,0.0,-3.9994,-3.9932,-4.0033,-4.0668,-4.1132,-4.1209,-4.1881,-4.2308,-4.2308,-4.2184,-4.2352,-4.2978,-4.2423,-4.2246,-4.2582,-4.3091,-4.3628,-4.4148,-4.4201,-4.4288,-4.4355,-4.4093,-4.3919,-4.3877,-4.4248,-4.4614,-4.4865,-4.4638,-4.4244,-4.374,-4.3704,-4.3372,-4.2884,-4.3285,-4.3535,-4.3686,0.0,0.0,0.0,0.0,0.0,0.0,0.0,0.0,0.0,0.0,0.0,0.0,0.0,0.0,0.0,0.0,0.0,0.0,0.0,0.0,0.0,0.0,0.0,0.0,0.0,0.0,0.0,0.0,0.0,0.0,0.0,-4.4607,-4.4936,-4.4436,-4.5218,-4.6135,-4.6946,-4.7521,-4.8343,-4.9527,-4.9546,-4.9644,-5.0075,-5.0633,-5.0981,-5.0981,-5.1502,-5.1677,-5.1341,-5.1654,-5.1537,-5.0902,-5.1197,-5.1197,-5.0902,-5.0902,-5.105,-5.1341,-5.1341,-5.1195,-5.0981,-5.0981,-5.0506,-4.9764,-4.9807,-4.9419,-4.8686,-4.7755,-4.7124,-4.6689,-4.6745,-4.636,-4.5675,0.0,0.0,0.0,0.0,0.0,0.0,0.0,-4.0015,-3.9992,-4.0167,-4.0733,-4.1169,-4.1341,-4.1916,-4.2308,-4.2308,-4.2246,-4.2237,-4.2359,-4.1911,-4.2115,-4.324,-4.3395,-4.3771,-4.4418,-4.4316,-4.4184,-4.4027,-4.3822,-4.3734,-4.3734,-4.4109,-4.4491,-4.4845,-4.4975,-4.4796,-4.4343,-4.4603,-4.436,-4.3803,-4.4236,-4.4271,-4.4165,-4.4621,-4.4632,-4.453,-4.5386,-4.5673,-4.5646,-4.5687,0.0,0.0,0.0,0.0,0.0,0.0,0.0,0.0,0.0,0.0,0.0,0.0,0.0,0.0,0.0,0.0,0.0,0.0,0.0,0.0,0.0,0.0,0.0,0.0,-4.5564,-4.6087,-4.5646,-4.6303,-4.7129,-4.7835,-4.8591,-4.9383,-5.028,-5.0335,-5.0461,-5.0785,-5.1236,-5.1739,-5.2281,-5.2752,-5.3038,-5.311,-5.3357,-5.3261,-5.2738,-5.2988,-5.2988,-5.2738,-5.2202,-5.2075,-5.2308,-5.1943,-5.1688,0.0,-5.1705,-5.1339,-5.0619,-5.0619,-5.017,0.0,0.0,0.0,0.0,0.0,-4.6875,-4.6559,0.0,0.0,0.0,0.0,0.0,0.0,0.0,-4.0046,-4.0214,-4.0828,-4.103,-4.1369,-4.1966,-4.2224,-4.2348,-4.2328,-4.2239,-4.1879,-4.1145,-4.1065,-4.1913,-4.3872,-4.3412,-4.3725,-4.5075,-4.4361,-4.3969,-4.3969,-4.3927,-4.3956,-4.3969,-4.4196,-4.4547,-4.5005,-4.5468,-4.5473,-4.5217,-4.5757,-4.5641,-4.5194,-4.5699,-4.5367,-4.4625,-4.5552,-4.5894,-4.6073,-4.709,-4.7387,-4.7297,-4.7325,0.0,0.0,0.0,0.0,0.0,0.0,0.0,0.0,0.0,0.0,0.0,0.0,0.0,0.0,0.0,0.0,0.0,0.0,0.0,0.0,0.0,0.0,0.0,0.0,-4.6548,-4.7382,-4.7359,-4.8116,-4.8685,-4.8639,-4.9473,-5.0253,-5.0761,-5.0772,-5.1083,-5.1963,-5.2016,-5.254,-5.376,0.0,0.0,0.0,0.0,-5.484,-5.4749,-5.4791,-5.4791,-5.4724,-5.3559,-5.297,-5.2913,-5.2148,-5.1797,-5.1824,-5.2233,-5.2059,-5.143,-5.143,-5.0959,-5.0148,-4.9407,-4.8637,-4.7919,-4.7362,-4.7259,0.0,0.0,0.0,0.0,0.0,0.0,0.0,0.0,-4.0046,-4.0214,-4.0828,-4.1208,-4.1637,-4.2185,-4.2468,-4.2613,-4.255,-4.1914,-4.1386,-4.1109,-4.1205,-4.181,-4.3084,-4.3581,-4.4004,-4.4389,-4.4484,-4.4474,-4.4378,-4.4184,-4.4184,-4.4378,-4.4435,-4.4659,-4.5005,-4.5319,-4.53,-4.5058,-4.5605,-4.5669,-4.5455,-4.5901,-4.5998,-4.605,-4.7193,-4.7252,-4.697,-4.8487,-4.857,-4.7943,-4.8039,-4.7969,-4.7738,-4.7125,-4.6651,0.0,0.0,0.0,0.0,0.0,0.0,0.0,0.0,0.0,0.0,0.0,0.0,0.0,0.0,0.0,0.0,0.0,0.0,0.0,-4.6057,-4.6857,-4.7625,-4.8223,-4.9162,-4.971,-4.9482,-4.9572,-5.0148,-5.1464,-5.1585,-5.2071,-5.3249,-5.3345,-5.373,-5.4635,-5.4671,-5.4562,-5.4353,-5.4699,-5.4557,-5.3869,-5.4156,-5.4156,-5.3842,0.0,0.0,-5.2511,-5.196,-5.175,-5.1824,-5.1915,-5.2054,-5.2263,-5.2263,-5.1792,-5.0945,-4.9604,-4.8631,-4.7907,-4.7964,-4.7987,-4.7937,0.0,0.0,0.0,0.0,0.0,0.0,0.0,-4.0067,-4.0116,-4.0321,-4.0614,-4.103,-4.1593,-4.1524,-4.1568,-4.192,-4.118,-4.0815,-4.1074,-4.1145,-4.1698,-4.2944,-4.3314,-4.3721,-4.4191,-4.4388,-4.4491,-4.4406,-4.4423,-4.4508,-4.4631,-4.4797,-4.4934,-4.5113,-4.5503,-4.566,-4.5631,-4.6219,-4.6475,-4.6533,-4.702,-4.7314,-4.756,-4.7975,-4.792,-4.7763,-4.9039,-4.9196,-4.8809,-4.8882,-4.8802,-4.8634,-4.8268,-4.7748,-4.7087,0.0,0.0,0.0,0.0,0.0,0.0,0.0,0.0,0.0,0.0,0.0,0.0,0.0,0.0,-4.4408,-4.4728,0.0,-4.6092,-4.6794,-4.7834,-4.8627,-4.8916,-4.9705,-5.0145,-4.9837,-5.018,-5.0655,-5.1157,-5.1528,-5.2015,-5.265,-5.3085,-5.3752,-5.4765,-5.48,-5.4901,-5.5044,-5.5267,-5.5187,-5.476,-5.4935,-5.4935,-5.4742,-5.3903,-5.3403,-5.3215,-5.2183,-5.1852,-5.2088,-5.1904,-5.2054,-5.2498,-5.2498,-5.2027,-5.1199,-5.0047,-4.915,-4.8468,-4.8152,-4.8107,-4.8172,0.0,0.0,0.0,0.0,0.0,0.0,0.0,-4.0108,-4.0083,-4.0031,-4.0175,-4.0477,-4.103,-4.0682,-4.0528,-4.088,-4.0428,-4.0334,-4.0881,-4.0996,-4.1624,-4.2819,-4.301,-4.339,-4.4035,-4.4265,-4.4395,-4.4463,-4.4703,-4.4858,-4.4913,-4.514,-4.5247,-4.5274,-4.5701,-4.5988,-4.6235,-4.6788,-4.7214,-4.7575,-4.8111,-4.8495,-4.8709,-4.8493,-4.8423,-4.8532,-4.9246,-4.9509,-4.9509,-4.9509,-4.9424,-4.9324,-4.9308,-4.8814,-4.7972,-4.6684,-4.5941,0.0,0.0,0.0,0.0,0.0,0.0,0.0,0.0,-4.4636,-4.4627,-4.4514,-4.4592,-4.4882,-4.5581,-4.6192,-4.6864,-4.7703,-4.8898,-4.967,-4.9629,-5.0115,-5.0365,-5.0048,-5.0656,-5.1052,-5.0832,-5.1354,-5.1854,-5.2253,-5.2866,-5.3739,-5.4871,-5.4934,-5.5235,-5.5901,-5.5918,-5.5918,-5.5918,-5.5918,-5.5918,-5.5872,-5.4805,-5.425,-5.4057,-5.2509,-5.199,-5.2253,-5.1933,-5.2054,-5.2498,-5.2498,-5.2118,-5.1448,-5.0655,-4.9902,-4.9171,-4.8268,-4.8026,-4.8187,0.0,0.0,0.0,0.0,0.0,0.0,0.0,0.0,-4.0281,-4.0804,-4.089,-4.1053,-4.1404,-4.1237,-4.0679,-3.9623,-3.9932,-4.0197,-4.0208,-4.087,-4.1517,-4.2094,-4.2963,-4.35,-4.359,-4.4245,-4.4751,-4.5096,-4.5005,-4.5086,-4.5344,-4.5371,-4.5371,-4.5371,-4.545,-4.5727,-4.6235,-4.6584,-4.7107,-4.772,-4.8265,-4.8624,-4.8907,-4.9099,-4.9259,-4.9377,-4.9471,-4.9509,-4.9509,-4.9509,-4.949,-4.9459,-4.934,-4.9204,-4.8698,-4.6832,-4.6197,-4.5725,-4.3972,-4.3798,-4.4103,-4.4095,-4.4396,-4.4667,0.0,-4.4942,-4.5275,-4.5194,-4.5598,-4.6228,-4.7018,-4.7229,-4.7756,-4.9214,-4.96,-4.9943,-5.0618,-5.0793,-5.0702,-5.0377,-5.0222,-5.0534,-5.15,-5.1651,-5.245,-5.4222,-5.4444,-5.4861,-5.5713,-5.5777,-5.583,-5.5918,-5.5918,-5.5918,-5.5918,-5.5918,-5.5918,-5.5872,-5.5349,-5.4739,-5.4046,-5.2731,-5.2009,-5.178,-5.1795,-5.2054,-5.2498,-5.2498,-5.2444,-5.2281,-5.1466,-5.0691,-4.9847,-4.8475,-4.7992,-4.807,0.0,0.0,0.0,0.0,0.0,0.0,0.0,0.0,0.0,0.0,-4.0252,-4.0328,-4.0863,-4.0596,-3.9944,-3.8866,-3.9334,-3.9842,-4.0236,-4.0912,-4.1562,-4.2145,-4.28,-4.3147,-4.3162,-4.4028,-4.4568,-4.4742,-4.5156,-4.5423,-4.5528,-4.5607,-4.5615,-4.5641,-4.5879,-4.6186,-4.6513,-4.7026,-4.7503,-4.7972,-4.8362,-4.875,-4.9162,-4.926,-4.948,-4.966,-4.9112,-4.8855,0.0,-4.8859,-4.8825,-4.8875,-4.929,-4.9056,-4.834,-4.6887,-4.6153,-4.5535,-4.4377,-4.4145,-4.4353,-4.505,-4.5347,-4.5537,-4.5716,-4.5934,-4.6065,-4.5844,-4.6404,-4.7011,-4.7327,-4.8117,-4.8968,-4.9618,-5.0083,-5.046,-5.0694,-5.0665,-5.0526,-5.0302,-5.0138,-5.0374,-5.1257,-5.1725,-5.2525,-5.3845,-5.4334,-5.4717,-5.5079,-5.5096,-5.5096,-5.5096,-5.5096,-5.5096,-5.5096,-5.5096,-5.5096,-5.5096,-5.4882,-5.4634,-5.4287,-5.2861,-5.1765,-5.1094,-5.1574,-5.1897,-5.2102,-5.2387,-5.2498,-5.2426,-5.1611,-5.0796,-4.9967,-4.8911,-4.8265,-4.7968,0.0,0.0,0.0,0.0,0.0,0.0,0.0,0.0,0.0,0.0,-3.9762,-3.977,-4.0195,-3.9822,-3.9276,-3.8596,-3.9048,-3.9659,-4.0366,-4.1009,-4.1663,-4.2353,-4.2654,-4.289,-4.3037,-4.3775,-4.4331,-4.4687,-4.5194,-4.5569,-4.577,-4.5795,-4.5871,-4.5998,-4.6277,-4.6554,-4.6863,-4.7378,-4.7795,-4.8113,-4.8382,-4.8821,-4.9289,-4.9321,-4.9431,-4.9489,-4.8797,-4.8493,-4.8386,-4.821,-4.8112,-4.814,-4.8742,-4.8457,-4.7691,-4.6666,-4.5917,-4.531,-4.4761,-4.4728,-4.5078,-4.5948,-4.6223,-4.6351,-4.6607,-4.6637,-4.6613,-4.66,-4.7018,-4.752,-4.7959,-4.8968,-4.9776,-4.9978,-5.0504,-5.0846,-5.0702,-5.061,-5.0471,-5.0274,-5.0178,-5.046,-5.1321,-5.1877,-5.2632,-5.3632,-5.4201,-5.4512,-5.4512,-5.4512,-5.4512,-5.4512,-5.4512,-5.4512,-5.4512,-5.4512,-5.4512,-5.4512,-5.4512,-5.4512,-5.446,-5.2894,-5.1609,-5.064,-5.1244,-5.1626,-5.1824,-5.2228,-5.241,-5.2444,-5.1846,-5.0995,-5.0039,-4.9456,-4.8669,-4.7902,0.0,0.0,0.0,0.0,0.0,0.0,0.0,0.0,0.0,0.0,0.0,0.0,0.0,-3.9221,-3.8914,-3.8896,-3.9264,-3.9782,-4.0438,-4.1124,-4.1823,-4.2554,-4.2607,-4.2846,-4.3369,-4.3471,-4.4132,-4.5357,-4.5194,-4.5462,-4.6186,-4.5922,-4.6023,-4.6381,-4.6381,-4.6666,-4.7107,-4.7442,-4.7772,-4.8032,-4.8362,-4.8821,-4.9324,-4.9368,-4.9112,-4.8726,-4.8707,-4.8675,-4.8574,-4.7782,-4.7473,-4.7427,-4.7465,-4.73,-4.6948,-4.5993,-4.5477,-4.5164,-4.4955,-4.5681,-4.6537,-4.6571,-4.6773,-4.6939,-4.6824,-4.6684,-4.6778,-4.7428,-4.748,-4.7854,-4.9354,-4.9671,-4.9969,-5.0733,-5.0873,-5.0891,-5.0891,-5.0891,-5.0764,-5.0443,-5.0387,-5.0864,-5.2046,-5.217,-5.2808,-5.4356,-5.4494,-5.4512,-5.4512,-5.4512,-5.4512,-5.4512,-5.4512,-5.4512,-5.4512,-5.4512,-5.4512,-5.4512,-5.4512,-5.4512,-5.446,-5.2894,-5.1609,-5.0612,-5.0749,-5.121,-5.1824,-5.2018,-5.2269,-5.2498,-5.2462,-5.1484,-5.0112,-5.0075,-4.914,-4.7902,0.0,0.0,0.0,0.0,0.0,0.0,0.0,0.0,0.0,0.0,0.0,0.0,0.0,0.0,0.0,0.0,-3.9132,-3.9389,-4.0063,-4.0561,-4.116,-4.1841,-4.2341,-4.2677,-4.2866,-4.3245,-4.3661,-4.4135,-4.5058,-4.5676,-4.6006,-4.6412,-4.6754,-4.7012,-4.708,-4.7371,-4.7795,-4.8115,-4.8383,-4.8624,-4.8907,-4.9222,-4.9457,-4.914,-4.8979,-4.8835,0.0,-4.7327,-4.7132,-4.6916,-4.6751,-4.6764,-4.7258,-4.6979,-4.6416,-4.5913,-4.5533,-4.5451,-4.6208,-4.6673,-4.6976,-4.714,-4.7252,-4.7249,-4.6888,-4.711,-4.7433,-4.7569,-4.7935,-4.842,-4.8948,-4.9459,-4.9916,-5.018,-5.062,-5.0891,-5.0891,-5.0774,-5.062,-5.0425,-5.0331,-5.0587,-5.139,-5.1895,0.0,-5.4391,-5.4512,-5.4512,-5.4512,-5.4512,-5.4512,-5.4512,-5.4512,-5.4512,-5.4512,-5.4512,-5.4512,-5.4494,-5.4011,-5.3494,-5.2929,-5.1912,-5.1054,-5.0341,-5.064,-5.1079,-5.1576,-5.1945,-5.228,-5.2559,-5.2526,-5.1565,-5.0217,-5.0134,-4.9097,-4.778,0.0,0.0,0.0,0.0,0.0,0.0,0.0,0.0,0.0,0.0,0.0,0.0,0.0,0.0,0.0,0.0,0.0,-3.9326,-3.9954,-4.0225,-4.0648,-4.1288,-4.1741,-4.2012,-4.2031,-4.2678,-4.3344,-4.3925,-4.5124,-4.5876,-4.6185,-4.6593,-4.6931,-4.7168,-4.7272,-4.7702,-4.8364,-4.8605,-4.8803,-4.894,-4.8856,-4.8991,-4.9188,-4.8561,-4.8296,0.0,-4.7156,-4.6512,-4.6113,-4.6155,-4.6252,-4.6451,-4.692,-4.6859,-4.6518,-4.5995,-4.6063,-4.6483,-4.7211,-4.7499,-4.7608,-4.7786,-4.7663,-4.7425,-4.712,-4.7488,-4.7906,-4.8024,-4.8441,-4.8847,-4.9096,-4.9368,-4.9623,-4.9854,-5.0251,-5.0611,-5.0883,-5.0774,-5.062,-5.0425,-5.0313,-5.0483,-5.1045,-5.1545,-5.2459,-5.3994,-5.4356,-5.4512,-5.4512,-5.4512,-5.4512,-5.4512,-5.4512,-5.4512,-5.4512,-5.4512,-5.4512,-5.4494,-5.3753,-5.2994,-5.2153,-5.1459,-5.0771,-5.0217,-5.0519,-5.092,-5.1424,-5.1835,-5.2168,-5.2426,-5.2508,-5.1529,-5.009,-5.009,-4.9075,-4.7717,0.0,0.0,0.0,0.0,0.0,0.0,0.0,0.0,0.0,0.0,0.0,0.0,0.0,0.0,0.0,0.0,0.0,0.0,-4.0144,-4.0133,-4.0366,-4.0928,-4.0921,-4.0976,-4.1077,-4.1948,-4.3125,-4.4654,-4.5334,-4.601,-4.6625,-4.6463,-4.6561,-4.6889,-4.6928,-4.7592,-4.8711,-4.8761,-4.883,-4.8839,-4.8231,-4.82,-4.8458,-4.7737,-4.7188,-4.6801,-4.6743,-4.6261,-4.5614,-4.5643,-4.6062,-4.6566,-4.6566,-4.696,-4.7219,-4.6312,-4.7071,-4.8152,-4.7932,-4.8155,-4.8439,-4.8421,-4.7955,-4.7533,-4.7511,-4.7765,-4.8169,-4.8732,-4.8856,-4.9043,-4.9668,-4.9303,-4.9099,-4.9756,-4.9907,-5.0171,-5.0812,-5.0891,-5.0764,-5.0443,-5.0415,-5.0552,-5.1006,-5.1097,-5.1718,-5.3166,0.0,-5.4477,-5.4512,-5.4512,-5.4512,-5.4512,-5.4512,-5.4512,-5.4512,-5.4477,-5.4443,-5.4443,-5.3649,-5.2891,-5.2132,-5.139,-5.0766,-5.0246,-5.0341,-5.0776,-5.1424,-5.1683,-5.1909,-5.2108,-5.2472,-5.1402,-4.9757,-5.0005,-4.9075,-4.7717,0.0,0.0,0.0,0.0,0.0,0.0,0.0,0.0,0.0,0.0,0.0,0.0,0.0,0.0,0.0,0.0,0.0,0.0,-3.9888,-4.0218,-4.0398,-4.0404,-4.0923,-4.1425,-4.1956,-4.2259,-4.2914,-4.3961,-4.4823,-4.5372,-4.5574,-4.5991,-4.6303,-4.6515,-4.6392,-4.6661,-4.7239,-4.7252,-4.733,-4.7443,-4.7591,-4.7682,-4.7718,-4.7178,-4.6906,-4.6713,-4.6126,-4.5769,-4.5673,-4.6234,-4.6821,-4.7331,-4.7366,-4.74,-4.7472,-4.7818,-4.8084,-4.8386,-4.8865,-4.8961,-4.8875,-4.8605,-4.821,-4.7809,-4.7554,-4.7765,-4.8027,-4.8083,-4.8168,-4.8221,-4.8194,-4.8597,-4.8922,-4.899,-4.9925,-5.0699,-5.09,-5.0891,-5.0764,-5.0443,-5.0415,-5.0361,-5.0298,-5.0787,-5.1269,0.0,-5.2925,-5.3925,-5.4477,-5.4512,-5.4512,-5.4512,-5.4512,-5.4512,-5.4512,-5.396,-5.3684,-5.3667,-5.2425,-5.1741,-5.1516,-5.087,-5.0561,-5.0492,-5.0547,-5.0847,-5.1341,-5.1604,-5.1779,-5.1915,-5.2351,-5.1416,-4.9888,-5.0045,-4.9075,-4.7717,0.0,0.0,0.0,0.0,0.0,0.0,0.0,0.0,0.0,0.0,0.0,0.0,0.0,0.0,0.0,0.0,0.0,0.0,0.0,-4.0054,-4.0309,-4.0542,-4.0798,-4.1319,-4.2116,-4.2437,-4.3063,-4.391,-4.4822,-4.5294,-4.5342,-4.5677,-4.59,-4.6015,-4.5932,-4.6262,-4.6877,-4.6932,-4.7057,0.0,0.0,-4.7117,-4.7084,-4.6503,-4.6287,-4.6247,-4.5768,-4.5763,-4.6071,-4.6531,-4.7125,-4.7707,-4.81,-4.8352,-4.8528,-4.8655,-4.8804,-4.8997,-4.9424,-4.9324,-4.9116,-4.8907,-4.8514,-4.8021,-4.7377,-4.7544,-4.767,-4.7078,-4.7333,-4.7577,-4.7298,-4.7942,-4.8555,-4.8673,-4.9688,-5.0567,-5.0865,-5.0891,-5.0764,-5.0443,-5.0415,-5.0274,-5.004,-5.0373,-5.0752,-5.1097,-5.2218,-5.3063,-5.3477,-5.3494,-5.3494,-5.3494,-5.3494,-5.3542,-5.3604,-5.322,-5.3043,-5.3086,-5.1945,-5.1385,-5.1367,-5.0689,-5.0481,-5.0585,0.0,-5.0865,-5.1307,-5.1604,-5.1662,-5.1601,-5.1807,-5.0971,-4.9629,-4.9451,-4.8681,-4.7717,0.0,0.0,0.0,0.0,0.0,0.0,0.0,0.0,0.0,0.0,0.0,0.0,0.0,0.0,0.0,0.0,0.0,0.0,0.0,0.0,-4.0386,-4.1149,-4.0917,-4.1175,-4.2072,-4.2651,-4.3368,-4.4259,-4.501,-4.5376,-4.5361,-4.5406,-4.5421,-4.5406,-4.5475,-4.6008,-4.6828,-4.696,-4.7124,-4.7251,-4.6691,-4.6503,-4.6493,0.0,-4.5657,-4.5682,-4.5612,-4.5937,-4.639,-4.6606,-4.7201,-4.7967,-4.8674,-4.9372,-4.9792,-4.9143,-4.9308,-4.9721,-4.9721,-4.9464,-4.9211,-4.9211,-4.8802,-4.8144,-4.7129,-4.7181,-4.712,-4.5982,-4.6346,-4.6816,-4.6653,-4.7264,-4.8008,-4.8584,-4.9352,-5.0092,-5.0795,-5.0891,-5.0764,-5.0453,-5.0397,-5.0302,-5.0051,-4.9993,-5.0269,-5.0925,-5.1563,-5.1981,-5.217,-5.2218,-5.2248,-5.2248,-5.2248,-5.2309,-5.2493,-5.2401,-5.2426,-5.2526,-5.1755,-5.1372,-5.1355,-5.0739,-5.0537,-5.063,0.0,0.0,-5.1255,-5.1612,-5.1536,-5.1236,-5.1066,-5.0324,-4.9252,-4.8703,-4.8153,-4.7717,0.0,0.0,0.0,0.0,0.0,0.0,0.0,0.0,0.0,0.0,-4.0206,-4.0128,0.0,0.0,0.0,0.0,0.0,0.0,0.0,0.0,0.0,-4.2207,-4.217,-4.2456,-4.3127,-4.3152,-4.3605,-4.4524,-4.4688,-4.4735,-4.4679,-4.4906,-4.4939,-4.4853,-4.5016,-4.5228,-4.5463,-4.5533,-4.563,-4.5698,-4.5755,-4.578,-4.5778,-4.5769,0.0,0.0,-4.562,-4.5618,-4.5774,-4.6386,-4.7461,-4.8574,-4.8827,-4.941,-4.994,-4.9768,-4.9784,-4.9857,-4.9807,-4.954,-4.9292,-4.9292,-4.8836,-4.8144,-4.7129,-4.6801,-4.6365,-4.5236,-4.5097,-4.5315,-4.5602,-4.6312,-4.7208,-4.8344,-4.9196,-5.0031,-5.0785,-5.0891,-5.0819,-5.0602,-5.0481,-5.0331,-5.016,-5.008,-5.0062,-5.0183,-5.0321,-5.0925,-5.2119,-5.2356,-5.2463,-5.2463,-5.2463,-5.2446,-5.2493,-5.1952,-5.168,-5.1691,-5.105,-5.0767,-5.0767,-5.0789,-5.0819,-5.0846,-5.0846,0.0,-5.0981,-5.1281,-5.1228,-5.0937,-5.0699,-5.0068,-4.9252,-4.8703,-4.8153,-4.7717,0.0,0.0,0.0,0.0,0.0,0.0,0.0,-4.0649,-4.0549,-4.0368,-4.03,-4.0234,-4.0157,-4.0157,0.0,0.0,0.0,0.0,0.0,0.0,0.0,0.0,-4.2278,-4.2796,-4.3552,-4.3869,-4.4252,-4.4693,0.0,-4.4751,-4.4712,-4.4833,-4.4877,-4.4808,-4.4931,-4.5061,-4.5164,-4.525,-4.537,-4.5524,-4.562,-4.5679,-4.5703,0.0,0.0,0.0,-4.5466,-4.5272,-4.493,-4.5726,-4.6691,-4.7722,-4.8653,-4.9404,-4.9965,-5.0005,-4.9946,-4.9898,-4.9857,-4.9659,-4.9434,-4.9368,-4.9061,-4.8364,-4.6746,-4.6284,-4.5745,-4.4137,-4.4088,-4.436,-4.4456,-4.5414,-4.6466,-4.7375,-4.8197,-4.9088,-5.0233,-5.0365,-5.0426,-5.0577,-5.0481,-5.0359,-5.0217,-5.008,-5.0011,-5.0011,-5.0011,-5.0333,-5.1129,-5.1251,-5.1298,-5.1298,-5.1298,-5.1367,-5.1522,-5.1196,-5.1078,-5.1179,-5.0895,-5.0774,-5.0774,-5.0846,-5.0891,-5.0891,-5.0891,0.0,-5.0945,-5.135,-5.1025,-5.0268,-5.0019,-4.9406,-4.8603,-4.7974,-4.7705,-4.7717,0.0,0.0,0.0,0.0,0.0,0.0,0.0,-4.0694,-4.0552,-4.0422,-4.0335,-4.0272,-4.0234,-4.0387,-4.0406,0.0,0.0,0.0,0.0,0.0,0.0,0.0,0.0,0.0,-4.3756,0.0,0.0,-4.4858,-4.4895,0.0,0.0,0.0,0.0,0.0,-4.5049,-4.5135,-4.5243,-4.518,-4.5253,0.0,0.0,-4.5175,0.0,0.0,0.0,0.0,0.0,-4.4687,-4.4316,-4.4921,-4.5753,-4.6759,-4.8071,-4.9047,-4.9758,-5.0,-4.9999,-4.9939,-4.9912,-4.9745,-4.9574,-4.948,-4.9279,-4.8551,-4.6431,-4.5937,-4.5352,-4.3321,-4.3312,-4.3642,-4.3599,-4.4507,-4.5583,-4.6472,-4.7115,-4.8098,-4.9686,-4.9907,-5.0084,-5.0597,-5.0537,-5.0397,-5.0246,-5.012,-5.0051,-5.0051,-5.008,0.0,-5.0189,-5.0189,-5.0217,-5.0246,-5.0257,-5.0397,-5.0585,-5.0657,-5.0729,-5.0891,-5.0891,-5.0891,-5.0891,-5.0891,-5.0891,-5.0891,-5.0891,0.0,0.0,-5.1233,-5.0712,-4.967,-4.9234,-4.8663,-4.8009,-4.7265,-4.7312,-4.7717,0.0,0.0,0.0,0.0,0.0,0.0,0.0,-4.0701,-4.0552,-4.0422,-4.0335,-4.0301,-4.0301,-4.0931,-4.1084,0.0,0.0,0.0,0.0,0.0,0.0,0.0,0.0,0.0,0.0,0.0,0.0,-4.5061,-4.5033,0.0,0.0,0.0,0.0,0.0,0.0,-4.5381,-4.5343,-4.4687,0.0,0.0,0.0,0.0,0.0,0.0,0.0,0.0,0.0,-4.3686,-4.4282,-4.4241,-4.5283,-4.6613,-4.6774,-4.7868,-4.9189,-4.9829,-5.0044,-5.0057,-4.992,-4.9745,-4.9608,-4.9574,-4.939,-4.8634,-4.6574,-4.6082,-4.5479,-4.334,-4.2897,-4.305,-4.3509,-4.3617,-4.4266,-4.6271,-4.6672,-4.7455,-4.9615,-4.9907,-5.0136,-5.0785,-5.0702,-5.0519,-5.0397,-5.0274,-5.0189,-5.0189,-5.0302,0.0,-5.0217,-5.0189,-5.0246,-5.0387,-5.0492,-5.0575,-5.0585,-5.0774,-5.0873,-5.0891,-5.0891,-5.0891,-5.0891,-5.0891,-5.0891,-5.0891,-5.0891,0.0,0.0,-5.0416,-5.0037,-4.9591,-4.841,-4.8016,-4.8009,-4.7265,-4.7312,-4.7717,0.0,0.0,0.0,0.0,0.0,0.0,-4.1572,-4.1523,-4.1402,-4.1327,-4.1209,-4.0936,-4.0348,-4.1495,-4.1934,0.0,0.0,0.0,0.0,0.0,0.0,0.0,0.0,0.0,0.0,0.0,-4.4323,-4.5213,-4.5192,0.0,0.0,0.0,0.0,0.0,0.0,-4.4643,-4.4643,-4.3852,0.0,0.0,0.0,0.0,0.0,0.0,0.0,0.0,0.0,0.0,-4.4351,-4.4748,-4.5322,-4.5955,-4.64,-4.701,-4.7791,-4.8989,-4.9321,-4.9404,-4.9792,-4.9774,-4.9648,-4.9623,-4.9406,-4.865,-4.6574,-4.6046,-4.5406,-4.334,-4.2881,-4.2914,-4.3082,-4.3017,-4.3322,-4.4581,-4.5116,-4.6163,-4.8346,-4.9021,-4.9703,-5.076,-5.0729,-5.0547,-5.0397,-5.0359,-5.0302,-5.0217,-5.0246,0.0,-5.0217,-5.0274,-5.0341,-5.0415,-5.0519,-5.0585,-5.0585,-5.0801,-5.0891,-5.0891,-5.0891,-5.0891,-5.0891,-5.0891,-5.0891,-5.0891,-5.0891,0.0,0.0,-5.0328,-4.9658,-4.8898,-4.8102,-4.769,-4.7464,-4.711,-4.7356,-4.7819,0.0,0.0,0.0,0.0,0.0,-4.1269,-4.2082,-4.2083,-4.2067,-4.223,-4.2156,-4.1831,-4.1132,-4.2316,-4.2908,-4.2297,0.0,0.0,0.0,0.0,0.0,0.0,0.0,0.0,0.0,0.0,-4.4074,-4.4914,-4.5163,-4.5307,0.0,0.0,-4.5163,-4.4895,0.0,0.0,0.0,0.0,0.0,0.0,0.0,0.0,0.0,0.0,0.0,0.0,0.0,0.0,0.0,0.0,0.0,-4.5486,-4.6018,-4.6199,-4.657,-4.8376,-4.8871,-4.8992,-4.9711,-4.9802,-4.9678,-4.9634,-4.9265,-4.8418,-4.6552,-4.5861,-4.5095,-4.3285,-4.2901,-4.2881,-4.2822,-4.2688,-4.2821,-4.3489,-4.4168,-4.5258,-4.7228,-4.8112,-4.9091,-5.0506,-5.0504,-5.0439,-5.0502,-5.0481,-5.0369,-5.0178,-5.0217,0.0,-5.0189,-5.0302,-5.0359,-5.0415,-5.0519,-5.0585,-5.0547,-5.0719,-5.0819,-5.0819,-5.0873,-5.0891,-5.0891,-5.0891,-5.0891,-5.0891,0.0,0.0,0.0,-4.9975,-4.9129,-4.8143,-4.7625,-4.7304,-4.7084,-4.7007,-4.7377,-4.7881,0.0,0.0,0.0,0.0,0.0,0.0,-4.2082,-4.2083,-4.226,-4.3002,-4.3033,-4.2935,-4.2794,-4.3491,-4.3987,-4.3968,0.0,0.0,0.0,0.0,0.0,0.0,0.0,0.0,0.0,0.0,-4.3214,-4.4006,-4.4876,-4.5307,-4.5307,-4.5307,-4.4838,-4.4025,0.0,0.0,0.0,0.0,0.0,0.0,0.0,0.0,0.0,0.0,0.0,0.0,0.0,0.0,0.0,0.0,0.0,0.0,0.0,-4.5367,-4.5791,-4.8184,-4.8909,-4.9055,-4.9711,-4.9802,-4.9692,-4.9692,-4.8953,-4.7847,-4.6507,-4.5592,-4.461,-4.3195,-4.2901,-4.2881,-4.2822,-4.2688,-4.2821,-4.3489,-4.41,-4.5031,-4.6594,-4.7405,-4.8395,-4.9928,-4.9984,-5.0154,-5.0733,-5.0667,-5.0436,-5.0022,0.0,0.0,-5.0217,-5.0189,-5.0274,-5.0415,-5.0519,-5.0547,-5.0397,-5.0547,-5.0585,-5.0612,-5.0801,-5.0891,-5.0891,-5.0891,-5.0891,0.0,0.0,0.0,0.0,-4.9137,-4.8327,-4.7352,-4.6813,-4.6806,-4.7084,-4.7007,-4.7377,-4.7881,0.0,0.0,0.0,0.0,0.0,0.0,0.0,-4.3513,-4.3897,-4.4045,-4.4042,-4.3767,-4.3084,-4.3765,-4.4237,-4.4135,0.0,0.0,0.0,0.0,0.0,0.0,0.0,0.0,0.0,0.0,-4.2335,-4.3176,-4.3463,-4.3596,-4.3596,-4.3596,-4.3443,-4.3157,-4.2584,-4.2212,0.0,0.0,0.0,0.0,0.0,0.0,0.0,0.0,0.0,0.0,0.0,0.0,0.0,0.0,0.0,0.0,0.0,0.0,0.0,-4.682,-4.7198,-4.7357,-4.813,-4.8232,-4.8132,-4.8132,-4.7745,-4.7054,-4.5802,-4.5183,-4.4521,-4.3287,-4.2957,-4.2882,-4.2862,-4.2785,-4.2938,-4.3509,-4.4128,-4.5063,-4.646,-4.7316,-4.8183,-4.9167,-4.9563,-5.0039,-5.0785,-5.0729,-5.0547,-5.0425,0.0,0.0,-5.0464,-5.0464,-5.0408,-5.0274,-5.0397,-5.0397,-5.0274,-5.0397,-5.0453,-5.0481,-5.062,-5.0684,-5.0702,-5.0846,0.0,0.0,0.0,0.0,0.0,-4.8914,-4.8158,-4.7335,-4.6594,-4.669,-4.7214,-4.707,-4.7468,-4.8087,0.0,0.0,0.0,0.0,0.0,0.0,0.0,-4.4402,-4.4804,-4.4968,-4.4987,-4.4745,-4.4119,-4.447,-4.4734,-4.4662,0.0,0.0,0.0,0.0,0.0,0.0,0.0,0.0,-4.1036,-4.1342,-4.1762,-4.2316,-4.2602,-4.2764,-4.2764,-4.2764,-4.2582,-4.2247,-4.1704,-4.1313,0.0,0.0,0.0,0.0,0.0,0.0,-4.1992,0.0,0.0,0.0,0.0,0.0,0.0,0.0,0.0,0.0,0.0,0.0,0.0,0.0,-4.5988,-4.6213,-4.7315,-4.7504,-4.7403,-4.7403,-4.697,-4.6325,-4.5497,-4.492,-4.4271,-4.336,-4.3105,-4.3032,-4.292,-4.2842,-4.2887,-4.3176,-4.3953,-4.4814,-4.5714,-4.6708,-4.774,-4.8795,-4.9456,-5.0092,-5.0731,-5.0729,-5.0675,-5.0519,0.0,0.0,-5.0519,-5.0519,-5.0408,-5.0217,-5.0331,-5.0331,-5.0189,-5.0313,-5.0443,-5.0481,-5.0647,-5.0702,-5.0729,-5.0846,0.0,0.0,0.0,0.0,0.0,-4.8415,-4.7643,-4.6906,-4.6561,-4.6778,-4.728,-4.7098,-4.7536,-4.8168,0.0,0.0,0.0,0.0,0.0,0.0,0.0,-4.4791,-4.5107,-4.5728,-4.5812,-4.5757,-4.5629,-4.5494,-4.5429,-4.5419,0.0,0.0,0.0,0.0,0.0,0.0,0.0,0.0,-4.0301,-4.1036,-4.1399,-4.1399,-4.2162,-4.2513,-4.2513,-4.2513,-4.2082,-4.1307,-4.131,-4.0891,-4.0206,-4.0339,-4.0845,-4.159,-4.159,-4.2087,0.0,0.0,0.0,0.0,0.0,0.0,0.0,0.0,0.0,0.0,0.0,0.0,0.0,0.0,0.0,0.0,0.0,-4.7327,-4.7245,-4.7245,-4.6463,-4.5674,-4.5481,-4.4744,0.0,-4.3425,-4.332,-4.3232,-4.2957,-4.2861,-4.2802,-4.2681,-4.3646,-4.4471,-4.4652,-4.5848,-4.7262,-4.8788,-4.9645,-5.0232,-5.0587,-5.0774,-5.0764,0.0,0.0,0.0,-5.0443,-5.0443,-5.0359,-5.0217,-5.0341,-5.0359,-5.0189,-5.0313,-5.0453,-5.0585,-5.0774,-5.0891,-5.0891,-5.0891,0.0,0.0,0.0,0.0,0.0,-4.7696,-4.6941,-4.6246,-4.6607,-4.6985,-4.728,-4.7107,-4.756,-4.8148,0.0,0.0,0.0,0.0,0.0,0.0,0.0,0.0,0.0,0.0,-4.588,-4.584,-4.5757,-4.5723,-4.5651,0.0,0.0,0.0,0.0,0.0,0.0,0.0,0.0,0.0,-4.0301,-4.0492,-4.0578,-4.0578,-4.0721,-4.0797,-4.0787,-4.0747,-4.0603,-4.0421,-4.0412,-4.0328,-4.0234,-4.0873,-4.1294,-4.1571,-4.223,-4.2622,0.0,0.0,0.0,0.0,-4.4006,-4.4571,0.0,0.0,0.0,0.0,0.0,0.0,0.0,0.0,-4.5307,-4.5362,-4.5687,0.0,-4.5646,-4.5646,-4.5294,-4.4928,0.0,-4.4408,-4.3968,-4.3529,-4.3495,-4.339,-4.2976,-4.3013,-4.3156,-4.334,-4.4025,-4.4733,-4.5294,-4.6683,-4.8168,-4.9499,-4.9835,-5.018,-5.0758,-5.0873,-5.0863,0.0,0.0,-5.0819,-5.0764,-5.0764,-5.0655,-5.0359,-5.0464,-5.0436,-5.0217,-5.0313,-5.0415,-5.0453,-5.062,-5.0657,-5.0675,-5.0846,0.0,0.0,0.0,0.0,-4.8425,-4.7696,-4.6941,-4.6196,-4.6295,-4.6731,-4.7236,-4.6852,-4.7371,-4.8228,0.0,0.0,0.0,0.0,0.0,0.0,0.0,0.0,0.0,0.0,0.0,0.0,0.0,0.0,0.0,0.0,0.0,0.0,0.0,0.0,0.0,0.0,0.0,-4.1705,-4.0864,-4.1217,-4.1208,-4.0807,-4.0728,-4.0698,-4.0698,-4.0257,-4.0036,-4.0015,-4.0046,-4.0316,-4.0776,-4.1216,-4.1885,-4.2698,-4.3157,0.0,0.0,0.0,0.0,0.0,-4.4609,-4.4895,0.0,-4.5307,-4.5307,-4.5307,0.0,0.0,0.0,0.0,-4.5286,-4.5254,-4.5203,-4.5148,-4.5103,-4.5049,-4.4889,-4.4685,-4.4619,-4.4435,-4.4203,-4.3844,-4.3714,-4.3672,-4.376,-4.3762,-4.3924,-4.4393,-4.5109,-4.5903,-4.6717,-4.7506,-4.8476,-4.9738,-4.9907,-5.0154,0.0,-5.0891,0.0,0.0,0.0,-5.0891,-5.0891,-5.0891,-5.0764,-5.0509,-5.0557,-5.0492,-5.0285,-5.0425,-5.0537,-5.061,-5.0719,-5.0747,-5.0729,-5.0846,-5.0697,0.0,0.0,0.0,-4.7941,-4.7169,-4.6582,-4.6221,-4.6566,-4.6944,-4.7258,-4.7012,-4.75,-4.8229,0.0,0.0,0.0,0.0,0.0,0.0,0.0,0.0,0.0,0.0,0.0,0.0,0.0,0.0,0.0,0.0,0.0,0.0,0.0,0.0,0.0,0.0,-4.3424,-4.2584,-4.1724,-4.2352,-4.234,-4.1607,-4.1398,-4.1288,-4.1269,-4.0403,-3.9954,-3.99,-4.022,-4.0739,-4.1392,-4.1661,-4.2618,-4.3986,-4.4119,0.0,0.0,0.0,0.0,0.0,0.0,0.0,0.0,-4.5286,-4.5297,-4.5307,-4.5307,0.0,0.0,0.0,0.0,0.0,-4.5181,-4.5136,-4.508,-4.5003,-4.4846,-4.4725,-4.4712,-4.4605,-4.444,-4.4155,-4.3939,-4.4003,-4.468,-4.4618,-4.4711,-4.5399,-4.6201,-4.715,-4.8258,-4.8289,-4.8653,-4.9889,-5.0057,0.0,-5.0847,0.0,0.0,0.0,0.0,-5.0891,-5.0891,-5.0891,-5.0819,-5.0612,-5.063,-5.0575,-5.0425,-5.0519,-5.0675,-5.0846,-5.0846,-5.0873,-5.0891,-5.0768,-5.0329,0.0,0.0,0.0,-4.7327,-4.653,-4.6196,-4.627,-4.6962,-4.7236,-4.728,-4.7236,-4.7687,-4.8229,0.0,0.0,0.0,0.0,0.0,0.0,0.0,0.0,0.0,0.0,0.0,0.0,0.0,0.0,0.0,0.0,0.0,0.0,0.0,0.0,0.0,-4.5105,-4.4284,-4.3433,-4.2622,-4.2676,-4.2626,-4.2493,-4.1683,-4.1288,-4.1269,-4.0361,-3.9911,-3.9957,-4.1389,-4.1756,-4.1404,-4.2829,-4.3596,-4.3888,-4.463,0.0,0.0,0.0,0.0,0.0,0.0,0.0,0.0,-4.5233,-4.5246,-4.5307,-4.5307,0.0,0.0,0.0,0.0,0.0,-4.5136,-4.508,-4.5003,-4.4991,-4.4883,-4.4757,-4.4725,-4.4646,-4.4477,-4.417,-4.4158,-4.4327,-4.4732,-4.4847,-4.5054,-4.5515,-4.6123,-4.712,-4.8752,-4.9043,-4.9525,-5.0629,0.0,-5.0777,-5.0873,0.0,0.0,0.0,0.0,-5.0891,-5.0891,-5.0891,-5.0819,-5.0612,-5.0774,-5.0747,-5.0557,-5.0481,-5.0509,-5.0657,-5.0657,-5.0747,-5.0873,-5.0171,-4.9829,0.0,0.0,-4.7503,-4.7327,-4.653,-4.6196,-4.6246,-4.6684,-4.7053,-4.7276,-4.6985,-4.7478,-4.8287,0.0,0.0,0.0,0.0,0.0,0.0,0.0,0.0,0.0,0.0,0.0,0.0,0.0,0.0,0.0,0.0,0.0,0.0,0.0,0.0,-4.5286,-4.5254,-4.4872,-4.4251,-4.3411,-4.3746,-4.3493,-4.258,-4.2112,-4.168,-4.1233,-4.0802,-4.0828,-4.1283,-4.206,-4.2485,-4.2693,-4.3472,-4.4057,-4.4532,0.0,0.0,0.0,0.0,0.0,0.0,0.0,0.0,0.0,0.0,-4.5213,-4.5246,-4.5297,0.0,0.0,0.0,0.0,0.0,-4.5049,-4.501,-4.4931,-4.4895,-4.4852,-4.4783,-4.4745,-4.4712,-4.4605,-4.4421,-4.4614,-4.5037,-4.5695,-4.6052,-4.6468,-4.7114,-4.7211,-4.7793,-4.951,-4.9494,-4.9784,0.0,0.0,-5.0891,0.0,0.0,0.0,0.0,0.0,0.0,-5.0891,-5.0891,-5.0846,-5.0774,-5.0747,-5.0702,-5.0585,-5.0481,-5.0526,-5.0774,-5.0774,-5.0573,-5.0224,-4.9881,-4.9267,-4.8415,0.0,-4.7151,-4.6705,-4.6354,-4.6196,-4.6246,-4.6847,-4.7147,-4.7341,-4.7521,-4.7669,-4.7811,0.0,0.0,0.0,0.0,0.0,0.0,0.0,0.0,0.0,0.0,0.0,0.0,0.0,0.0,0.0,0.0,0.0,0.0,0.0,-4.5254,-4.5254,-4.5181,-4.5159,-4.4854,-4.4206,-4.4524,-4.4079,-4.2807,-4.2341,-4.1795,-4.1207,-4.1586,-4.2003,-4.2431,-4.2799,-4.3289,-4.379,-4.398,-4.4452,-4.5038,0.0,0.0,0.0,0.0,0.0,0.0,0.0,0.0,0.0,0.0,0.0,0.0,0.0,0.0,0.0,-4.5192,-4.5136,-4.5068,-4.5003,-4.4943,-4.4883,-4.4827,-4.4796,-4.484,-4.5003,-4.4989,-4.4998,-4.5091,-4.5417,-4.5942,-4.6797,-4.7302,-4.7813,-4.8495,-4.8212,-4.848,-5.0044,-4.9821,-4.9967,-5.1254,-5.1175,0.0,0.0,0.0,0.0,0.0,0.0,0.0,-5.0891,-5.0846,-5.0846,-5.0891,-5.0702,-5.0612,-5.0657,-5.0582,-5.061,-5.0846,-5.0643,-5.0267,-4.9706,-4.9337,-4.8529,-4.738,-4.7204,-4.6783,-4.6196,-4.6196,-4.6196,-4.627,-4.6939,-4.7169,-4.7258,-4.7933,-4.7811,-4.7389,0.0,0.0,0.0,0.0,0.0,0.0,0.0,0.0,0.0,0.0,0.0,0.0,0.0,0.0,0.0,0.0,0.0,0.0,0.0,-4.5203,-4.5181,-4.5114,-4.5057,-4.5019,-4.5019,-4.4266,-4.3833,-4.37,-4.2075,-4.1256,-4.1226,-4.2791,-4.3114,-4.2458,-4.4023,-4.4345,-4.377,-4.4497,-4.4869,-4.4907,-4.4907,0.0,0.0,0.0,0.0,0.0,0.0,0.0,0.0,0.0,0.0,0.0,0.0,0.0,-4.5114,-4.5114,-4.5068,-4.501,-4.4991,-4.4943,-4.4883,-4.4827,-4.4796,-4.4965,-4.5588,-4.573,-4.59,-4.6506,-4.6724,-4.6981,-4.7607,-4.8154,-4.8532,-4.8605,-4.8402,-4.8719,-5.0016,0.0,-5.0439,-5.1304,-5.1373,0.0,0.0,0.0,0.0,0.0,0.0,0.0,-5.0891,-5.0729,-5.0702,-5.0891,-5.0702,-5.0702,-5.0891,-5.0863,-5.0774,-5.0612,-4.9948,-4.9634,-4.9671,-4.8205,-4.7485,-4.7345,-4.66,-4.6249,-4.6196,-4.6196,-4.6196,-4.6246,-4.6678,-4.6842,-4.6916,-4.7585,-4.7606,-4.7389,0.0,0.0,0.0,0.0,0.0,0.0,0.0,0.0,0.0,0.0,0.0,0.0,0.0,0.0,0.0,0.0,0.0,0.0,0.0,-4.5235,-4.5224,-4.517,-4.5103,-4.5049,-4.5045,-4.4189,-4.3471,-4.294,-4.1779,-4.1719,-4.2773,-4.3398,-4.3796,-4.3985,-4.463,-4.4724,-4.4478,-4.4762,-4.4895,-4.4895,-4.4895,-4.4895,0.0,0.0,0.0,0.0,0.0,0.0,0.0,0.0,-4.5033,-4.5057,-4.5091,-4.5103,-4.5103,-4.5057,-4.5014,-4.4979,-4.4943,-4.4919,-4.5003,-4.5438,-4.5544,-4.5606,-4.5873,-4.6312,-4.6709,-4.6903,-4.7233,-4.7674,-4.819,-4.8456,-4.8587,-4.855,-4.8401,-4.8671,-4.9687,-5.0047,-5.05,-5.1313,0.0,0.0,0.0,0.0,0.0,0.0,0.0,0.0,0.0,-5.0819,-5.0819,-5.0891,-5.0819,-5.0573,-5.018,-5.0136,-4.9846,-4.9302,-4.9512,-4.9135,-4.824,-4.7661,-4.7134,-4.6635,-4.6337,-4.6196,-4.6196,-4.6196,-4.6196,-4.6246,-4.6637,-4.6795,-4.687,-4.7563,-4.7585,-4.7389,0.0,0.0,0.0,0.0,0.0,0.0,0.0,0.0,0.0,0.0,0.0,0.0,0.0,0.0,0.0,0.0,0.0,0.0,-4.5136,-4.5192,-4.5192,-4.5114,-4.5091,-4.5045,-4.4967,-4.4142,-4.3417,-4.281,-4.2261,-4.2583,-4.3701,-4.3966,-4.4364,-4.4895,-4.4895,-4.4895,-4.4895,-4.4895,-4.4895,-4.4895,-4.4895,-4.4895,0.0,0.0,0.0,0.0,0.0,0.0,0.0,0.0,-4.4955,-4.4986,-4.5014,-4.5045,-4.5033,-4.4979,-4.4955,-4.4955,-4.4907,-4.4895,-4.5022,-4.5494,-4.5989,-4.6372,-4.6345,-4.6958,-4.756,-4.771,-4.7994,-4.8323,-4.8655,-4.8642,-4.855,-4.8513,-4.842,-4.8656,-4.9502,-5.0092,-5.0669,0.0,0.0,0.0,0.0,0.0,0.0,0.0,0.0,0.0,0.0,-5.0846,-5.0723,0.0,-5.0495,-5.0109,-4.9328,-4.9311,-4.8924,-4.817,-4.8696,-4.8415,-4.738,-4.7134,-4.6705,-4.6196,-4.6196,-4.6196,-4.6196,-4.6196,-4.6196,-4.6221,-4.6512,-4.6607,-4.6684,-4.7392,-4.7496,-4.7389,0.0,0.0,0.0,0.0,0.0,0.0,0.0,0.0,0.0,0.0,0.0,0.0,0.0,0.0,0.0,0.0,0.0,0.0,-4.501,-4.5049,-4.5045,-4.4907,-4.4955,-4.4967,-4.4895,-4.4118,-4.3701,-4.3701,-4.3701,-4.3701,-4.3739,-4.4535,-4.4895,-4.4895,-4.4895,-4.4895,-4.4895,-4.4895,-4.4895,-4.4895,-4.4895,-4.4895,-4.4895,0.0,0.0,0.0,0.0,0.0,0.0,0.0,-4.4895,-4.4895,-4.4895,-4.4895,-4.4895,-4.4895,-4.4895,-4.4895,-4.4895,-4.4895,-4.4902,-4.4846,-4.6016,-4.7193,-4.7127,-4.769,-4.8423,-4.9155,-4.9096,-4.8907,-4.8993,-4.8732,-4.8513,-4.8513,-4.8513,-4.8789,-4.9581,-5.0371,-5.1042,0.0,0.0,0.0,0.0,0.0,0.0,0.0,0.0,0.0,0.0,-5.0684,0.0,0.0,-4.9564,-4.917,-4.8495,-4.8477,-4.8135,-4.738,-4.738,-4.738,-4.7345,-4.6547,-4.6196,-4.6196,-4.6196,-4.6196,-4.6196,-4.6196,-4.6196,-4.6196,-4.6196,-4.6196,-4.6295,-4.7035,-4.7302,-4.7389,0.0,0.0,0.0,0.0,0.0,0.0,0.0,0.0,0.0,0.0,0.0,0.0,0.0,0.0,0.0,0.0,0.0,0.0,-4.508,-4.5091,-4.5091,-4.5038,-4.5003,-4.4979,-4.4967,-4.4692,-4.427,-4.3701,-4.3701,-4.3985,-4.4554,-4.4781,-4.4895,-4.4895,-4.4895,-4.4895,-4.4895,-4.4895,-4.4895,-4.4895,-4.4895,-4.4895,-4.4895,0.0,0.0,0.0,0.0,0.0,0.0,0.0,0.0,0.0,-4.4895,-4.4895,-4.4895,-4.4895,-4.4895,-4.4895,-4.4895,-4.4877,-4.5111,-4.6205,-4.6802,-4.741,-4.8521,-4.8961,-4.914,-4.9222,-4.9162,-4.9096,-4.9008,-4.8873,-4.8786,-4.8786,-4.866,-4.8661,-4.8901,-4.962,0.0,0.0,0.0,0.0,0.0,0.0,0.0,0.0,0.0,0.0,0.0,0.0,0.0,0.0,-4.8837,-4.8451,-4.7731,-4.7731,-4.7345,-4.6547,-4.6547,-4.6547,-4.6547,-4.6302,-4.6196,-4.6196,-4.6196,-4.6196,-4.6196,-4.6196,-4.6196,-4.6196,-4.6196,-4.6196,-4.6295,-4.7035,-4.7302,-4.7389,0.0,0.0,0.0,0.0,0.0,0.0,0.0,0.0,0.0,0.0,-4.5447,-4.517,0.0,0.0,0.0,0.0,0.0,0.0,0.0,-4.5057,-4.5057,-4.5014,-4.5022,-4.4998,-4.4955,-4.4919,-4.4668,-4.4175,-4.4175,-4.4421,-4.4895,-4.4895,-4.4895,-4.4895,-4.4895,-4.4902,-4.4858,-4.4883,-4.4858,-4.4821,-4.4846,-4.4833,-4.4808,0.0,0.0,0.0,0.0,0.0,0.0,0.0,0.0,0.0,-4.4895,-4.4895,-4.4895,-4.4895,-4.487,-4.4858,-4.4858,-4.5054,-4.55,-4.6466,-4.7165,-4.7908,-4.9205,-4.9509,-4.9459,-4.9345,-4.9262,-4.9179,-4.9094,-4.8976,-4.8891,-4.8856,-4.8768,-4.8678,-4.8678,-4.9326,0.0,0.0,0.0,0.0,0.0,0.0,0.0,0.0,0.0,0.0,0.0,0.0,0.0,0.0,-4.8082,-4.7713,-4.6941,-4.6923,-4.667,-4.6196,-4.6196,-4.6196,-4.6196,-4.6196,-4.6196,-4.6196,-4.6196,-4.6196,-4.6196,-4.6196,-4.6196,-4.6196,-4.6196,-4.6196,-4.6295,-4.7035,-4.7302,-4.7389,0.0,0.0,0.0,0.0,0.0,0.0,0.0,0.0,0.0,0.0,-4.5459,-4.4907,0.0,0.0,0.0,0.0,0.0,0.0,0.0,-4.4955,-4.4955,-4.4895,-4.4955,-4.4955,-4.4895,-4.4895,-4.4895,-4.4895,-4.4895,-4.4895,-4.4895,-4.4895,-4.4895,-4.4883,-4.4895,-4.4858,-4.4802,-4.4858,-4.4827,-4.4712,-4.4776,-4.4745,-4.4712,-4.4712,0.0,0.0,0.0,0.0,0.0,0.0,0.0,0.0,-4.4895,-4.4895,-4.4895,-4.4895,-4.4846,-4.4815,-4.4909,-4.5443,-4.6032,-4.6183,-4.7321,-4.8604,-4.9336,-4.9509,-4.9509,-4.9509,-4.9345,-4.923,-4.923,-4.9062,-4.8926,-4.8857,-4.884,-4.884,-4.8822,-4.9344,0.0,0.0,0.0,0.0,0.0,0.0,0.0,0.0,0.0,0.0,0.0,0.0,0.0,-4.7309,-4.7292,-4.6941,-4.6214,-4.6196,-4.6196,0.0,-4.6196,-4.6196,-4.6196,-4.6196,-4.6196,-4.6196,-4.6196,-4.6196,-4.6196,-4.6196,-4.6196,-4.6196,-4.6196,-4.6196,-4.6295,-4.6989,-4.7258,-4.7389,0.0,0.0,0.0,0.0,0.0,0.0,0.0,0.0,0.0,0.0,0.0,0.0,0.0,0.0,0.0,0.0,0.0,0.0,0.0,-4.4907,-4.4926,-4.4895,-4.4907,-4.4907,-4.4895,-4.4895,-4.4895,-4.4895,-4.4895,-4.4895,-4.4895,-4.4895,-4.487,-4.4821,-4.487,-4.4821,-4.4738,-4.4783,-4.477,-4.4712,-4.4725,-4.4725,-4.4712,-4.4712,-4.4712,0.0,0.0,0.0,0.0,0.0,0.0,0.0,-4.4895,-4.4895,-4.4895,-4.4895,-4.4846,-4.4947,-4.5628,-4.5819,-4.6158,-4.7476,-4.8528,-4.928,-4.9452,-4.9509,-4.9509,-4.9509,-4.9459,-4.9443,-4.9443,-4.9311,-4.9211,-4.9176,-4.9146,-4.9098,-4.9032,0.0,0.0,0.0,0.0,0.0,0.0,0.0,0.0,0.0,0.0,0.0,0.0,0.0,0.0,-4.6477,-4.646,-4.6372,-4.6196,-4.6196,-4.6196,0.0,-4.6196,-4.6196,-4.6196,-4.6196,-4.6196,-4.6196,-4.6196,-4.6196,-4.6196,-4.6196,-4.6196,-4.6196,-4.6196,-4.6196,-4.6246,-4.6731,-4.7057,-4.7367,0.0,0.0,0.0,0.0,0.0,0.0,0.0,0.0,0.0,0.0,0.0,0.0,0.0,0.0,0.0,0.0,0.0,0.0,0.0,0.0,-4.4902,-4.4846,-4.4846,-4.4833,-4.4796,-4.4852,-4.4846,-4.4846,-4.4883,-4.4895,-4.4895,-4.4895,-4.4858,-4.4796,-4.4833,-4.4789,-4.4659,-4.4706,-4.468,-4.4605,-4.4646,-4.4632,-4.4605,-4.4605,-4.4619,-4.4659,-4.4659,0.0,0.0,0.0,0.0,0.0,0.0,0.0,-4.4895,-4.4895,-4.4846,-4.4972,-4.5815,-4.593,-4.6191,-4.7837,-4.8882,-4.9509,-4.9509,-4.9509,-4.9509,-4.9509,-4.9509,-4.9509,-4.9509,-4.944,-4.9374,-4.9308,-4.9244,-4.9181,-4.9118,0.0,0.0,0.0,0.0,0.0,0.0,0.0,0.0,0.0,0.0,0.0,0.0,-4.6984,-4.6618,-4.6214,-4.6196,-4.6196,-4.6196,-4.6196,-4.6196,-4.6196,-4.6196,-4.6172,-4.6097,-4.6172,-4.6147,-4.6097,-4.6172,-4.6196,-4.6196,-4.6196,-4.6196,-4.6196,-4.6196,-4.6196,-4.6246,-4.6655,-4.7007,-4.7345,0.0,0.0,0.0,0.0,0.0,0.0,0.0,0.0,0.0,0.0,0.0,0.0,0.0,0.0,0.0,0.0,0.0,0.0,0.0,0.0,0.0,-4.4796,-4.4783,-4.4764,-4.4712,-4.4745,-4.477,-4.477,-4.4833,-4.4877,-4.4877,-4.487,-4.4833,-4.4776,-4.4789,-4.4712,-4.4565,-4.4646,-4.4592,-4.4473,-4.4537,-4.4524,-4.4487,-4.4487,-4.451,-4.4578,-4.4578,-4.4619,-4.4699,-4.4751,0.0,0.0,0.0,0.0,-4.4877,-4.4877,-4.4827,-4.4971,-4.5938,-4.6303,-4.6723,-4.7909,-4.8852,-4.9509,-4.9509,-4.9509,-4.9509,-4.9509,-4.9509,-4.9509,-4.9509,-4.9509,-4.9474,-4.934,-4.9295,-4.9214,-4.9135,0.0,0.0,0.0,0.0,0.0,0.0,0.0,0.0,0.0,0.0,0.0,-4.6842,-4.644,-4.6196,-4.6196,-4.6196,-4.6196,-4.6196,-4.6196,-4.6196,-4.6196,-4.6196,-4.6122,-4.5998,-4.6147,-4.6122,-4.5998,-4.6147,-4.6196,-4.6196,-4.6196,-4.6196,-4.6196,-4.6196,-4.6196,-4.6246,-4.6566,-4.6916,-4.7258,0.0,0.0,0.0,0.0,0.0,0.0,0.0,0.0,0.0,0.0,-4.4612,-4.4501,0.0,0.0,0.0,0.0,0.0,0.0,0.0,0.0,0.0,-4.4815,-4.4732,-4.4712,-4.4712,-4.4712,-4.4725,-4.4725,-4.4706,-4.4738,-4.4738,-4.4802,-4.4751,-4.4632,-4.4699,-4.4619,-4.4426,-4.4565,-4.4496,-4.4329,-4.4397,-4.4411,-4.4411,-4.4411,-4.444,-4.4515,-4.4515,-4.457,-4.4619,-4.4619,-4.4672,0.0,0.0,0.0,-4.4738,-4.4738,-4.4685,-4.4958,-4.6539,-4.7968,-4.8886,-4.8326,-4.8852,-4.9509,-4.9509,-4.9509,-4.9509,-4.9509,-4.9509,-4.9509,-4.9509,-4.9509,-4.949,-4.9474,-4.9459,-4.9412,-4.9214,0.0,0.0,0.0,0.0,0.0,0.0,0.0,0.0,0.0,-4.7428,0.0,-4.6957,-4.6488,-4.6196,-4.6196,-4.6196,-4.6196,-4.6196,-4.6196,-4.6196,-4.6196,-4.6196,-4.6122,-4.5998,-4.6147,-4.6122,-4.5998,-4.6147,-4.6196,-4.6196,-4.6196,-4.6196,-4.6196,-4.6196,-4.6196,-4.6214,-4.6246,-4.6536,-4.6916,0.0,0.0,0.0,0.0,0.0,0.0,0.0,0.0,0.0,0.0,0.0,-4.4501,0.0,0.0,0.0,0.0,0.0,0.0,0.0,0.0,0.0,-4.4699,-4.4659,-4.4632,-4.4592,-4.4619,-4.4646,-4.4646,-4.4685,-4.4685,-4.4646,-4.4672,-4.4659,-4.4592,-4.4592,-4.451,-4.4397,-4.4411,-4.4387,-4.43,-4.4329,-4.4325,-4.4358,-4.4401,-4.4411,-4.444,-4.4487,-4.4528,-4.4537,-4.4578,-4.4619,-4.4646,-4.4699,0.0,0.0,0.0,-4.4685,-4.4796,-4.5509,-4.7559,-4.9189,-4.7856,-4.8514,-4.9509,-4.9509,-4.9509,-4.9509,-4.9509,-4.9509,-4.9509,-4.9509,-4.9509,-4.9509,-4.9509,-4.9509,-4.9443,-4.9276,0.0,0.0,0.0,0.0,0.0,0.0,0.0,0.0,0.0,-4.7578,-4.7165,-4.7165,-4.6542,-4.6196,-4.6196,-4.6196,-4.6196,-4.6196,-4.6196,-4.6196,-4.6196,-4.6122,-4.6048,-4.5998,-4.6048,-4.6048,-4.5998,-4.6147,-4.6196,-4.6196,-4.6196,-4.6196,-4.6196,-4.6196,-4.6196,-4.6196,-4.6196,-4.6464,-4.6847,0.0,0.0,0.0,0.0,0.0,0.0,0.0,0.0,0.0,0.0,0.0,0.0,0.0,0.0,0.0,0.0,0.0,0.0,0.0,0.0,0.0,-4.4605,-4.4578,-4.4537,-4.4501,-4.4537,-4.4565,-4.4565,-4.4619,-4.4619,-4.4565,-4.4565,-4.4565,-4.4551,-4.4501,-4.4444,-4.4368,-4.4314,-4.427,-4.424,-4.4255,-4.427,-4.427,-4.4329,-4.4368,-4.4397,-4.4473,-4.4487,-4.4515,-4.457,-4.4565,-4.4578,-4.4632,-4.4646,0.0,0.0,0.0,-4.4909,-4.4635,-4.6665,-4.857,-4.7312,-4.8101,-4.9227,-4.9452,-4.9509,-4.9509,-4.9509,-4.9509,-4.9509,-4.9509,-4.9509,-4.9509,-4.9509,-4.9509,-4.944,-4.9324,0.0,0.0,0.0,0.0,0.0,0.0,0.0,0.0,0.0,-4.7666,-4.7298,-4.7232,-4.6566,-4.6196,-4.6196,-4.6196,-4.6196,-4.6196,-4.6196,-4.6196,-4.6196,-4.6097,-4.6048,-4.6048,-4.6048,-4.6048,-4.6048,-4.6147,-4.6196,-4.6196,-4.6196,-4.6196,-4.6196,-4.6196,-4.6196,-4.6196,-4.6196,-4.6392,-4.6684,0.0,0.0,0.0,0.0,0.0,0.0,0.0,0.0,0.0,0.0,0.0,0.0,-4.4501,-4.4501,-4.4515,-4.4515,-4.4515,0.0,0.0,0.0,0.0,-4.4592,-4.4537,0.0,-4.4501,-4.4501,-4.4515,-4.4515,-4.4515,-4.4515,-4.4515,-4.4515,-4.4468,-4.4411,-4.4397,-4.4373,-4.43,-4.43,-4.4192,-4.402,-4.415,-4.4199,-4.4199,-4.4199,-4.4285,-4.4397,-4.4397,-4.4458,-4.4501,-4.4496,-4.4515,-4.4515,-4.4515,-4.4515,-4.4515,0.0,0.0,0.0,-4.4721,-4.5791,-4.7124,-4.703,-4.7631,-4.8476,-4.9302,-4.9509,-4.9509,-4.9509,-4.9509,-4.9509,-4.9509,-4.9509,-4.9509,-4.9509,-4.9509,-4.944,-4.9324,0.0,0.0,0.0,0.0,0.0,0.0,0.0,0.0,0.0,-4.7642,-4.7209,-4.7043,-4.6488,-4.6196,-4.6196,-4.6196,-4.6196,-4.6196,-4.6196,-4.6196,-4.6196,-4.6196,-4.6196,-4.6196,-4.6196,-4.6196,-4.6196,-4.6214,-4.6196,-4.6196,-4.6196,-4.6196,-4.6196,-4.6196,-4.6196,-4.6196,-4.6196,-4.6196,-4.6295,0.0,0.0,0.0,0.0,0.0,0.0,0.0,0.0,0.0,0.0,0.0,0.0,0.0,-4.4501,-4.4501,-4.4501,-4.4501,0.0,0.0,0.0,0.0,-4.4524,-4.4515,-4.4501,-4.4501,-4.4501,-4.4501,-4.4501,-4.4501,-4.4501,-4.4501,-4.4501,-4.4454,-4.4397,-4.4358,-4.43,-4.4229,-4.4147,-4.4067,-4.4005,-4.4055,-4.407,-4.407,-4.407,-4.4101,-4.4218,-4.4838,-4.47,-4.4337,-4.4982,-4.4857,-4.444,-4.4487,-4.4501,-4.4501,-4.4501,-4.5078,-4.5528,-4.4707,-4.5721,-4.688,-4.6317,-4.6805,-4.765,-4.8476,-4.8664,-4.8814,-4.9377,-4.9509,-4.9509,-4.9509,-4.9509,-4.9509,-4.9509,-4.9509,-4.9474,-4.9443,0.0,0.0,0.0,0.0,0.0,0.0,0.0,0.0,0.0,0.0,0.0,-4.7209,-4.6566,-4.6196,-4.6196,-4.6196,-4.6196,-4.6196,-4.6196,-4.6196,-4.6196,-4.6196,-4.6196,-4.6196,-4.6196,-4.6196,-4.6196,-4.6196,-4.6196,-4.6196,-4.6196,-4.6196,-4.6196,-4.6196,-4.6196,-4.6196,-4.6196,-4.6196,-4.6246,0.0,0.0,0.0,0.0,0.0,0.0,0.0,0.0,0.0,-4.4373,0.0,0.0,0.0,0.0,-4.4444,-4.4454,-4.4487,-4.4501,-4.4501,-4.4501,-4.4501,-4.4501,-4.4501,-4.4501,-4.4501,-4.4501,-4.4501,-4.4501,-4.4501,-4.4501,-4.4473,-4.4473,-4.443,-4.4329,-4.4285,-4.4244,-4.4184,-4.3958,-4.3926,-4.3989,-4.3892,-4.3908,-4.4005,-4.4005,-4.4172,-4.4469,-4.5108,-4.4972,-4.4609,-4.5324,-4.5061,-4.4411,-4.4487,-4.4501,-4.4444,-4.4177,-4.4665,-4.5115,-4.4327,-4.5115,-4.6092,-4.5772,-4.5941,-4.6509,-4.7864,-4.7943,-4.8055,-4.9168,-4.9427,-4.9424,-4.9424,-4.9474,-4.9509,-4.9509,-4.9509,-4.9509,-4.9509,0.0,0.0,0.0,0.0,0.0,0.0,0.0,0.0,0.0,0.0,0.0,-4.7209,-4.6566,-4.6196,-4.6196,-4.6196,-4.6196,-4.6196,-4.6196,-4.6196,-4.6196,-4.6196,-4.6196,-4.6196,-4.6196,-4.6196,-4.6196,-4.6196,-4.6196,-4.6196,-4.6196,-4.6196,-4.6196,-4.6196,-4.6196,-4.6196,-4.6196,-4.6196,-4.6246,0.0,0.0,0.0,0.0,0.0,0.0,0.0,0.0,-4.43,-4.43,0.0,0.0,0.0,0.0,0.0,-4.4383,-4.4458,-4.4487,-4.4501,-4.4468,-4.4468,-4.4501,0.0,0.0,-4.4501,-4.4487,-4.4487,-4.4487,-4.4468,-4.4426,-4.4383,-4.4368,-4.4296,-4.4184,-4.4169,-4.4169,-4.4153,-4.3781,-4.3747,-4.3974,-4.3695,-4.3763,-4.4042,-4.4042,-4.4509,-4.5196,-4.5252,-4.5281,-4.5326,-4.5513,-4.5043,-4.4435,-4.4435,-4.4449,-4.428,-4.3468,-4.3806,-4.4238,0.0,0.0,0.0,-4.5435,-4.5021,-4.505,-4.7435,-4.7326,-4.718,-4.88,-4.9204,-4.927,-4.9308,-4.9409,-4.9509,-4.9509,-4.9509,-4.9509,-4.9509,0.0,0.0,0.0,0.0,0.0,0.0,0.0,0.0,0.0,0.0,-4.7209,-4.7002,-4.6488,-4.6196,-4.6196,-4.6196,-4.6196,-4.6196,-4.6196,-4.6196,-4.6196,-4.6196,-4.6196,-4.6196,-4.6196,-4.6196,-4.6196,-4.6196,-4.6196,-4.6196,-4.6196,-4.6196,-4.6196,-4.6196,-4.6196,-4.6196,-4.6196,-4.6196,-4.6196,0.0,0.0,0.0,0.0,0.0,0.0,-4.4082,-4.4165,-4.4229,0.0,0.0,0.0,-4.43,-4.43,-4.43,-4.4329,-4.4124,-4.4109,-4.4344,-4.4124,-4.4121,-4.4411,-4.4233,-4.4173,-4.4199,-4.4033,-4.3905,-4.3905,-4.3857,-4.3844,-4.3828,-4.3726,-4.3726,-4.3828,-4.3631,-4.3631,-4.3747,-4.3647,-4.3629,-4.3695,-4.3631,-4.4081,-4.48,-4.4735,-4.485,-4.5201,-4.6316,-4.6018,-4.5269,-4.6522,-4.6064,-4.4768,-4.3576,-4.3155,-4.2988,-4.2224,-4.2296,-4.2589,-4.2404,0.0,0.0,0.0,0.0,0.0,-4.5073,-4.5269,-4.5525,-4.7124,-4.7982,-4.8612,-4.9196,-4.9409,-4.9509,-4.9509,-4.9509,-4.9509,-4.9509,0.0,0.0,0.0,0.0,0.0,0.0,0.0,0.0,0.0,-4.7692,-4.7331,-4.7232,-4.6566,-4.6196,-4.6196,-4.6196,-4.6196,-4.6196,-4.6196,-4.6196,-4.6196,-4.6196,-4.6196,-4.6196,-4.6196,-4.6196,-4.6196,-4.6196,-4.6196,-4.6196,-4.6196,-4.6196,-4.6196,-4.6196,-4.6196,-4.6196,-4.6196,-4.6196,-4.6196,0.0,0.0,0.0,0.0,0.0,0.0,-4.3664,-4.3732,-4.3783,0.0,0.0,0.0,-4.3846,-4.3878,-4.3876,-4.3876,-4.3726,-4.3726,-4.3905,-4.3742,-4.3742,-4.3983,-4.3841,-4.3758,-4.3807,-4.366,-4.3577,-4.3577,-4.3526,-4.3493,-4.3477,-4.3389,-4.3425,-4.3495,-4.3321,-4.325,-4.3213,-4.3213,-4.3303,-4.3426,-4.3373,-4.3991,-4.4917,-4.4832,-4.5166,-4.5828,-4.6727,-4.6471,-4.5845,-4.6685,-4.5745,-4.3999,-4.2603,-4.2225,-4.2088,-4.1222,-4.1385,-4.179,-4.1499,-4.1662,-4.2004,-4.2408,0.0,0.0,-4.3366,-4.3739,-4.4244,-4.5873,-4.6647,-4.7258,-4.8034,-4.8016,-4.8096,-4.8759,-4.8871,-4.8984,-4.9371,0.0,0.0,0.0,0.0,0.0,0.0,-4.8532,0.0,-4.8113,-4.763,-4.72,-4.6852,-4.6423,-4.6196,-4.6196,-4.6196,-4.6196,-4.6196,-4.6196,-4.6196,-4.6196,-4.6196,-4.6196,-4.6196,-4.6196,-4.6196,-4.6196,-4.6196,-4.6196,-4.6196,-4.6196,-4.6196,-4.6196,-4.6196,-4.6196,-4.6196,-4.6196,-4.6196,-4.6196,0.0,0.0,0.0,0.0,0.0,-4.3178,-4.3178,-4.3178,-4.3178,0.0,-4.3178,-4.3178,-4.3178,-4.325,-4.3285,-4.3285,-4.332,-4.3336,-4.3371,-4.3336,-4.3354,-4.3388,-4.3354,-4.3354,-4.3354,-4.3336,-4.3301,-4.3301,-4.3301,-4.3267,-4.3196,-4.3196,-4.3178,-4.3142,-4.3105,-4.2957,-4.2711,-4.2673,-4.2879,-4.3196,-4.3103,-4.3797,-4.4858,-4.4729,-4.5493,-4.6655,-4.6726,-4.671,-4.6605,-4.6342,-4.4813,-4.2841,-4.1785,-4.1501,-4.1338,-4.0285,-4.0665,-4.1278,-4.0574,-4.0905,-4.1404,-4.1271,-4.0802,0.0,-4.2001,-4.2421,-4.2995,0.0,-4.5075,-4.5401,-4.6193,-4.5869,-4.5941,-4.7377,-4.7679,-4.8087,-4.9142,0.0,0.0,0.0,0.0,0.0,-4.8532,-4.8401,-4.819,-4.7834,-4.7436,-4.6921,-4.6246,-4.6196,-4.6196,-4.6196,-4.6196,-4.6196,-4.6196,-4.6196,-4.6196,-4.6172,-4.6196,-4.6196,-4.6172,-4.6196,-4.6196,-4.6196,-4.6196,-4.6196,-4.6196,-4.6196,-4.6196,-4.6196,-4.6196,-4.6196,-4.6196,-4.6196,-4.6196,-4.6196,0.0,0.0,-4.3462,0.0,0.0,0.0,-4.3069,-4.3032,-4.2995,-4.2884,-4.2977,-4.3032,-4.3032,-4.3142,-4.3214,-4.3214,-4.2976,-4.2958,-4.3214,-4.2995,-4.2977,-4.332,-4.3105,-4.3032,-4.3069,-4.2864,-4.2749,-4.2749,-4.2707,-4.2667,-4.2647,-4.255,-4.2613,-4.2788,-4.2571,-4.2554,-4.2692,-4.2454,-4.2726,-4.3295,-4.3488,-4.4516,-4.59,-4.5879,-4.6057,-4.638,-4.6985,-4.6807,-4.6334,-4.6532,-4.531,-4.3485,-4.2193,-4.0911,-3.9688,-3.8771,-3.8805,-3.9133,-3.9009,-3.9113,-3.9356,-3.9955,-3.9562,0.0,-4.0139,-4.0331,-4.0657,-4.1856,-4.2659,-4.346,-4.4485,-4.4651,-4.4739,-4.5057,-4.5615,-4.6747,-4.8912,-4.9214,0.0,0.0,0.0,0.0,-4.8605,-4.8495,-4.8286,-4.7834,-4.7236,-4.6684,-4.6221,-4.6196,-4.6196,-4.6196,-4.6196,-4.6196,-4.6196,-4.6196,-4.6147,-4.6048,-4.6147,-4.6147,-4.6048,-4.6147,-4.6196,-4.6196,-4.6196,-4.6196,-4.6196,-4.6196,-4.6196,-4.6196,-4.6196,-4.6196,-4.6196,-4.6196,-4.6196,-4.6196,-4.3284,-4.3105,-4.292,-4.2807,0.0,0.0,0.0,-4.2494,-4.2474,-4.2414,-4.2454,-4.2494,-4.2494,-4.2552,-4.2609,-4.2609,-4.2452,-4.2432,-4.2632,-4.2476,-4.2516,-4.2788,-4.2671,-4.2631,-4.2653,-4.2532,-4.245,-4.245,-4.2427,-4.2405,-4.2405,-4.2328,-4.2371,-4.2494,-4.2369,-4.2331,-4.2376,-4.2269,-4.2544,-4.3142,-4.3513,-4.4591,-4.5986,-4.5939,-4.6149,-4.6565,-4.6932,-4.6649,-4.6128,-4.592,-4.4957,-4.352,-4.1613,-4.051,-3.971,-3.8411,-3.8234,-3.8462,-3.8491,-3.8507,-3.8567,-3.8822,-3.8704,0.0,0.0,-3.9307,-3.9808,-4.0388,-4.0859,-4.1425,-4.235,-4.2257,-4.2316,-4.3082,-4.3963,-4.5127,-4.6726,-4.7473,-4.7853,0.0,0.0,0.0,-4.7423,-4.7206,-4.6972,-4.6722,-4.6237,-4.6011,-4.6179,-4.6196,-4.6196,-4.6196,-4.6196,-4.6196,-4.6196,-4.6196,-4.6172,-4.6097,-4.6172,-4.6147,-4.6097,-4.6172,-4.6196,-4.6196,-4.6196,-4.6196,-4.6196,-4.6196,-4.6196,-4.6196,-4.6196,-4.6196,-4.6196,-4.6196,-4.6196,-4.6196,-4.2847,-4.2616,-4.2356,-4.2333,0.0,0.0,0.0,-4.1945,-4.1945,-4.1941,-4.1962,-4.2015,-4.2157,-4.2196,-4.2218,-4.2218,-4.2218,-4.2172,-4.2097,-4.2082,-4.2145,-4.2267,-4.2287,-4.2308,-4.2308,-4.2308,-4.2308,-4.2308,-4.2308,-4.2308,-4.2308,-4.2308,-4.2308,-4.2308,-4.2267,-4.2205,-4.2103,-4.21,-4.2395,-4.293,-4.3302,-4.426,-4.5432,-4.5496,-4.5916,-4.6489,-4.6631,-4.6331,-4.5831,-4.5275,-4.4474,-4.334,-4.1362,-4.058,-4.0131,-3.8743,-3.8305,-3.8252,-3.8252,-3.8252,-3.8186,-3.7966,-3.8086,-3.8203,0.0,0.0,0.0,-3.9363,-3.938,-3.9581,-4.022,-3.9867,-3.9882,0.0,0.0,0.0,0.0,-4.4711,0.0,0.0,0.0,0.0,0.0,-4.5661,-4.5387,-4.5392,-4.507,-4.5203,-4.5951,-4.5986,-4.6056,-4.6196,-4.6196,-4.6196,-4.6196,-4.6196,-4.6189,-4.6147,-4.6196,-4.6189,-4.6147,-4.6196,-4.6196,-4.6196,-4.6196,-4.6196,-4.6196,-4.6196,-4.6196,-4.6196,-4.6196,-4.6196,-4.6196,-4.6196,-4.6196,-4.6196,-4.2338,-4.2374,-4.2246,-4.2072,-4.2026,0.0,0.0,-4.1819,-4.178,-4.1648,-4.1736,-4.2066,-4.2714,-4.2913,-4.2979,-4.2979,-4.2979,-4.2695,-4.2062,-4.2058,-4.2103,-4.2124,-4.2246,-4.2308,-4.2308,-4.2308,-4.2308,-4.2308,-4.2308,-4.2308,-4.2308,-4.2308,-4.2308,-4.2287,-4.2184,-4.2103,-4.21,-4.2051,-4.2365,-4.2908,-4.297,-4.3437,-4.419,-4.4888,-4.5222,-4.538,-4.6024,-4.5802,-4.5253,-4.5458,-4.4511,-4.3245,-4.309,-4.1656,-3.9995,-3.9677,-3.8683,-3.7685,-3.7685,-3.7685,-3.7685,-3.7649,-3.7667,-3.7685,0.0,0.0,-3.79,-3.8127,0.0,-3.8299,-3.8622,0.0,0.0,0.0,0.0,0.0,-4.0262,-4.0941,-4.2653,-4.5854,0.0,0.0,0.0,0.0,-4.4617,-4.4636,-4.4258,-4.4378,-4.5185,-4.522,-4.5536,-4.6179,-4.6196,-4.6196,-4.6196,-4.6196,-4.6147,-4.6023,-4.6147,-4.6147,-4.6023,-4.6147,-4.6196,-4.6196,-4.6196,-4.6196,-4.6196,-4.6196,-4.6196,-4.6196,-4.6196,-4.6196,-4.6196,-4.6196,-4.6196,-4.6196,-4.1766,-4.1744,-4.1635,-4.1542,-4.1538,-4.1542,-4.156,-4.1626,-4.167,-4.1604,-4.1648,-4.1793,-4.211,-4.2545,-4.2803,-4.2803,-4.3144,-4.3266,-4.3105,-4.2696,-4.252,-4.2672,-4.2307,-4.2136,-4.2136,-4.2136,-4.2136,-4.2136,-4.2136,-4.2136,-4.2136,-4.2136,-4.2136,-4.2136,-4.2072,-4.197,-4.1823,-4.1776,-4.2105,-4.2608,-4.2608,-4.3016,-4.3761,-4.4655,-4.5257,-4.566,-4.5968,-4.5674,-4.5192,0.0,-4.5206,0.0,0.0,-4.2827,-4.1413,-4.0083,-3.8915,-3.7997,-3.7591,-3.7485,-3.7485,0.0,0.0,0.0,-3.7503,0.0,-3.7631,0.0,0.0,0.0,0.0,0.0,0.0,0.0,-3.8788,0.0,0.0,0.0,-4.1365,0.0,0.0,0.0,0.0,0.0,0.0,0.0,0.0,-4.3605,-4.436,-4.4395,-4.4764,-4.5554,-4.5572,-4.5758,-4.6196,-4.6196,-4.6172,-4.6122,-4.6172,-4.6172,-4.6122,-4.6172,-4.6196,-4.6196,-4.6196,-4.6196,-4.6196,-4.6196,-4.6196,-4.6196,-4.6196,-4.6196,-4.6196,-4.6196,-4.6196,-4.6196,-4.1226,-4.1226,-4.1209,-4.1209,-4.1209,-4.1232,-4.134,-4.1431,-4.1475,-4.1475,-4.1475,-4.1563,-4.1813,-4.2416,-4.2835,-4.2811,-4.3443,-4.3798,-4.375,-4.3261,-4.2979,-4.2992,-4.2524,-4.2175,-4.2005,-4.2005,-4.2005,-4.2005,-4.2005,-4.2005,-4.2005,-4.2005,-4.2005,-4.2005,-4.1945,-4.1858,-4.1648,-4.1626,-4.1925,-4.2457,-4.2457,-4.2984,-4.3857,-4.4555,-4.5302,-4.5947,-4.5947,-4.5533,-4.5089,-4.5656,-4.5481,0.0,-4.4519,0.0,-4.2573,-4.0983,-3.9663,-3.8605,-3.8153,0.0,0.0,0.0,0.0,0.0,0.0,0.0,0.0,0.0,0.0,0.0,0.0,0.0,-3.7558,-3.7595,0.0,-3.8744,0.0,-3.9408,0.0,0.0,0.0,0.0,0.0,0.0,0.0,0.0,0.0,0.0,-4.3553,-4.3605,-4.3957,-4.4746,-4.4992,-4.5361,-4.5881,-4.6091,-4.6196,-4.6196,-4.6196,-4.6196,-4.6196,-4.6196,-4.6196,-4.6196,-4.6196,-4.6196,-4.6196,-4.6196,-4.6196,-4.6196,-4.6246,-4.6253,-4.6246,-4.6196,-4.6196,-4.6196,-4.0935,-4.1065,-4.1209,-4.1209,-4.1209,-4.1209,-4.1209,-4.1209,-4.1209,-4.1209,-4.1209,-4.1505,-4.2271,-4.3036,-4.3416,-4.3294,-4.4146,-4.4267,-4.338,-4.3548,-4.3372,-4.274,-4.2823,-4.26,-4.2023,-4.2005,-4.2005,-4.2005,-4.2005,-4.2005,-4.2005,-4.2005,-4.2005,-4.1984,-4.1862,-4.1801,-4.1797,-4.1648,-4.1971,-4.2591,-4.2591,-4.3332,-4.4489,0.0,-4.5177,-4.5812,-4.5812,0.0,0.0,-4.489,-4.4921,0.0,0.0,0.0,0.0,0.0,0.0,0.0,0.0,0.0,0.0,-3.8355,0.0,0.0,0.0,0.0,-3.7297,0.0,0.0,0.0,-3.7392,-3.7411,-3.7448,-3.7577,-3.7631,0.0,0.0,0.0,0.0,0.0,0.0,0.0,0.0,0.0,0.0,0.0,0.0,0.0,-4.2763,-4.2851,-4.3184,-4.3921,-4.4694,-4.5115,-4.5133,-4.5828,-4.6196,-4.6196,-4.6196,-4.6196,-4.6196,-4.6196,-4.6196,-4.6196,-4.6196,-4.6196,-4.6196,-4.6196,-4.6196,-4.6196,-4.635,-4.6381,-4.6374,-4.6246,-4.6196,-4.6196,-4.0912,-4.0965,-4.0995,-4.0995,-4.0995,-4.1035,-4.1123,-4.118,-4.1209,-4.1209,-4.1209,-4.1296,-4.1574,-4.259,-4.3205,-4.318,-4.4225,-4.4828,-4.4699,-4.4309,-4.4079,-4.4021,-4.3545,-4.301,-4.2407,-4.2389,-4.2171,-4.1732,-4.1732,-4.1732,-4.1732,-4.1732,-4.1732,-4.1732,-4.1692,-4.1626,-4.1503,-4.0968,-4.1637,-4.3096,-4.3635,-4.4106,-4.4506,0.0,0.0,-4.5667,-4.577,-4.5326,0.0,-4.553,-4.5323,-4.4868,-4.5498,-4.4596,-4.3185,-4.2719,-4.1326,0.0,0.0,0.0,-3.8192,-3.8192,0.0,0.0,0.0,0.0,0.0,0.0,0.0,0.0,0.0,-3.7671,-3.7354,-3.7448,-3.7466,-3.7503,0.0,-3.7522,0.0,0.0,0.0,-3.8249,0.0,0.0,0.0,0.0,-3.9511,0.0,0.0,-4.1297,-4.185,-4.3131,-4.3447,-4.4079,-4.5098,-4.5361,-4.5705,-4.6196,-4.6196,-4.6196,-4.6196,-4.6196,-4.6196,-4.6196,-4.6196,-4.6196,-4.6196,-4.6196,-4.6246,-4.6326,-4.6381,-4.6453,-4.6542,-4.6471,-4.6398,-4.6326,-4.0912,-4.0912,-4.0912,-4.0912,-4.0912,-4.0935,-4.1023,-4.1237,-4.1399,-4.1399,-4.1594,-4.1726,-4.1726,-4.2735,-4.3366,-4.3271,-4.434,-4.5059,-4.5177,-4.4791,-4.4527,-4.4438,-4.4004,-4.3381,-4.2498,-4.2521,-4.2189,-4.1538,-4.1538,-4.1498,-4.1453,-4.1515,-4.1538,-4.1538,-4.1538,-4.1353,-4.0966,-4.0499,-4.1279,-4.2953,-4.419,-4.4544,0.0,0.0,-4.4915,-4.5243,0.0,-4.5346,-4.5068,-4.5765,-4.5558,-4.5144,-4.5732,-4.4809,-4.3395,-4.2932,-4.1714,-4.0408,-3.997,-3.9338,0.0,-3.8807,-3.8333,0.0,-3.7757,0.0,0.0,0.0,0.0,0.0,0.0,-3.7713,-3.726,-3.7354,-3.7354,-3.7392,0.0,-3.7411,0.0,0.0,-3.7279,-3.7279,0.0,0.0,0.0,-3.8327,-3.8664,-3.9238,0.0,0.0,-4.0959,-4.1955,-4.2472,-4.3226,-4.4273,-4.4721,-4.5229,-4.581,-4.6024,-4.6147,-4.6196,-4.6196,-4.6196,-4.6196,-4.6196,-4.6196,-4.6196,-4.6196,-4.6246,-4.6326,-4.6398,-4.6495,-4.659,-4.659,-4.6518,-4.6398,-4.0871,-4.0871,-4.0871,-4.0871,-4.0905,-4.094,-4.094,-4.1457,-4.1822,-4.1822,-4.2338,-4.268,-4.268,-4.3406,-4.3814,-4.362,-4.4453,-4.494,-4.4803,-4.4913,-4.4707,-4.4077,-4.4225,-4.3723,-4.2402,-4.2449,-4.2137,-4.1433,-4.1433,-4.1353,-4.1209,-4.134,-4.1403,-4.1403,-4.1351,-4.0949,-4.0307,-4.0254,-4.0902,-4.2115,-4.4119,-4.4555,-4.4112,-4.4717,-4.4749,-4.456,-4.5174,-4.5397,-4.5423,-4.5537,-4.5607,-4.5615,-4.5744,-4.4734,-4.3499,-4.3499,-4.2404,-4.1186,-4.1186,-4.0647,-4.0085,-4.0085,0.0,0.0,0.0,0.0,-3.8903,0.0,0.0,0.0,0.0,0.0,-3.7127,-3.7278,-3.7314,-3.7297,-3.7297,-3.7297,-3.7239,-3.7108,-3.7108,-3.7108,-3.7108,-3.7048,-3.7288,-3.8006,-3.8058,-3.8409,0.0,0.0,0.0,-4.0502,-4.1791,-4.2596,-4.2793,-4.3999,-4.475,-4.5091,-4.5688,-4.6038,-4.6196,-4.6214,-4.6196,-4.6196,-4.6196,-4.6196,-4.6196,-4.6196,-4.6196,-4.6221,-4.635,-4.6459,-4.656,-4.6596,-4.6542,-4.6405,-4.0631,-4.0607,-4.0607,-4.0607,-4.1143,-4.157,-4.157,-4.2081,-4.2484,-4.2484,-4.2586,-4.268,-4.268,-4.3284,-4.3664,-4.3603,-4.4279,-4.4737,-4.482,-4.4831,-4.4828,-4.4759,-4.4795,-4.4429,-4.358,-4.3563,-4.3069,-4.1979,-4.1979,-4.1731,-4.1209,-4.1232,-4.1255,-4.1237,-4.068,-4.0314,-4.0127,-3.9569,-4.008,-4.138,-4.2976,-4.3494,-4.3408,0.0,-4.4189,-4.4242,-4.4972,-4.5247,-4.53,-4.552,-4.5537,-4.5476,-4.5607,-4.455,-4.3289,-4.3289,-4.2109,-4.0847,-4.0965,-4.0412,-3.9842,-3.9915,-3.9415,-3.8908,0.0,0.0,0.0,0.0,0.0,0.0,0.0,0.0,0.0,-3.7145,-3.7222,-3.7278,-3.7184,-3.7147,-3.7126,-3.7029,-3.7029,-3.7029,-3.7029,-3.7009,-3.7097,-3.7351,-3.7328,-3.7659,0.0,0.0,0.0,-4.0316,-4.0714,-4.142,-4.2486,-4.2934,-4.3703,-4.4813,-4.517,-4.5579,-4.6048,-4.6147,-4.6196,-4.6196,-4.6196,-4.6196,-4.6196,-4.6196,-4.627,-4.635,-4.6398,-4.6189,-4.5932,-4.6518,-4.6661,-4.6525,-4.051,-4.051,-4.0444,-4.0362,-4.095,-4.152,-4.1688,-4.2202,-4.2739,-4.3045,-4.335,-4.3528,-4.3528,-4.382,-4.402,-4.402,-4.4372,-4.4626,-4.4709,-4.4709,-4.4765,-4.4831,-4.4886,-4.4609,-4.3947,-4.393,-4.3348,-4.2123,-4.2123,-4.1732,-4.1065,-4.1129,-4.0961,-4.0596,-4.0197,-3.9663,-3.9055,-3.9121,-3.979,-4.1002,-4.2595,-4.3271,0.0,-4.4029,-4.4265,-4.4333,-4.4787,-4.5005,-4.514,-4.5283,-4.53,-4.5169,-4.4922,-4.3993,-4.2927,-4.2601,-4.1606,-4.0648,-4.0704,-4.0394,-4.0068,-4.0122,-3.9865,-3.96,-3.96,-3.96,-3.9721,0.0,0.0,0.0,0.0,0.0,0.0,-3.7512,-3.7296,-3.7126,-3.7068,-3.7308,-3.7376,-3.7042,-3.7246,0.0,-3.7042,-3.7007,-3.7009,-3.705,-3.7009,0.0,0.0,0.0,0.0,-3.9748,-4.0336,-4.1058,-4.187,-4.2195,-4.2762,-4.3614,-4.4433,-4.499,-4.5283,-4.574,-4.5905,-4.5854,-4.5905,-4.598,-4.603,-4.6097,-4.6003,-4.5798,-4.5517,-4.5205,-4.5002,-4.5513,-4.5714,-4.5668,-4.0296,-4.0296,-4.0221,-3.9969,-4.038,-4.0894,-4.1435,-4.2044,-4.2736,-4.3436,-4.4046,-4.4384,-4.4384,-4.4384,-4.4384,-4.4384,-4.4384,-4.4384,-4.4384,-4.4384,-4.4384,-4.4384,-4.4525,-4.4315,-4.3736,-4.3817,-4.3261,-4.1917,-4.1992,-4.157,-4.0734,-4.0761,-4.0411,-3.9715,-3.9531,-3.8812,-3.7776,-3.8751,-3.9816,-4.095,-4.2615,-4.34,-4.3678,-4.4321,-4.4615,-4.4598,-4.4496,-4.4663,-4.4978,-4.4978,-4.491,-4.4749,-4.4116,-4.327,-4.2433,-4.1792,-4.1066,-4.0485,-4.051,-4.0485,-4.0485,-4.051,-4.051,-4.051,-4.051,-4.051,-4.051,-4.051,-4.0055,0.0,0.0,0.0,0.0,-3.8199,-3.7554,0.0,0.0,-3.7606,-3.7708,-3.7299,0.0,0.0,0.0,0.0,-3.7042,-3.7128,-3.7145,0.0,0.0,0.0,0.0,0.0,-4.0341,0.0,-4.1163,0.0,-4.1961,-4.2161,-4.3536,-4.4205,-4.4302,-4.507,-4.5416,-4.5415,-4.5529,-4.5606,-4.5647,-4.5765,-4.5453,-4.4845,-4.4155,-4.3908,-4.393,-4.3961,-4.4072,-4.4192,-3.9276,-3.9249,-3.9195,-3.9077,-3.9122,-3.96,-4.0826,-4.1765,-4.2539,-4.3102,-4.3287,-4.3355,-4.3355,-4.3355,-4.3355,-4.3355,-4.3355,-4.3355,-4.3355,-4.3355,-4.3355,-4.3355,-4.3386,-4.3333,-4.3248,-4.3602,-4.3058,-4.1505,-4.1887,-4.1311,-3.9825,-3.9278,-3.8949,-3.8763,-3.7549,-3.733,-3.7874,-3.8229,0.0,-4.151,-4.2337,-4.3022,-4.3678,-4.4321,-4.4615,-4.4513,-4.3859,-4.4139,-4.4831,-4.4831,-4.4504,-4.4082,-4.3945,-4.2937,-4.1775,-4.1638,-4.1016,-4.0362,-4.0485,-4.0412,-4.0362,-4.0485,-4.051,-4.051,-4.051,-4.051,-4.051,-4.051,-3.999,-3.953,-3.953,0.0,0.0,0.0,0.0,0.0,0.0,0.0,-3.7521,-3.8471,-3.8234,-3.8168,0.0,0.0,0.0,-3.7775,-3.7828,0.0,0.0,0.0,0.0,0.0,0.0,0.0,0.0,0.0,0.0,-4.1869,-4.2268,-4.3019,-4.413,-4.4423,-4.4854,-4.5415,-4.5529,-4.526,-4.4738,-4.4863,-4.4502,-4.3801,-4.3133,-4.2928,-4.2966,-4.2432,-4.2312,-4.2589,-3.8728,-3.8728,-3.8689,-3.8551,-3.8848,0.0,0.0,-4.1005,-4.19,-4.2953,-4.3408,-4.3637,-4.3637,-4.395,-4.4195,-4.4195,-4.3835,-4.3637,-4.3637,-4.3309,-4.3113,-4.3113,-4.3113,-4.3113,-4.3113,-4.3309,-4.2778,-4.1409,0.0,0.0,-3.9594,-3.9259,-3.8916,-3.8489,-3.7417,-3.748,-3.8413,0.0,0.0,-4.1135,-4.1144,-4.1747,-4.2661,-4.2964,-4.3238,-4.3379,-4.2963,-4.3119,-4.3505,-4.3505,-4.3311,-4.2991,-4.2617,-4.1988,-4.1325,-4.0942,-4.0535,-4.0213,-4.0271,-4.0238,-4.0213,-4.0288,-4.0296,-4.0296,-4.0296,-4.0296,-4.0296,-4.0296,-4.0097,-3.9939,-4.0011,-3.9588,0.0,0.0,0.0,0.0,0.0,0.0,-3.7661,-3.8349,-3.8454,-3.8471,0.0,0.0,0.0,0.0,0.0,0.0,0.0,0.0,0.0,0.0,0.0,0.0,0.0,0.0,0.0,-4.1032,-4.1624,-4.219,-4.2732,-4.3314,-4.3743,-4.4009,-4.4148,-4.4043,-4.3756,-4.3645,-4.3423,-4.311,-4.2368,-4.2121,-4.2131,-4.1877,-4.1797,-4.1903,-3.8617,-3.8719,-3.8735,-3.8579,-3.9062,-3.9542,-3.9911,-4.0436,-4.1231,-4.2598,-4.3375,-4.3798,-4.3798,-4.4432,-4.4821,-4.4675,-4.4139,-4.3733,-4.357,-4.3081,-4.2789,-4.2789,-4.2789,-4.2789,-4.2789,-4.2881,-4.2383,0.0,0.0,0.0,0.0,-3.9156,-3.8707,0.0,0.0,0.0,0.0,0.0,-3.9,-4.05,-4.0061,-4.055,-4.1554,-4.1554,-4.176,-4.2011,-4.186,-4.1792,-4.1775,-4.1624,-4.1782,-4.1965,-4.139,-4.1085,-4.0849,-4.0282,-4.0096,-4.0096,-4.0096,-4.0096,-4.0096,-4.0096,-4.0096,-4.0096,-4.0096,-4.0096,-4.0096,-4.0096,-4.0188,-4.0288,-4.0436,-4.0127,0.0,0.0,0.0,0.0,0.0,0.0,-3.8069,-3.8303,-3.8782,-3.8851,-3.8188,0.0,0.0,0.0,0.0,0.0,0.0,0.0,0.0,0.0,0.0,-4.0648,-4.0534,0.0,-4.0412,0.0,-4.1083,-4.1417,-4.1384,-4.2168,-4.2578,-4.2654,-4.2809,-4.2859,-4.2827,-4.2397,-4.2306,-4.2323,-4.1761,-4.1498,-4.152,-4.1692,-4.1692,-4.1626,-3.9172,-3.9422,-3.9623,-3.9437,0.0,0.0,-4.042,-4.0593,-4.091,-4.1625,-4.2387,-4.2831,-4.2831,-4.3432,-4.3606,-4.3006,-4.2879,-4.2562,-4.188,-4.1784,-4.1753,-4.1753,-4.1753,-4.1753,-4.1753,-4.2206,-4.1948,0.0,0.0,-3.991,0.0,0.0,0.0,0.0,0.0,0.0,0.0,-3.7654,-3.8581,-3.9966,-3.991,-4.0381,-4.1066,-4.1066,-4.1095,-4.1025,-4.0351,-4.012,-4.0022,-3.9353,-4.0101,-4.1288,-4.1221,-4.073,-4.0197,-4.013,-4.0096,-4.0096,-4.0096,-4.0096,-4.0096,-4.0096,-4.0096,-4.0096,-4.0096,-4.0096,-4.0096,-4.0096,-4.0113,-4.0163,-4.0288,-4.0286,-4.0268,0.0,0.0,0.0,0.0,0.0,-3.8787,-3.9307,-3.9606,-3.9477,-3.8627,-3.8712,0.0,0.0,-3.8812,0.0,0.0,0.0,0.0,-4.0618,0.0,-4.0697,-4.0673,-4.0453,0.0,-4.0305,-4.0281,-4.0595,-4.123,-4.1323,-4.1782,-4.2532,-4.2671,-4.2466,-4.205,-4.135,-4.1063,-4.1092,-4.1198,-4.1232,-4.1277,-4.152,-4.1604,-4.1626,0.0,0.0,0.0,0.0,0.0,0.0,0.0,-4.0762,-4.1157,-4.1557,-4.2236,-4.2695,-4.2695,-4.3311,-4.3576,-4.3327,-4.2932,-4.2568,-4.2268,-4.1841,-4.1588,-4.1588,-4.1588,-4.1588,-4.1588,-4.1818,-4.1549,0.0,0.0,0.0,0.0,0.0,0.0,0.0,0.0,-3.787,-3.7766,-3.7725,-3.8092,-3.8707,-3.8521,-3.8769,-3.9271,-3.9271,-3.9414,-3.9652,-3.9357,-3.9242,-3.9182,-3.8887,-3.9232,-3.975,-3.975,-3.9578,-3.9329,-3.9329,-3.9329,-3.9329,-3.9329,-3.9329,-3.9329,-3.9329,-3.9329,-3.9382,-3.9618,-3.967,-3.9747,-4.0045,-4.0096,-4.0113,-4.0163,-4.002,-3.975,0.0,0.0,0.0,0.0,0.0,0.0,-3.821,-3.834,-3.8122,-3.7398,0.0,0.0,0.0,0.0,0.0,0.0,0.0,0.0,-3.9915,0.0,-4.0065,-4.0337,-4.0238,-4.0188,-4.0188,-4.0213,-4.0366,-4.0671,-4.073,-4.1,-4.1416,-4.1565,-4.1564,-4.1438,-4.1203,-4.1134,-4.1221,-4.1363,-4.1431,-4.1453,-4.1648,-4.167,-4.1626,-3.8874,0.0,-3.9192,0.0,-3.9911,-4.0271,-4.0634,-4.1009,-4.1323,-4.1555,-4.2047,-4.2442,-4.2663,-4.3311,-4.3608,-4.3437,-4.2963,-4.26,-4.2378,-4.1873,-4.1588,-4.1588,-4.1588,0.0,-4.1588,-4.1588,-4.1417,-4.1039,-4.0388,0.0,0.0,0.0,0.0,0.0,-3.8557,-3.8426,-3.7812,-3.7626,-3.7655,-3.7756,-3.7583,-3.7671,-3.7915,-3.7915,-3.8132,-3.8415,-3.8415,-3.8415,-3.8415,-3.8415,-3.8415,-3.8472,-3.8722,-3.8805,-3.8805,-3.8805,-3.8805,-3.8805,-3.8805,-3.8805,-3.8805,-3.8805,-3.8805,-3.8871,-3.9169,-3.9206,-3.9329,-3.9644,-3.9713,-3.9713,-3.9713,-3.9523,-3.9182,-3.8683,0.0,0.0,0.0,-3.7632,0.0,-3.7719,-3.7961,-3.7759,-3.6915,-3.7142,0.0,0.0,0.0,0.0,0.0,0.0,0.0,0.0,0.0,0.0,0.0,-4.0011,-4.002,-4.0096,-4.0255,-4.028,-4.0238,-4.0412,-4.0558,-4.0697,-4.084,-4.0959,-4.1029,-4.1088,-4.118,-4.133,-4.142,-4.1471,-4.1498,-4.1587,-4.1604,-4.156,-3.998,-4.0246,-4.0597,-4.1005,-4.0749,-4.0749,-4.1474,-4.1323,-4.1223,-4.1555,-4.1604,-4.1873,-4.2616,-4.3311,-4.3419,-4.2758,-4.2695,-4.2378,-4.1652,-4.1588,-4.1588,0.0,0.0,-4.1588,-4.1588,-4.1588,-4.1588,-4.1573,0.0,0.0,-3.9689,0.0,0.0,-3.8461,-3.8292,-3.7838,-3.7208,-3.7224,-3.7329,-3.751,-3.751,-3.751,-3.751,-3.751,-3.751,-3.751,-3.751,-3.751,-3.751,-3.751,-3.751,-3.7671,-3.8528,-3.8805,-3.8805,-3.8805,-3.8805,-3.8805,-3.8805,-3.8805,-3.8805,-3.8805,-3.8805,-3.8805,-3.8805,-3.8805,-3.8805,-3.8805,-3.8832,-3.8832,-3.8832,-3.8805,-3.8805,-3.8788,0.0,0.0,0.0,0.0,0.0,-3.853,-3.9261,-3.9202,-3.7724,-3.7828,0.0,0.0,0.0,0.0,0.0,0.0,0.0,-3.8412,-3.893,0.0,-3.9901,-3.9781,-3.9833,-4.0096,-4.0255,-4.0238,-4.0096,-4.037,-4.0558,-4.0697,-4.084,-4.0912,-4.0912,-4.0894,-4.0982,-4.1093,-4.1111,-4.1169,-4.1209,-4.1209,-4.1295,-4.1426,-3.9768,-3.9859,-4.0036,-4.0296,-4.0366,-4.0539,-4.0987,-4.0969,-4.107,-4.1522,-4.1489,-4.1551,-4.192,-4.2141,-4.2173,0.0,-4.1936,-4.1841,0.0,-4.1588,-4.1588,-4.1588,-4.1588,-4.1588,-4.1588,-4.1588,-4.1522,-4.139,0.0,0.0,0.0,-3.9486,-3.9141,-3.8308,-3.8733,-3.8293,-3.7224,-3.7359,-3.7359,-3.73,-3.7435,-3.751,-3.751,-3.751,-3.751,-3.748,-3.7329,-3.7375,-3.748,-3.7329,-3.73,-3.7359,-3.7772,-3.7918,-3.7918,-3.7918,-3.7918,-3.7918,-3.7918,-3.7918,-3.7918,-3.7918,-3.7918,-3.8004,-3.8258,-3.8567,-3.8805,-3.8805,-3.8805,-3.8805,-3.8805,-3.8539,-3.8315,-3.8315,0.0,0.0,0.0,0.0,-3.7789,-3.7289,-3.7441,-3.7297,0.0,-3.6662,0.0,0.0,0.0,0.0,0.0,0.0,0.0,0.0,-3.8096,0.0,-3.9158,-3.9276,-3.9355,-3.9355,-3.9487,-3.9644,-3.9858,-4.0387,-4.0478,-4.018,-4.0387,-4.0387,-4.0238,-4.0458,-4.0662,-4.084,-4.1082,-4.118,-4.1209,-4.1209,-4.1232,-4.1295,-4.0435,-4.0507,-4.0616,-4.0796,-4.0634,-4.0593,-4.1013,-4.0728,-4.0696,-4.1223,-4.1189,-4.1223,-4.1456,-4.1489,0.0,-4.1588,-4.1588,-4.1588,-4.1588,-4.1588,-4.1588,-4.1588,-4.1588,-4.1588,-4.1588,0.0,0.0,-4.1423,-4.0982,-4.0525,-3.9971,-4.0261,-3.973,-3.856,-3.884,-3.8263,-3.7013,-3.715,-3.715,-3.7119,-3.7255,-3.7301,-3.7331,-3.7375,-3.7361,-3.7301,-3.7224,-3.724,-3.7301,-3.7165,-3.7119,-3.715,-3.7329,-3.7405,-3.7405,-3.748,-3.751,-3.751,-3.751,-3.751,-3.751,-3.751,-3.751,-3.7553,-3.7815,-3.8103,-3.8303,-3.8303,-3.8303,-3.8303,-3.8303,-3.8075,-3.7873,-3.7873,0.0,-3.751,-3.751,0.0,0.0,0.0,0.0,0.0,0.0,-3.6675,0.0,0.0,0.0,0.0,0.0,0.0,0.0,-3.7019,-3.7676,0.0,-3.8788,-3.898,-3.9061,-3.9061,-3.9152,-3.9444,-3.9935,-4.0121,-4.0163,-4.0054,-4.0045,-3.9927,-3.9816,-4.0187,-4.0451,-4.0614,-4.0971,-4.1111,-4.1175,-4.1111,-4.1111,-4.118,-4.1671,-4.1835,0.0,0.0,-4.1386,0.0,-4.1398,-4.0664,-4.0252,-4.0712,-4.0765,-4.0885,-4.1223,-4.129,-4.1357,-4.1555,0.0,0.0,0.0,-4.1588,-4.1588,-4.1588,-4.1588,0.0,-4.1588,-4.1555,-4.1555,-4.1555,-4.1522,-4.1522,-4.1522,-4.1187,-4.0351,-3.9074,-3.8687,-3.785,-3.6723,-3.6723,-3.6831,-3.7015,-3.7015,-3.7015,-3.6999,-3.715,-3.7089,-3.6999,-3.715,-3.7089,-3.7015,-3.7015,-3.7015,-3.703,-3.7164,-3.7224,-3.7254,-3.7435,-3.751,-3.751,-3.751,-3.751,-3.751,-3.751,-3.751,-3.751,-3.751,-3.751,-3.751,-3.751,-3.751,-3.751,-3.751,-3.751,-3.751,-3.751,-3.751,-3.751,-3.751,0.0,0.0,0.0,0.0,0.0,0.0,-3.7604,-3.7134,0.0,0.0,0.0,0.0,0.0,-3.6355,-3.7058,-3.7623,-3.8177,-3.8722,-3.875,-3.8898,-3.9152,-3.9179,-3.954,-4.0188,-3.9644,-3.9696,-4.0163,-3.9756,-3.9558,-3.9584,-4.0045,-4.0279,-4.0392,-4.0734,-4.0959,-4.1047,-4.0935,-4.0982,-4.1093,0.0,0.0,-4.1558,-4.1596,-4.1513,-4.1353,-4.11,-4.0882,-4.0715,-4.0601,-4.0558,-4.0662,-4.0885,-4.1052,-4.1169,-4.1203,-4.1305,-4.1423,-4.1588,-4.1456,-4.1456,-4.1588,-4.1456,-4.1357,-4.1357,-4.1288,-4.1153,-4.1003,-4.0833,-4.0749,-4.0765,-4.0662,-4.0001,-3.888,-3.8767,-3.8072,-3.6938,-3.6938,-3.6969,-3.7015,-3.7015,-3.7015,-3.6999,-3.703,-3.703,-3.6969,-3.6846,-3.6892,-3.7015,-3.7015,-3.7015,-3.7045,-3.7345,-3.7329,-3.7254,-3.7435,-3.751,-3.751,-3.751,-3.751,-3.751,-3.751,-3.751,-3.751,-3.751,-3.751,-3.751,-3.751,-3.751,-3.751,-3.751,-3.751,-3.751,-3.751,-3.751,-3.751,-3.751,-3.751,0.0,0.0,-3.7642,-3.7642,-3.7642,-3.7512,-3.7404,0.0,0.0,0.0,0.0,0.0,-3.6617,-3.6934,-3.7566,-3.7976,-3.8119,-3.8278,-3.842,-3.86,-3.8914,-3.9104,-3.9142,-3.9444,-3.9418,-3.9142,-3.9259,-3.9179,-3.9034,-3.9435,-3.9722,-3.9901,-4.0395,-4.0607,-4.0655,-4.084,-4.0935,-4.0959,-4.2436,-4.2528,-4.2552,-4.249,-4.2288,-4.2032,-4.1625,-4.112,-4.0716,-4.0746,-4.0375,-4.0316,-4.0765,-4.0916,-4.1,-4.1083,-4.1169,-4.1239,-4.1355,-4.1288,-4.1254,-4.1388,-4.1288,-4.1221,-4.1221,-4.1187,-4.1138,-4.1021,-4.0848,-4.078,-4.078,-4.0662,-4.014,-3.9234,-3.8826,-3.8147,-3.7219,-3.6909,-3.6785,-3.6785,-3.6785,-3.6785,-3.6785,-3.6831,-3.6831,-3.6785,-3.6723,-3.6739,-3.6785,-3.6785,-3.68,-3.6892,-3.7181,-3.7255,-3.7254,-3.7435,-3.751,-3.751,-3.751,-3.7435,-3.7345,-3.7301,-3.7271,-3.7301,-3.7345,-3.7359,-3.7405,-3.748,-3.751,-3.751,-3.751,-3.7435,-3.7405,-3.748,-3.7435,-3.7405,-3.748,-3.751,0.0,-3.751,-3.751,-3.751,-3.751,-3.751,-3.751,-3.751,0.0,0.0,-3.7478,-3.7263,-3.7157,-3.7243,-3.7626,-3.7876,-3.8049,-3.8209,-3.8323,-3.8391,-3.8628,-3.8777,-3.8887,-3.9007,-3.898,-3.8887,-3.886,-3.8777,-3.8738,-3.9142,-3.9408,-3.9635,-4.0246,-4.051,-4.0517,-4.0799,-4.0912,-4.0935,-4.369,-4.3847,-4.391,-4.3769,-4.3262,-4.2801,-4.2526,-4.1528,-4.0843,-4.0991,-4.0374,-4.0142,-4.0677,-4.073,-4.0799,-4.1,-4.1,-4.1016,-4.1083,-4.1068,-4.1068,-4.1117,-4.1068,-4.1068,-4.1117,-4.1221,-4.1256,-4.1223,-4.112,-4.1034,-4.1016,-4.0833,-4.0393,-3.9727,-3.8882,-3.8138,-3.7461,-3.6784,-3.6492,-3.6492,-3.6492,-3.6492,-3.6523,-3.6631,-3.66,-3.6523,-3.6631,-3.6616,-3.6523,-3.6554,-3.6647,-3.6785,-3.6999,-3.7165,-3.7284,-3.7435,-3.751,-3.751,-3.751,-3.7359,-3.7164,-3.7044,-3.6999,-3.703,-3.7164,-3.7194,-3.7254,-3.7464,-3.751,-3.748,-3.7464,-3.7329,-3.7254,-3.7391,-3.7221,-3.7144,-3.7419,0.0,-3.7399,-3.7494,-3.751,-3.751,-3.751,-3.751,-3.7541,-3.7652,-3.7668,0.0,0.0,-3.79,-3.7989,-3.7989,-3.7782,-3.7894,-3.8267,-3.8553,-3.8703,-3.8703,-3.8715,-3.8848,-3.9051,-3.8723,-3.8686,-3.8887,-3.856,-3.8476,-3.8616,-3.9007,-3.9232,-3.9408,-4.0121,-4.0395,-4.0485,-4.0728,-4.0864,-4.0912,-4.3651,-4.3729,-4.3808,-4.3949,-4.3858,-4.36,-4.3001,-4.2743,-4.2198,-4.1149,-4.105,-4.0868,-4.0443,-4.047,-4.0558,-4.0593,-4.047,-4.0624,-4.1083,-4.095,-4.0916,-4.1083,-4.095,-4.0916,-4.1117,-4.1102,-4.1052,-4.0901,-4.0867,-4.0765,-4.0593,-4.0558,-4.0204,-3.9526,-3.8816,-3.8138,-3.7461,-3.6784,-3.6492,-3.6492,-3.6492,-3.6492,-3.6492,-3.6523,-3.6523,-3.6492,-3.6523,-3.6523,-3.6554,-3.6816,-3.6938,-3.6999,-3.7331,-3.745,-3.7464,-3.748,-3.751,-3.751,-3.751,-3.7359,-3.7194,-3.7164,-3.7075,-3.703,-3.7164,-3.7194,-3.7254,-3.7464,-3.751,-3.7435,-3.7284,-3.7224,-3.7164,-3.709,-3.665,-3.655,-3.7175,0.0,-3.6817,-3.7431,-3.751,-3.751,-3.751,-3.751,-3.7717,-3.8302,-3.8349,-3.8602,-3.9155,-3.9218,-3.9218,-3.9218,-3.8215,-3.8,-3.8633,-3.9526,-3.9997,-3.9997,-4.0113,-3.9924,-3.9414,-3.9372,-3.9032,-3.8504,-3.8548,-3.856,-3.8616,-3.8914,-3.905,-3.9104,-3.9609,-3.9944,-4.0196,-4.0444,-4.0704,-4.0912,-4.3651,-4.3596,-4.3557,-4.3793,-4.3699,-4.3554,-4.3385,-4.3075,-4.2698,-4.2299,-4.1584,-4.1092,-4.0999,-4.0701,-4.0489,-4.0489,-4.042,-4.0505,-4.0746,-4.0505,-4.0539,-4.0916,-4.0746,-4.0799,-4.1221,-4.1135,-4.1034,-4.095,-4.0833,-4.0765,-4.0662,-4.0662,-4.0492,-4.0152,-3.9135,-3.8436,-3.7984,-3.6938,-3.6492,-3.6492,-3.6492,-3.6492,-3.6492,-3.6492,-3.6492,-3.6492,-3.6492,-3.6492,-3.6523,-3.6693,-3.677,-3.6862,-3.7014,-3.718,-3.7329,-3.7329,-3.7435,-3.748,-3.7359,-3.7254,-3.7164,-3.6983,-3.6877,-3.6862,-3.6938,-3.6922,-3.6998,-3.7181,-3.7285,-3.73,-3.7119,-3.7105,-3.7075,-3.6999,-3.6688,0.0,0.0,-3.7417,-3.7571,-3.8354,-3.8479,-3.851,-3.857,-3.857,-3.8697,-3.9029,-3.9044,-3.9171,-3.9487,-3.9503,-3.9503,-3.9503,-3.9056,-3.8988,-3.9291,-3.9855,-4.0198,-4.0305,-4.0379,-4.0261,-4.0011,-3.9638,-3.9327,-3.8958,-3.8626,-3.8532,-3.8616,-3.8727,-3.8876,-3.905,-3.9398,-3.9687,-3.9935,-4.0188,-4.0345,-4.0485,-4.3651,-4.3557,-4.3542,-4.3793,-4.366,-4.3621,-4.3871,-4.3432,-4.313,-4.3341,-4.2212,-4.1433,-4.1581,-4.0955,-4.0489,-4.0489,-4.0455,-4.047,-4.0489,-4.0207,-4.0242,-4.0696,-4.0677,-4.0833,-4.1239,-4.1221,-4.1203,-4.1135,-4.1003,-4.0901,-4.0882,-4.0833,-4.0799,-4.0737,-3.934,-3.8639,-3.8415,-3.7093,-3.6523,-3.6492,-3.6523,-3.6523,-3.6492,-3.6492,-3.6492,-3.6492,-3.6492,-3.6492,-3.6492,-3.6554,-3.66,-3.6708,-3.68,-3.6983,-3.7194,-3.7194,-3.73,-3.7405,-3.73,-3.7254,-3.7134,-3.6861,-3.6785,-3.6785,-3.6816,-3.6816,-3.6877,-3.7014,-3.7291,-3.7415,-3.7203,-3.7343,-3.7436,-3.7344,0.0,0.0,0.0,-3.8122,-3.8372,-3.9188,-3.933,-3.9377,-3.9503,-3.9503,-3.9566,-3.974,-3.9756,-3.9819,-3.9977,-3.9993,-3.9993,-3.9993,-3.9992,-3.9991,-3.9991,-4.0306,-4.0526,-4.0726,-4.0757,-4.0782,-4.0723,-4.0235,-3.9813,-3.9473,-3.8893,-3.861,-3.8576,-3.8604,-3.8727,-3.8914,-3.9169,-3.9382,-3.9609,-3.9799,-3.9969,-4.0062,-4.3651,-4.3832,-4.4011,-4.4205,-4.4243,-4.4281,-4.4496,-4.4312,-4.4029,-4.3611,-4.2934,-4.2258,-4.1663,-4.0955,-4.0489,-4.0489,-4.0401,-4.0366,-4.0489,-4.0207,-4.0172,-4.0489,-4.0848,-4.1068,-4.1102,-4.1406,-4.1456,-4.129,-4.129,-4.1205,-4.1068,-4.0882,-4.0799,-4.0737,-3.9208,-3.8508,-3.8415,-3.7203,-3.66,-3.6523,-3.6631,-3.66,-3.6492,-3.6492,-3.6492,-3.6492,-3.6492,-3.6492,-3.6523,-3.6631,-3.6693,-3.6739,-3.7074,-3.7194,-3.7194,-3.7194,-3.7224,-3.7254,-3.7435,-3.7329,-3.7178,-3.7164,-3.7075,-3.6999,-3.7134,-3.7148,-3.7164,-3.7194,-3.7849,-3.8245,-3.7732,-3.8308,-3.8759,-3.8419,0.0,0.0,-3.8645,-3.8403,-3.845,-3.9219,-3.9409,-3.9503,-3.9503,-3.9503,-3.9787,-4.0467,-4.0514,-4.0783,-4.1399,-4.143,-4.143,-4.143,-4.0878,-4.0562,-4.0562,-4.1357,-4.1836,-4.1949,-4.2157,-4.1976,-4.1531,-4.1466,-4.0737,-3.9505,-3.9457,-3.9052,-3.842,-3.8548,-3.8616,-3.8644,-3.8777,-3.9007,-3.9232,-3.9259,-3.954,-3.9926,-4.3793,-4.3832,-4.3871,-4.4089,-4.4089,-4.4166,-4.4396,-4.4358,-4.4266,-4.4233,-4.3655,-4.2956,-4.2294,-4.1601,-4.1016,-4.0536,-4.0366,-4.0366,-4.0489,-4.0366,-4.0366,-4.0489,-4.0969,-4.1205,-4.1205,-4.1456,-4.1489,-4.129,-4.1221,-4.1169,-4.1117,-4.0882,-4.0799,-4.0737,-3.9307,-3.8687,-3.8609,-3.7281,-3.6723,-3.6816,-3.6723,-3.6662,-3.66,-3.6523,-3.6492,-3.6492,-3.6492,-3.6492,-3.6523,-3.6554,-3.6585,-3.66,-3.6831,-3.6968,-3.7105,-3.7345,-3.7255,-3.7135,-3.7421,-3.7435,-3.7359,-3.7224,-3.7164,-3.7119,-3.7075,-3.7387,-3.7715,-3.7715,-3.8403,-3.889,-3.8462,-3.884,-3.9043,-3.8573,0.0,-3.8742,-3.9162,-3.9318,-3.9639,-4.0343,-4.0521,-4.0669,-4.0798,-4.0798,-4.0909,-4.1193,-4.1209,-4.132,-4.1573,-4.1588,-4.1588,-4.1588,-4.1465,-4.1339,-4.1209,-4.1657,-4.1963,-4.2109,-4.2318,-4.2331,-4.2213,-4.1806,-4.132,-4.0785,-4.0332,-3.9719,-3.91,-3.9129,-3.8955,-3.8604,-3.8672,-3.8777,-3.8952,-3.8952,-3.9061,-3.9212,-4.3738,-4.3754,-4.3769,-4.3949,-4.3988,-4.4104,-4.4358,-4.4358,-4.4358,-4.4572,-4.4024,-4.3439,-4.2956,-4.2125,-4.1401,-4.0909,-4.0558,-4.0401,-4.0489,-4.0489,-4.0558,-4.0677,-4.1088,-4.129,-4.129,-4.1423,-4.1423,-4.129,-4.1169,-4.1117,-4.1117,-4.0882,-4.0799,-4.0737,-3.9389,-3.88,-3.8722,-3.7406,-3.6907,-3.6999,-3.6907,-3.68,-3.6693,-3.66,-3.6554,-3.6492,-3.6492,-3.6492,-3.6492,-3.6492,-3.6523,-3.6585,-3.6739,-3.6923,-3.7105,-3.7301,-3.7211,-3.7105,-3.7301,-3.7421,-3.748,-3.7329,-3.73,-3.7333,-3.7447,-3.7793,-3.8107,-3.8294,-3.8951,-3.942,-3.9144,-3.9526,-3.9732,-3.9387,-3.9534,-3.9804,-3.9988,-4.0284,-4.0638,-4.1107,-4.1305,-4.1456,-4.1588,-4.1588,-4.1588,-4.1588,-4.1588,-4.1588,-4.1588,-4.1588,-4.1588,-4.1588,-4.1736,-4.1752,-4.1588,-4.1784,-4.1963,-4.2109,-4.2238,-4.2413,-4.2586,-4.2132,-4.1823,-4.1579,-4.1077,-4.0348,-3.9505,-3.9505,-3.9113,-3.8532,-3.8532,-3.8572,-3.8667,-3.8667,-3.8711,-3.8738,-4.329,-4.3518,-4.3769,-4.3949,-4.3988,-4.4143,-4.4549,-4.4435,-4.4358,-4.4572,-4.4024,-4.3608,-4.3608,-4.2402,-4.1617,-4.1601,-4.094,-4.0505,-4.0489,-4.0489,-4.0677,-4.1083,-4.1239,-4.129,-4.129,-4.129,-4.129,-4.129,-4.1169,-4.1117,-4.1083,-4.0882,-4.0799,-4.0737,-3.9404,-3.8815,-3.8722,-3.7653,-3.7135,-3.7015,-3.715,-3.7013,-3.6708,-3.6693,-3.6631,-3.6492,-3.6492,-3.6492,-3.6492,-3.6492,-3.6585,-3.6723,-3.6938,-3.7089,-3.7164,-3.703,-3.7105,-3.7164,-3.703,-3.7241,-3.751,-3.751,-3.751,-3.767,-3.8365,-3.8338,-3.8372,-3.8903,-3.9525,-3.9975,-3.9825,-4.0533,-4.1117,-4.1117,-4.1117,-4.1117,-4.1117,-4.1205,-4.129,-4.129,-4.1489,-4.1588,-4.1588,-4.1588,-4.1588,-4.1588,-4.1588,-4.1588,-4.1588,-4.1588,-4.1588,-4.1588,-4.1588,-4.1588,-4.1588,-4.1784,-4.1963,-4.2109,-4.2109,-4.2286,-4.2602,-4.2602,-4.2245,-4.1612,-4.1612,-4.0818,-3.9522,-3.9522,-3.9055,-3.8408,-3.8391,-3.8391,-3.8391,-3.8391,-3.8476,-3.8588,-4.3596,-4.3754,-4.3949,-4.3988,-4.4127,-4.4281,-4.4572,-4.4549,-4.4534,-4.4572,-4.444,-4.4132,-4.3655,-4.3254,-4.2602,-4.1678,-4.1401,-4.1063,-4.052,-4.0627,-4.0765,-4.0882,-4.1052,-4.1205,-4.129,-4.1423,-4.1456,-4.129,-4.1169,-4.1034,-4.0882,-4.0696,-4.0662,-4.0752,-3.9885,-3.9365,-3.9092,-3.8309,-3.7741,-3.7361,-3.724,-3.7134,-3.7043,-3.68,-3.6693,-3.6631,-3.6523,-3.6492,-3.6492,-3.6492,-3.6585,-3.6754,-3.7059,-3.7164,-3.7224,-3.7315,-3.7211,-3.7105,-3.7301,-3.7315,-3.7329,-3.7464,-3.7844,-3.8224,-3.8291,-3.9015,-3.9673,-3.9715,-4.0341,-4.0859,-4.0722,-4.1113,-4.1339,-4.095,-4.107,-4.1104,-4.0746,-4.1037,-4.1272,-4.1153,-4.1406,-4.1588,-4.1588,-4.1588,-4.1588,-4.1588,-4.1588,-4.1588,-4.1588,-4.1588,-4.1588,-4.1588,-4.1752,-4.1752,-4.1588,-4.1784,-4.1931,-4.1947,-4.2061,-4.2254,-4.2476,-4.2476,-4.2395,-4.231,-4.231,-4.1792,-4.0931,-4.0429,-3.9784,-3.9104,-3.8602,-3.8391,-3.8391,-3.8391,-3.8436,-3.8448,-4.369,-4.3808,-4.391,-4.3988,-4.4104,-4.4243,-4.4473,-4.4549,-4.461,-4.461,-4.461,-4.4471,-4.4055,-4.3762,-4.3177,-4.2094,-4.1494,-4.1001,-4.052,-4.0627,-4.073,-4.0799,-4.0916,-4.1086,-4.129,-4.1372,-4.1372,-4.129,-4.1169,-4.1034,-4.0916,-4.078,-4.0814,-4.0885,-4.0286,-3.9888,-3.9628,-3.8732,-3.8179,-3.7859,-3.747,-3.7254,-3.7194,-3.6983,-3.6816,-3.6693,-3.66,-3.6569,-3.6569,-3.6569,-3.6723,-3.6952,-3.724,-3.7329,-3.7329,-3.7359,-3.7285,-3.7304,-3.7692,-3.7755,-3.7802,-3.8132,-3.8351,-3.8588,-3.8952,-3.9626,-4.0235,-4.04,-4.0774,-4.1138,-4.1153,-4.1339,-4.139,-4.1055,-4.1156,-4.1189,-4.0851,-4.1088,-4.129,-4.1288,-4.1472,-4.1588,-4.1588,-4.1588,-4.1588,-4.1588,-4.1588,-4.1588,-4.1588,-4.1588,-4.1588,-4.1588,-4.1703,-4.1703,-4.1588,-4.1703,-4.1833,-4.1898,-4.198,-4.2093,-4.227,-4.2349,-4.2445,-4.2539,-4.2571,-4.2229,-4.1579,-4.1126,-4.038,-3.9473,-3.9007,-3.8651,-3.8391,-3.8391,-3.8391,-3.8391,-4.369,-4.369,-4.3769,-4.3949,-4.3988,-4.4065,-4.4281,-4.4473,-4.461,-4.461,-4.461,-4.461,-4.461,-4.4071,-4.3439,-4.2756,-4.1397,-4.0566,-4.0489,-4.0489,-4.0593,-4.0765,-4.0799,-4.0919,-4.1256,-4.1153,-4.1153,-4.129,-4.1153,-4.1117,-4.1117,-4.1117,-4.1117,-4.112,-4.0614,-4.0382,-4.0241,-3.9156,-3.8665,-3.8539,-3.7859,-3.7484,-3.7303,-3.724,-3.7013,-3.6739,-3.6723,-3.6723,-3.6723,-3.6754,-3.6952,-3.7254,-3.7435,-3.751,-3.7496,-3.7363,-3.7454,-3.7703,-3.8275,-3.8495,-3.8714,-3.9251,-3.9015,-3.8936,-4.002,-4.0171,-4.0273,-4.0943,-4.095,-4.0935,-4.1256,-4.1323,-4.1323,-4.129,-4.129,-4.129,-4.1256,-4.1256,-4.1357,-4.1555,-4.1588,-4.1588,-4.1588,-4.1588,-4.1588,-4.1588,-4.1588,-4.1588,-4.1588,-4.1588,-4.1588,-4.1588,-4.1588,-4.1588,-4.1588,-4.1588,-4.1703,-4.1866,-4.1866,-4.1947,-4.2077,-4.2286,-4.2381,-4.2413,-4.2539,-4.223,-4.1693,-4.1628,-4.0818,-3.9586,-3.9538,-3.9039,-3.8391,-3.8391,-3.8391,-3.8391,-4.3636,-4.369,-4.3769,-4.3949,-4.3988,-4.4065,-4.4281,-4.4473,-4.461,-4.461,-4.461,-4.461,-4.461,-4.4486,-4.4132,-4.3454,-4.214,-4.1124,-4.0536,-4.0489,-4.0524,-4.0558,-4.073,-4.0833,-4.0901,-4.1138,-4.1205,-4.1135,-4.1205,-4.1205,-4.1117,-4.1117,-4.1169,-4.1256,-4.1133,-4.0887,-4.0513,-4.0245,-3.9819,-3.9234,-3.8555,-3.8256,-3.8146,-3.7458,-3.7148,-3.7074,-3.6984,-3.6938,-3.6953,-3.7059,-3.7134,-3.7254,-3.7435,-3.751,-3.7575,-3.8098,-3.8256,-3.8428,-3.9077,-3.9188,-3.9282,-3.991,-3.9876,-3.9715,-3.9878,-4.0393,-4.0847,-4.0851,-4.1037,-4.1223,-4.129,-4.1423,-4.1456,-4.1203,-4.1135,-4.1086,-4.0935,-4.1052,-4.1187,-4.1357,-4.1489,-4.1588,-4.1588,-4.1588,-4.1588,-4.1588,-4.1588,-4.1588,-4.1588,-4.1588,-4.1588,-4.1588,-4.1588,-4.1588,-4.1588,-4.1588,-4.1621,-4.167,-4.167,-4.1768,-4.1947,-4.1996,-4.2141,-4.2413,-4.2445,-4.2411,-4.2359,-4.1839,-4.1093,-4.0221,-3.9716,-3.9039,-3.8391,-3.8391,-3.8391,-3.8391,-4.3448,-4.3596,-4.3769,-4.3949,-4.391,-4.391,-4.4143,-4.432,-4.4496,-4.4587,-4.461,-4.461,-4.461,-4.461,-4.4348,-4.367,-4.2355,-4.1447,-4.1063,-4.0689,-4.0489,-4.0489,-4.0696,-4.0765,-4.0662,-4.1088,-4.1272,-4.1187,-4.1272,-4.129,-4.1355,-4.1355,-4.1372,-4.1456,-4.1456,-4.13,-4.1051,-4.0735,-4.0388,-3.9961,-3.9266,-3.8981,-3.895,-3.8463,-3.826,-3.8183,-3.8106,-3.8091,-3.8122,-3.8245,-3.829,-3.8321,-3.8414,-3.8444,-3.8507,-3.8871,-3.8981,-3.9092,-3.9724,-3.9833,-3.9909,-4.0419,-4.054,-4.0522,-4.0437,-4.0751,-4.1068,-4.095,-4.1086,-4.1205,-4.129,-4.139,-4.1372,-4.1135,-4.1153,-4.1153,-4.095,-4.1086,-4.1239,-4.1423,-4.1522,-4.1588,-4.1588,-4.1588,-4.1588,-4.1588,-4.1588,-4.1588,-4.1588,-4.1588,-4.1588,-4.1588,-4.1588,-4.1588,-4.1588,-4.1588,-4.1588,-4.1588,-4.1703,-4.1752,-4.1752,-4.1915,-4.2093,-4.227,-4.2349,-4.2476,-4.257,-4.2229,-4.1662,-4.0934,-4.0237,-3.9541,-3.8877,-3.8521,-3.8391,-3.8391,-4.3086,-4.3369,-4.3596,-4.3778,-4.3754,-4.3769,-4.391,-4.4127,-4.4358,-4.4572,-4.461,-4.461,-4.4663,-4.461,-4.4348,-4.3707,-4.2499,-4.1724,-4.1617,-4.0889,-4.0489,-4.0489,-4.0696,-4.073,-4.0558,-4.1037,-4.1272,-4.1272,-4.1323,-4.1423,-4.1588,-4.1588,-4.1588,-4.1588,-4.1588,-4.1588,-4.1541,-4.1004,-4.0767,-4.0704,-3.9977,-3.9692,-3.9677,-3.955,-3.944,-3.9314,-3.9314,-3.9314,-3.9346,-3.9471,-3.9503,-3.9503,-3.9503,-3.9503,-3.9518,-3.9645,-3.9645,-3.9771,-4.0319,-4.0443,-4.0452,-4.0761,-4.095,-4.1068,-4.1135,-4.1135,-4.1135,-4.1135,-4.1169,-4.1236,-4.1323,-4.1357,-4.129,-4.1169,-4.1239,-4.1272,-4.1169,-4.1239,-4.139,-4.1588,-4.1588,-4.1588,-4.1588,-4.1588,-4.1588,-4.1588,-4.1588,-4.1588,-4.1588,-4.1588,-4.1588,-4.1588,-4.1588,-4.1588,-4.1588,-4.1588,-4.1588,-4.1588,-4.1784,-4.1817,-4.167,-4.1931,-4.2077,-4.2109,-4.2286,-4.2445,-4.2555,-4.2473,-4.2035,-4.1353,-4.0594,-3.9897,-3.9246,-3.8618,-3.8391,-3.8391,-4.2333,-4.2633,-4.289,-4.3115,-4.3463,-4.3729,-4.3729,-4.4065,-4.4358,-4.4572,-4.461,-4.4648,-4.4836,-4.4685,-4.4386,-4.3886,-4.3019,-4.2217,-4.1632,-4.0889,-4.0489,-4.0489,-4.0696,-4.0799,-4.0765,-4.0984,-4.1135,-4.1135,-4.1406,-4.1555,-4.1588,-4.1588,-4.1588,-4.1588,-4.1588,-4.1588,-4.1588,-4.1494,-4.1446,-4.1399,-4.0719,-4.0451,-4.0388,-3.974,-3.9503,-3.9471,-3.9471,-3.9471,-3.9471,-3.9503,-3.9503,-3.9503,-3.9503,-3.9503,-3.9629,-4.0261,-4.0339,-4.0335,-4.0993,-4.0948,-4.0792,-4.1003,-4.095,-4.0935,-4.1205,-4.1256,-4.1256,-4.1256,-4.139,-4.1538,-4.1555,-4.1555,-4.1489,-4.129,-4.129,-4.129,-4.129,-4.129,-4.139,-4.1588,-4.1588,-4.1588,-4.1588,-4.1588,-4.1588,-4.1588,-4.1588,-4.1588,-4.1588,-4.1588,-4.1588,-4.1588,-4.1588,-4.1588,-4.1588,-4.1588,-4.1588,-4.1588,-4.1784,-4.1898,-4.1866,-4.1898,-4.198,-4.2109,-4.2142,-4.2238,-4.2396,-4.1939,-4.132,-4.0577,-3.991,-3.9185,-3.8537,-3.844,-3.8391,-3.8391,-4.2266,-4.2511,-4.2809,-4.3101,-4.3155,-4.3319,-4.3793,-4.4026,-4.4243,-4.4572,-4.4685,-4.4836,-4.5055,-4.4889,-4.4653,-4.4322,-4.3615,-4.2863,-4.2202,-4.1509,-4.094,-4.0505,-4.0696,-4.0765,-4.0627,-4.1003,-4.1187,-4.1117,-4.1339,-4.1489,-4.1588,-4.1588,-4.1588,-4.1588,-4.1588,-4.1588,-4.1588,-4.1588,-4.1588,-4.1557,-4.1272,-4.1146,-4.1114,-4.0798,-4.0672,-4.0672,-4.0672,-4.0672,-4.0672,-4.0672,-4.0672,-4.0672,-4.0672,-4.0672,-4.0735,-4.1051,-4.1015,-4.0898,-4.1127,-4.1086,-4.095,-4.095,-4.1003,-4.1122,-4.1256,-4.139,-4.1423,-4.1323,-4.1357,-4.1423,-4.1423,-4.1423,-4.1423,-4.1323,-4.1374,-4.1423,-4.1323,-4.139,-4.1489,-4.1588,-4.1588,-4.1588,-4.1588,-4.1588,-4.1588,-4.1588,-4.1588,-4.1588,-4.1588,-4.1588,-4.1588,-4.1588,-4.1588,-4.1588,-4.1588,-4.1588,-4.1588,-4.1588,-4.1784,-4.1898,-4.1898,-4.1898,-4.198,-4.2109,-4.2109,-4.1981,-4.1785,-4.1633,-4.1174,-4.0415,-3.9765,-3.9039,-3.8391,-3.8391,-3.8391,-3.8391]},{"header":{"parameterUnit":"m.s-1","parameterCategory":1,"la1":30.6,"la2":28.766,"lo1":-90.7593,"lo2":-88.6598,"dy":0.0162,"dx":0.0183,"nx":116,"ny":114,"refTime":"2023-05-03T18:00:00:Z","depth":0,"parameterNumber":3,"parameterNumberName":"V-component_of_WINDS"},"data":[0.0,0.0,0.0,0.0,0.0,0.0,0.0,0.0,0.0,0.0,0.0,0.0,0.0,0.0,0.0,0.0,0.0,0.0,0.0,0.0,0.0,0.0,0.0,0.0,0.0,0.0,0.0,0.0,0.0,0.0,0.0,0.0,0.0,0.0,0.0,0.0,0.0,0.0,0.0,0.0,0.0,0.0,0.0,0.0,0.0,0.0,0.0,0.0,0.0,0.0,0.0,0.0,0.0,0.0,0.0,0.0,0.0,0.0,0.0,0.0,0.0,0.0,0.0,0.0,0.0,0.0,0.0,0.0,0.0,0.0,0.0,0.0,0.0,0.0,0.0,0.0,0.0,0.0,0.0,0.0,0.0,0.0,0.0,0.0,0.0,0.0,0.0,0.0,0.0,0.0,0.0,0.0,0.0,0.0,0.0,0.0,0.0,0.0,0.0,0.0,0.0,0.0,0.0,0.0,0.0,0.0,0.0,0.0,0.0,0.0,0.0,0.0,0.0,0.0,0.0,0.0,0.0,0.0,0.0,0.0,0.0,0.0,0.0,0.0,0.0,0.0,0.0,0.0,0.0,0.0,0.0,0.0,0.0,0.0,0.0,0.0,0.0,0.0,0.0,0.0,0.0,0.0,0.0,0.0,0.0,0.0,0.0,0.0,0.0,0.0,0.0,0.0,0.0,0.0,0.0,0.0,0.0,0.0,0.0,0.0,0.0,0.0,0.0,0.0,0.0,0.0,0.0,0.0,0.0,0.0,0.0,0.0,0.0,0.0,0.0,0.0,0.0,0.0,0.0,0.0,0.0,0.0,0.0,0.0,0.0,0.0,0.0,0.0,0.0,0.0,0.0,0.0,0.0,0.0,0.0,0.0,0.0,0.0,0.0,0.0,0.0,0.0,0.0,0.0,0.0,0.0,0.0,0.0,0.0,0.0,0.0,0.0,0.0,0.0,0.0,0.0,0.0,0.0,0.0,0.0,0.0,0.0,0.0,0.0,0.0,0.0,0.0,0.0,0.0,0.0,0.0,0.0,0.0,0.0,0.0,0.0,0.0,0.0,0.0,0.0,0.0,0.0,0.0,0.0,0.0,0.0,0.0,0.0,0.0,0.0,0.0,0.0,0.0,0.0,0.0,0.0,0.0,0.0,0.0,0.0,0.0,0.0,0.0,0.0,0.0,0.0,0.0,0.0,0.0,0.0,0.0,0.0,0.0,0.0,0.0,0.0,0.0,0.0,0.0,0.0,0.0,0.0,0.0,0.0,0.0,0.0,0.0,0.0,0.0,0.0,0.0,0.0,0.0,0.0,0.0,0.0,0.0,0.0,0.0,0.0,0.0,0.0,0.0,0.0,0.0,0.0,0.0,0.0,0.0,0.0,0.0,0.0,0.0,0.0,0.0,0.0,0.0,0.0,0.0,0.0,0.0,0.0,0.0,0.0,0.0,0.0,0.0,0.0,0.0,0.0,0.0,0.0,0.0,0.0,0.0,0.0,0.0,0.0,0.0,0.0,0.0,0.0,0.0,0.0,0.0,0.0,0.0,0.0,0.0,0.0,0.0,0.0,0.0,0.0,0.0,0.0,0.0,0.0,0.0,0.0,0.0,0.0,0.0,0.0,0.0,0.0,0.0,0.0,0.0,0.0,0.0,0.0,0.0,0.0,0.0,0.0,0.0,0.0,0.0,0.0,0.0,0.0,0.0,0.0,0.0,0.0,0.0,0.0,0.0,0.0,0.0,0.0,0.0,0.0,0.0,0.0,0.0,0.0,0.0,0.0,0.0,0.0,0.0,0.0,0.0,0.0,0.0,0.0,0.0,0.0,0.0,0.0,0.0,0.0,0.0,0.0,0.0,0.0,0.0,0.0,0.0,0.0,0.0,0.0,0.0,0.0,0.0,0.0,0.0,0.0,0.0,0.0,0.0,0.0,0.0,0.0,0.0,0.0,0.0,0.0,0.0,0.0,0.0,0.0,0.0,0.0,0.0,0.0,0.0,0.0,0.0,0.0,0.0,0.0,0.0,0.0,0.0,0.0,0.0,0.0,0.0,0.0,0.0,0.0,0.0,0.0,0.0,0.0,0.0,0.0,0.0,0.0,0.0,0.0,0.0,0.0,0.0,0.0,0.0,0.0,0.0,0.0,0.0,0.0,0.0,0.0,0.0,0.0,0.0,0.0,0.0,0.0,0.0,0.0,0.0,0.0,0.0,0.0,0.0,0.0,0.0,0.0,0.0,0.0,0.0,0.0,0.0,0.0,0.0,0.0,0.0,0.0,0.0,0.0,0.0,0.0,0.0,0.0,0.0,0.0,0.0,0.0,0.0,0.0,0.0,0.0,0.0,0.0,0.0,0.0,0.0,0.0,0.0,0.0,0.0,0.0,0.0,0.0,0.0,0.0,0.0,0.0,0.0,0.0,0.0,0.0,0.0,0.0,0.0,0.0,0.0,0.0,0.0,0.0,0.0,0.0,0.0,0.0,0.0,0.0,0.0,0.0,0.0,0.0,0.0,0.0,0.0,0.0,0.0,0.0,0.0,0.0,0.0,0.0,0.0,0.0,0.0,0.0,0.0,0.0,0.0,0.0,0.0,0.0,0.0,0.0,0.0,0.0,0.0,0.0,0.0,0.0,0.0,0.0,0.0,0.0,0.0,0.0,0.0,0.0,0.0,0.0,0.0,0.0,0.0,0.0,0.0,0.0,0.0,0.0,0.0,0.0,0.0,0.0,0.0,0.0,0.0,0.0,0.0,0.0,0.0,0.0,0.0,0.0,0.0,0.0,0.0,0.0,0.0,0.0,0.0,0.0,0.0,0.0,0.0,0.0,0.0,0.0,0.0,0.0,0.0,0.0,0.0,0.0,0.0,0.0,0.0,0.0,0.0,0.0,0.0,0.0,0.0,0.0,0.0,0.0,0.0,0.0,0.0,0.0,0.0,0.0,0.0,0.0,0.0,0.0,0.0,0.0,0.0,0.0,0.0,0.0,0.0,0.0,0.0,0.0,0.0,0.0,0.0,0.0,0.0,0.0,0.0,0.0,0.0,0.0,0.0,0.0,0.0,0.0,0.0,0.0,0.0,0.0,0.0,0.0,0.0,0.0,0.0,0.0,0.0,0.0,0.0,0.0,0.0,0.0,0.0,0.0,0.0,0.0,0.0,0.0,0.0,0.0,0.0,0.0,0.0,0.0,0.0,0.0,0.0,0.0,0.0,0.0,0.0,0.0,0.0,0.0,0.0,0.0,0.0,0.0,0.0,0.0,0.0,0.0,0.0,0.0,0.0,0.0,0.0,0.0,0.0,0.0,0.0,0.0,0.0,0.0,0.0,0.0,0.0,0.0,0.0,0.0,0.0,0.0,0.0,0.0,0.0,0.0,0.0,0.0,0.0,0.0,0.0,0.0,0.0,0.0,0.0,0.0,0.0,0.0,0.0,0.0,0.0,0.0,0.0,0.0,0.0,0.0,0.0,0.0,0.0,0.0,0.0,0.0,0.0,0.0,0.0,0.0,0.0,0.0,0.0,0.0,0.0,0.0,0.0,0.0,0.0,0.0,0.0,0.0,0.0,0.0,0.0,0.0,0.0,0.0,0.0,0.0,0.0,0.0,0.0,0.0,0.0,0.0,0.0,0.0,0.0,0.0,0.0,0.0,0.0,0.0,0.0,0.0,0.0,0.0,0.0,0.0,0.0,0.0,0.0,0.0,0.0,0.0,0.0,0.0,0.0,0.0,0.0,0.0,0.0,0.0,0.0,0.0,0.0,0.0,0.0,0.0,0.0,0.0,0.0,0.0,0.0,0.0,0.0,0.0,0.0,0.0,0.0,0.0,0.0,0.0,0.0,0.0,0.0,0.0,0.0,0.0,0.0,0.0,0.0,0.0,0.0,0.0,0.0,0.0,0.0,0.0,0.0,0.0,0.0,0.0,0.0,0.0,0.0,0.0,0.0,0.0,0.0,0.0,0.0,0.0,0.0,0.0,0.0,0.0,0.0,0.0,0.0,0.0,0.0,0.0,0.0,0.0,0.0,0.0,0.0,0.0,0.0,0.0,0.0,0.0,0.0,0.0,0.0,0.0,0.0,0.0,0.0,0.0,0.0,0.0,0.0,0.0,0.0,0.0,0.0,0.0,0.0,0.0,0.0,0.0,0.0,0.0,0.0,0.0,0.0,0.0,0.0,0.0,0.0,0.0,0.0,0.0,0.0,0.0,0.0,0.0,0.0,0.0,0.0,0.0,0.0,0.0,0.0,0.0,0.0,0.0,0.0,0.0,0.0,0.0,0.0,0.0,0.0,0.0,0.0,0.0,0.0,0.0,0.0,0.0,0.0,0.0,0.0,0.0,0.0,0.0,0.0,0.0,0.0,0.0,0.0,0.0,0.0,0.0,0.0,0.0,0.0,0.0,0.0,0.0,0.0,0.0,0.0,0.0,0.0,0.0,0.0,0.0,0.0,0.0,0.0,0.0,0.0,0.0,0.0,0.0,0.0,0.0,0.0,0.0,0.0,0.0,0.0,0.0,0.0,0.0,0.0,0.0,0.0,0.0,0.0,0.0,0.0,0.0,0.0,0.0,0.0,0.0,0.0,0.0,0.0,0.0,0.0,0.0,0.0,0.0,0.0,0.0,0.0,0.0,0.0,0.0,0.0,0.0,0.0,0.0,0.0,0.0,0.0,0.0,0.0,0.0,0.0,0.0,0.0,0.0,0.0,0.0,0.0,0.0,0.0,0.0,0.0,0.0,0.0,0.0,0.0,0.0,0.0,0.0,0.0,0.0,0.0,0.0,0.0,0.0,0.0,0.0,0.0,0.0,0.0,0.0,0.0,0.0,0.0,0.0,0.0,0.0,0.0,0.0,0.0,0.0,0.0,0.0,0.0,0.0,0.0,0.0,0.0,0.0,0.0,0.0,0.0,0.0,0.0,0.0,0.0,0.0,0.0,0.0,0.0,0.0,0.0,0.0,0.0,0.0,0.0,0.0,0.0,0.0,0.0,0.0,0.0,0.0,0.0,0.0,0.0,0.0,0.0,0.0,0.0,0.0,0.0,0.0,0.0,0.0,0.0,0.0,0.0,0.0,0.0,0.0,0.0,0.0,0.0,0.0,0.0,0.0,0.0,0.0,0.0,0.0,0.0,0.0,0.0,0.0,0.0,0.0,0.0,0.0,0.0,0.0,0.0,0.0,0.0,0.0,0.0,0.0,0.0,0.0,0.0,0.0,0.0,0.0,0.0,0.0,0.0,0.0,0.0,0.0,0.0,0.0,0.0,0.0,0.0,0.0,0.0,0.0,0.0,0.0,0.0,0.0,0.0,0.0,0.0,0.0,0.0,0.0,0.0,0.0,0.0,0.0,0.0,0.0,0.0,0.0,0.0,0.0,0.0,0.0,0.0,0.0,0.0,0.0,0.0,0.0,0.0,0.0,0.0,0.0,0.0,0.0,0.0,0.0,0.0,0.0,0.0,0.0,0.0,0.0,0.0,0.0,0.0,0.0,0.0,0.0,0.0,0.0,0.0,0.0,0.0,0.0,0.0,0.0,0.0,0.0,0.0,0.0,0.0,0.0,0.0,0.0,0.0,0.0,0.0,0.0,0.0,0.0,0.0,0.0,0.0,0.0,0.0,0.0,0.0,0.0,0.0,0.0,0.0,0.0,0.0,0.0,0.0,0.0,0.0,0.0,0.0,0.0,0.0,0.0,0.0,0.0,0.0,0.0,0.0,0.0,0.0,0.0,0.0,0.0,0.0,0.0,0.0,0.0,0.0,0.0,0.0,0.0,0.0,0.0,0.0,0.0,0.0,0.0,0.0,0.0,0.0,0.0,0.0,0.0,0.0,0.0,0.0,0.0,0.0,0.0,0.0,0.0,0.0,0.0,0.0,0.0,0.0,0.0,0.0,0.0,0.0,0.0,0.0,0.0,0.0,0.0,0.0,0.0,0.0,0.0,0.0,0.0,0.0,0.0,0.0,0.0,0.0,0.0,0.0,0.0,0.0,0.0,0.0,0.0,0.0,0.0,0.0,0.0,0.0,0.0,0.0,0.0,0.0,0.0,0.0,0.0,0.0,0.0,0.0,0.0,0.0,0.0,0.0,0.0,0.0,0.0,0.0,0.0,0.0,0.0,1.3957,0.0,0.0,0.0,0.0,0.0,0.0,0.0,0.0,0.0,0.0,0.0,0.0,0.0,0.0,0.0,0.0,0.0,0.0,0.0,0.0,0.0,0.0,0.0,0.0,0.0,0.0,0.0,0.0,0.0,0.0,0.0,0.0,0.0,0.0,0.0,0.0,0.0,0.0,1.8208,1.8292,1.8599,1.913,1.8989,1.8458,1.7675,0.0,0.0,0.0,0.0,0.0,0.0,0.0,0.0,0.0,0.0,0.0,0.0,0.0,0.0,0.0,0.0,0.0,0.0,0.0,0.0,0.0,0.0,0.0,0.0,0.0,0.0,0.0,0.0,0.0,0.0,0.0,0.0,0.0,0.0,0.0,0.0,0.0,0.0,0.0,0.0,0.0,0.0,0.0,0.0,0.0,0.0,0.0,0.0,0.0,0.0,0.0,0.0,0.0,0.0,0.0,0.0,0.0,0.0,0.0,0.0,0.0,0.0,0.0,0.0,0.0,0.0,0.0,0.0,0.0,0.0,0.0,1.385,0.0,0.0,0.0,0.0,0.0,0.0,0.0,0.0,0.0,0.0,0.0,0.0,0.0,0.0,0.0,0.0,0.0,0.0,0.0,0.0,0.0,0.0,0.0,0.0,1.5229,1.6485,1.6636,1.6864,0.0,0.0,0.0,0.0,0.0,0.0,1.8045,1.8137,1.8356,1.8714,1.9265,1.9815,2.0442,2.0732,1.9885,1.8215,1.8129,0.0,0.0,0.0,0.0,0.0,0.0,0.0,0.0,0.0,0.0,0.0,0.0,0.0,0.0,0.0,0.0,0.0,0.0,0.0,0.0,0.0,0.0,0.0,0.0,0.0,0.0,0.0,0.0,0.0,0.0,0.0,0.0,0.0,0.0,0.0,0.0,0.0,0.0,0.0,0.0,0.0,0.0,0.0,0.0,0.0,0.0,0.0,0.0,0.0,0.0,0.0,0.0,0.0,0.0,0.0,0.0,0.0,0.0,0.0,0.0,0.0,0.0,0.0,1.6457,1.6325,1.6159,1.6258,1.5792,1.4949,1.467,1.4231,1.3661,1.3755,0.0,0.0,0.0,0.0,0.0,0.0,0.0,0.0,0.0,0.0,0.0,0.0,0.0,0.0,0.0,0.0,0.0,0.0,0.0,0.0,0.0,1.416,1.5586,1.6532,1.6831,1.7066,0.0,0.0,0.0,0.0,0.0,0.0,1.8664,1.8152,1.8454,1.9626,2.0458,2.0897,2.0998,2.1278,2.0979,2.0295,1.9822,1.9126,1.8221,0.0,0.0,0.0,0.0,0.0,0.0,0.0,0.0,0.0,0.0,0.0,0.0,0.0,0.0,0.0,0.0,0.0,0.0,0.0,0.0,0.0,0.0,0.0,0.0,0.0,0.0,0.0,0.0,0.0,0.0,0.0,0.0,0.0,0.0,0.0,0.0,0.0,0.0,0.0,0.0,0.0,1.6937,1.5906,0.0,0.0,0.0,0.0,0.0,0.0,0.0,0.0,0.0,0.0,0.0,0.0,0.0,1.6999,1.722,1.7452,1.7734,1.8011,1.7773,1.7633,1.7576,1.6961,1.6573,1.6388,1.5825,0.0,1.4238,1.4715,0.0,0.0,0.0,0.0,0.0,0.0,0.0,0.0,0.0,0.0,0.0,0.0,0.0,0.0,0.0,0.0,0.0,0.0,0.0,0.0,0.0,1.4713,1.5903,1.6901,1.7254,1.7407,1.7491,1.8034,0.0,0.0,0.0,1.8573,1.8533,1.8232,1.881,2.0257,2.1151,2.189,2.24,2.2498,2.2539,2.2383,2.1544,1.9978,1.8001,1.7278,0.0,0.0,0.0,0.0,0.0,0.0,0.0,0.0,0.0,0.0,0.0,0.0,0.0,0.0,0.0,0.0,0.0,0.0,0.0,0.0,0.0,0.0,0.0,0.0,0.0,0.0,0.0,0.0,0.0,0.0,0.0,0.0,0.0,0.0,0.0,0.0,0.0,0.0,0.0,1.8125,1.7316,1.6569,1.6718,1.6601,0.0,0.0,0.0,0.0,0.0,0.0,0.0,0.0,0.0,1.7308,1.7453,1.7622,1.7898,1.8038,1.816,1.8299,1.8158,1.8066,1.7867,1.7535,1.7323,1.7162,1.6729,1.6189,1.5638,1.5246,1.476,1.4321,0.0,0.0,0.0,0.0,1.3913,1.3798,0.0,0.0,0.0,0.0,0.0,0.0,0.0,0.0,0.0,0.0,0.0,0.0,1.3981,1.5325,1.6447,1.7328,1.7714,1.7841,1.7728,1.8279,0.0,1.7718,1.8413,1.8792,1.8701,1.9014,1.9782,2.095,2.1839,2.2699,2.3497,2.3447,2.3506,2.3646,2.2641,2.062,1.8015,1.7732,1.6169,1.3867,0.0,0.0,0.0,0.0,0.0,0.0,0.0,0.0,0.0,0.0,0.0,0.0,0.0,0.0,0.0,0.0,0.0,0.0,0.0,0.0,0.0,0.0,0.0,0.0,0.0,0.0,0.0,0.0,0.0,0.0,0.0,0.0,0.0,0.0,0.0,0.0,0.0,1.8343,1.7864,1.7479,1.7125,1.6794,0.0,0.0,0.0,0.0,0.0,0.0,1.7676,1.7839,1.7946,1.8016,1.8095,1.8238,1.843,1.8511,1.8547,1.8547,1.8547,1.8454,1.8261,1.8082,1.7939,1.7782,1.7405,1.7096,1.6849,1.5832,1.512,1.4669,1.4669,1.4669,1.4663,1.4546,1.4521,1.4455,0.0,0.0,0.0,0.0,0.0,0.0,0.0,0.0,0.0,0.0,0.0,1.3252,1.3615,1.5798,1.7325,1.7645,1.8179,1.835,1.8102,1.8542,1.8681,1.8434,1.8681,1.9126,1.9824,2.0989,2.17,2.195,2.2611,2.3229,2.3746,2.3497,2.3406,2.3388,2.267,2.1317,1.9449,1.8402,1.6682,1.4621,1.4082,0.0,0.0,0.0,0.0,0.0,0.0,0.0,0.0,0.0,0.0,0.0,0.0,0.0,0.0,0.0,0.0,0.0,0.0,0.0,0.0,0.0,0.0,0.0,0.0,0.0,0.0,0.0,0.0,0.0,0.0,0.0,0.0,0.0,0.0,0.0,0.0,0.0,0.0,1.8527,1.7925,0.0,0.0,0.0,0.0,1.752,1.8038,1.8239,1.7889,1.8448,1.8621,1.8313,1.8606,1.8767,1.8767,1.9074,1.9228,1.9228,1.9228,1.9228,1.922,1.8658,1.8375,1.8303,1.7796,1.7562,1.747,1.6604,1.6052,1.5738,1.5738,1.5738,1.5657,1.5239,1.5048,1.5002,0.0,0.0,0.0,0.0,0.0,0.0,0.0,0.0,0.9903,1.0722,1.222,1.3623,1.4622,1.6375,1.7675,1.8164,1.8689,1.8912,1.8819,1.8958,1.9012,1.8966,1.9317,1.9966,2.0976,2.1942,2.2699,2.3278,2.407,2.4667,2.5011,2.4233,2.3935,2.4066,2.2751,2.1472,2.0208,1.8931,1.7208,1.5332,1.4684,1.3931,0.0,0.0,0.0,0.0,0.0,0.0,0.0,0.0,0.0,0.0,0.0,0.0,0.0,0.0,0.0,0.0,0.0,0.0,0.0,0.0,0.0,0.0,0.0,0.0,0.0,0.0,0.0,0.0,0.0,0.0,0.0,0.0,0.0,0.0,0.0,0.0,0.0,1.8134,1.8094,0.0,1.7924,1.7846,1.7902,1.8117,1.886,1.9262,1.9146,1.9497,1.9667,1.955,1.9659,1.9718,1.9718,1.9835,1.9894,1.9894,1.9894,1.9894,1.9894,1.967,1.9457,1.9261,1.8876,1.8494,1.8059,1.7587,1.7116,1.6596,1.6449,1.6279,1.6106,1.5752,1.5499,1.5295,0.0,0.0,0.0,0.0,0.0,0.0,0.0,0.0,1.0105,1.1091,1.261,1.4065,1.532,1.6987,1.8163,1.8589,1.8966,1.9142,1.905,1.9142,1.9142,1.9058,1.9975,2.0908,2.1852,2.2901,2.3729,2.4322,2.4868,2.5343,2.5693,2.4805,2.4372,2.4313,2.2979,2.1862,2.0852,1.9471,1.7856,1.6107,1.5198,1.4266,1.3368,0.0,0.0,0.0,0.0,0.0,0.0,0.0,0.0,0.0,0.0,0.0,0.0,0.0,0.0,0.0,0.0,0.0,0.0,0.0,0.0,0.0,0.0,0.0,0.0,0.0,0.0,0.0,0.0,0.0,0.0,0.0,0.0,0.0,0.0,1.9372,1.8874,1.8649,1.8475,1.8448,1.8586,1.8585,1.8684,1.9011,1.9575,1.9923,1.9923,2.012,2.0183,2.0183,2.0183,2.0183,2.0183,2.0183,2.0183,2.0183,2.0183,2.0183,2.0183,2.0183,2.012,1.9923,1.9708,1.9358,1.8867,1.8549,1.8159,1.7661,1.7038,1.6686,1.642,1.6265,1.5982,1.5678,0.0,0.0,0.0,0.0,0.0,0.0,0.0,0.9694,1.0241,1.0905,1.2989,1.4695,1.5389,1.7475,1.8781,1.8781,1.9058,1.9104,1.8843,1.9058,1.9104,1.8889,2.0643,2.1852,2.2434,2.3962,2.4804,2.4932,2.4952,2.5246,2.5742,2.5187,2.4658,2.4115,2.3459,2.2531,2.1331,1.9963,1.8471,1.6897,1.5642,1.4627,1.3824,0.0,0.0,0.0,0.0,0.0,0.0,0.0,0.0,0.0,0.0,0.0,0.0,0.0,0.0,0.0,0.0,0.0,0.0,0.0,0.0,0.0,0.0,0.0,0.0,0.0,0.0,0.0,0.0,0.0,0.0,0.0,0.0,0.0,2.0555,1.9972,1.9741,2.0242,1.9209,1.9023,2.0438,1.9574,1.9286,2.0132,2.019,2.0197,2.0197,2.0205,2.0267,2.0259,2.0267,2.0267,2.0314,2.0267,2.0267,2.0314,2.0314,2.0321,2.0259,2.0259,2.0259,2.0197,2.0197,2.0069,1.9777,1.9456,1.917,1.8774,1.7583,1.6991,1.672,1.672,1.6533,1.6197,0.0,0.0,0.0,0.0,0.0,0.0,0.0,0.9694,1.0188,1.0727,1.2871,1.4616,1.5152,1.7348,1.8781,1.8781,1.9058,1.9301,1.953,1.9333,1.9532,2.0197,2.1075,2.223,2.3721,2.4881,2.5634,2.6062,2.6428,2.6716,2.6822,2.6129,2.5499,2.4933,2.3548,2.2483,2.157,1.963,1.8187,1.7163,1.6237,1.5203,1.4142,0.0,0.0,0.0,0.0,0.0,0.0,0.0,0.0,0.0,0.0,0.0,0.0,0.0,0.0,0.0,0.0,0.0,0.0,0.0,0.0,0.0,0.0,0.0,0.0,0.0,0.0,0.0,0.0,0.0,0.0,0.0,2.0801,2.0835,2.0427,2.031,2.012,1.9867,2.011,2.0272,2.0325,2.0018,1.9932,2.0168,2.0457,2.0533,2.0533,2.0808,2.1207,2.1859,2.1264,2.1545,2.2863,2.2195,2.2195,2.2863,2.2863,2.2529,2.1859,2.1859,2.1402,2.0533,2.0533,2.0406,2.0106,1.9997,1.9654,1.9117,1.8331,1.7736,1.734,1.713,1.6645,1.6006,0.0,0.0,0.0,0.0,0.0,0.0,0.0,0.9607,1.011,1.0904,1.299,1.4629,1.5303,1.7416,1.8781,1.8781,1.892,1.9082,1.9192,1.9045,1.9583,2.0857,2.1695,2.2847,2.4369,2.5586,2.6352,2.6651,2.6986,2.7129,2.7129,2.6438,2.5752,2.505,2.3663,2.2518,2.1627,1.9917,1.8659,1.7809,1.676,1.5406,1.3925,1.3642,1.3062,1.2349,1.248,1.2613,1.2712,1.2563,0.0,0.0,0.0,0.0,0.0,0.0,0.0,0.0,0.0,0.0,0.0,0.0,0.0,0.0,0.0,0.0,0.0,0.0,0.0,0.0,0.0,0.0,0.0,0.0,2.1611,2.1921,2.1711,2.104,2.0431,2.012,2.0438,2.0772,2.0955,2.0978,2.1031,2.1166,2.1354,2.1365,2.1123,2.1313,2.1698,2.2339,2.1897,2.213,2.3205,2.2628,2.2628,2.3205,2.3447,2.3253,2.2676,2.2585,2.214,0.0,2.1087,2.0742,2.0387,2.0387,2.0143,0.0,0.0,0.0,0.0,0.0,1.6945,1.6259,0.0,0.0,0.0,0.0,0.0,0.0,0.0,0.9476,1.0027,1.1227,1.3085,1.465,1.5638,1.749,1.8689,1.8735,1.8696,1.8591,1.8319,1.8498,1.9322,2.0985,2.2179,2.331,2.4347,2.5936,2.6747,2.6747,2.6853,2.6805,2.6747,2.6294,2.5654,2.4883,2.3859,2.2734,2.1568,2.0492,1.9491,1.8432,1.7086,1.54,1.3696,1.3601,1.3268,1.2777,1.2838,1.2864,1.2895,1.2791,0.0,0.0,0.0,0.0,0.0,0.0,0.0,0.0,0.0,0.0,0.0,0.0,0.0,0.0,0.0,0.0,0.0,0.0,0.0,0.0,0.0,0.0,0.0,0.0,2.2452,2.3238,2.3548,2.2055,2.0917,2.1023,2.0809,2.1073,2.2071,2.2142,2.2212,2.2392,2.2415,2.2234,2.1789,0.0,0.0,0.0,0.0,2.2296,2.2468,2.2416,2.2416,2.2528,2.308,2.3307,2.3145,2.2945,2.2724,2.2467,2.1702,2.1099,2.0779,2.0779,2.0589,2.0197,1.9524,1.8975,1.8394,1.7826,1.7318,0.0,0.0,0.0,0.0,0.0,0.0,0.0,0.0,0.9476,1.0027,1.1227,1.2648,1.3932,1.5094,1.6836,1.7978,1.8226,1.8171,1.821,1.8303,1.8184,1.8889,2.055,2.1139,2.218,2.3726,2.4976,2.5742,2.5945,2.6352,2.6352,2.5945,2.5849,2.546,2.4883,2.4223,2.3206,2.1855,2.0783,1.9326,1.7619,1.648,1.567,1.5018,1.4316,1.3773,1.3413,1.3789,1.3927,1.3917,1.3435,1.3755,1.4197,1.3791,1.4151,0.0,0.0,0.0,0.0,0.0,0.0,0.0,0.0,0.0,0.0,0.0,0.0,0.0,0.0,0.0,0.0,0.0,0.0,0.0,2.203,2.2664,2.3228,2.3651,2.3186,2.2982,2.3469,2.3644,2.3384,2.2511,2.243,2.2237,2.1853,2.1824,2.1913,2.2074,2.2089,2.2461,2.3211,2.2587,2.2878,2.4266,2.3618,2.3618,2.4325,0.0,0.0,2.4138,2.4853,2.42,2.2467,2.2305,2.1828,2.1115,2.1115,2.0925,2.0518,1.9664,1.9095,1.875,1.8112,1.7882,1.7625,0.0,0.0,0.0,0.0,0.0,0.0,0.0,0.9388,0.977,1.071,1.232,1.3778,1.478,1.6409,1.7591,1.801,1.7852,1.7906,1.8287,1.8319,1.8948,2.0254,2.1419,2.2518,2.3558,2.4986,2.5752,2.5897,2.5907,2.5761,2.5509,2.5216,2.4971,2.4686,2.3877,2.3015,2.2194,2.0942,1.9727,1.8506,1.723,1.6407,1.5741,1.4496,1.3854,1.3696,1.4062,1.4223,1.4226,1.3901,1.4109,1.4406,1.4126,1.437,1.479,0.0,0.0,0.0,0.0,0.0,0.0,0.0,0.0,0.0,0.0,0.0,0.0,0.0,0.0,2.0767,2.1095,0.0,2.2047,2.2571,2.3201,2.3848,2.4322,2.4444,2.439,2.4039,2.4002,2.3958,2.3855,2.4028,2.4048,2.3786,2.3913,2.4002,2.3883,2.3899,2.4157,2.4795,2.439,2.4571,2.5462,2.5035,2.5035,2.5454,2.6218,2.6263,2.5668,2.5734,2.4941,2.3464,2.2771,2.2029,2.1211,2.1211,2.102,2.0621,2.003,1.9485,1.9031,1.8604,1.8286,1.7891,0.0,0.0,0.0,0.0,0.0,0.0,0.0,0.9213,0.9577,1.0353,1.1948,1.3396,1.4379,1.5718,1.6839,1.7511,1.7474,1.7642,1.8095,1.8414,1.8969,1.9967,2.1503,2.2648,2.3352,2.4726,2.5567,2.58,2.5421,2.5186,2.5088,2.4637,2.444,2.439,2.3538,2.2929,2.2426,2.12,2.0285,1.9524,1.8108,1.6995,1.6062,1.4537,1.3942,1.3916,1.4121,1.4196,1.4196,1.4196,1.4347,1.4552,1.4606,1.4691,1.4838,1.5281,1.5038,0.0,0.0,0.0,0.0,0.0,0.0,0.0,0.0,2.0224,2.0573,2.0816,2.0971,2.1227,2.1802,2.2156,2.2605,2.3202,2.3783,2.4427,2.4947,2.5329,2.518,2.4275,2.4094,2.4351,2.5206,2.5604,2.5783,2.5768,2.6071,2.6065,2.5733,2.5689,2.583,2.6067,2.6075,2.6075,2.6075,2.6075,2.6075,2.6128,2.673,2.6974,2.6878,2.6395,2.5639,2.4644,2.319,2.2029,2.1211,2.1211,2.1057,2.0786,2.0402,1.9972,1.9431,1.8952,1.8496,1.8016,0.0,0.0,0.0,0.0,0.0,0.0,0.0,0.0,0.9671,1.079,1.1148,1.1869,1.3453,1.4199,1.5007,1.6059,1.6745,1.727,1.7588,1.7877,1.8539,1.9629,1.9749,2.0632,2.239,2.291,2.3669,2.4677,2.4883,2.4735,2.4301,2.4251,2.4251,2.4251,2.4102,2.3488,2.2426,2.1599,2.0483,1.922,1.7806,1.6743,1.5832,1.4894,1.4358,1.4159,1.4186,1.4196,1.4196,1.4196,1.4191,1.4299,1.4498,1.475,1.5005,1.533,1.5569,1.5744,1.5842,1.6539,1.7428,1.7816,1.8674,1.948,0.0,2.0541,2.1172,2.1435,2.1994,2.2485,2.2869,2.2971,2.3228,2.3937,2.4125,2.4359,2.4756,2.4842,2.5072,2.5461,2.5935,2.6097,2.5747,2.5752,2.5723,2.5645,2.5677,2.5801,2.6053,2.6009,2.6034,2.6075,2.6075,2.6075,2.6075,2.6075,2.6075,2.6128,2.6996,2.7218,2.6946,2.7377,2.6858,2.5535,2.34,2.2029,2.1211,2.1211,2.1189,2.1123,2.0794,2.0416,1.995,1.8851,1.8422,1.8272,0.0,0.0,0.0,0.0,0.0,0.0,0.0,0.0,0.0,0.0,1.0739,1.1564,1.264,1.378,1.4687,1.5163,1.5942,1.6605,1.7079,1.7683,1.8342,1.9096,1.9731,2.0464,2.1285,2.2433,2.3262,2.3727,2.4073,2.4152,2.3954,2.3805,2.3746,2.3696,2.3188,2.2526,2.1751,2.057,1.9495,1.8475,1.7543,1.6371,1.5089,1.4767,1.4013,1.3132,1.3217,1.3491,0.0,1.355,1.3598,1.3784,1.425,1.4356,1.4434,1.484,1.4829,1.496,1.6042,1.689,1.7751,1.8833,1.9483,1.9978,2.0774,2.1237,2.1603,2.2113,2.257,2.2929,2.3083,2.3468,2.3817,2.4133,2.4427,2.4679,2.5,2.5191,2.5467,2.5907,2.6309,2.6573,2.6612,2.6855,2.7052,2.7214,2.7461,2.7655,2.7762,2.7771,2.7771,2.7771,2.7771,2.7771,2.7771,2.7771,2.7771,2.7771,2.8191,2.8289,2.811,2.7885,2.6947,2.5336,2.3368,2.2297,2.1915,2.1432,2.1211,2.1181,2.0852,2.0523,2.0124,1.9452,1.9012,1.8593,0.0,0.0,0.0,0.0,0.0,0.0,0.0,0.0,0.0,0.0,1.0376,1.1169,1.1811,1.3324,1.4295,1.4334,1.5234,1.6074,1.6668,1.7407,1.8062,1.8581,1.9439,2.0,2.024,2.141,2.2224,2.2646,2.3028,2.3281,2.3447,2.3397,2.3247,2.2996,2.2384,2.1709,2.0987,1.9746,1.8767,1.8048,1.743,1.6158,1.46,1.4493,1.3534,1.2224,1.2336,1.2654,1.2908,1.258,1.2723,1.3068,1.346,1.3609,1.3732,1.41,1.4148,1.4449,1.6071,1.7114,1.8041,1.9268,1.9919,2.0455,2.1363,2.1623,2.186,2.2477,2.2869,2.3177,2.3391,2.3817,2.421,2.4376,2.4633,2.4868,2.5072,2.5302,2.5578,2.5962,2.619,2.6619,2.7288,2.7656,2.7985,2.8517,2.8819,2.8984,2.8984,2.8984,2.8984,2.8984,2.8984,2.8984,2.8984,2.8984,2.8984,2.8984,2.8984,2.8984,2.8957,2.8198,2.6866,2.511,2.376,2.2918,2.2467,2.1767,2.1375,2.1189,2.0947,2.0603,2.0154,1.9981,1.9478,1.8869,0.0,0.0,0.0,0.0,0.0,0.0,0.0,0.0,0.0,0.0,0.0,0.0,0.0,1.246,1.3447,1.344,1.4778,1.5821,1.6389,1.6982,1.7538,1.8118,1.8141,1.8575,1.9423,1.9241,1.9822,2.1271,2.1617,2.2051,2.2526,2.3147,2.2946,2.2123,2.2123,2.1514,2.0483,1.9591,1.8878,1.8318,1.7543,1.6158,1.4552,1.4331,1.3217,1.181,1.1806,1.1854,1.1774,1.1306,1.1507,1.1935,1.1944,1.2508,1.313,1.3134,1.3849,1.4838,1.5699,1.7136,1.839,1.8462,1.9674,2.096,2.1216,2.1522,2.1875,2.2558,2.2902,2.334,2.4005,2.4159,2.4304,2.4744,2.4812,2.4821,2.4821,2.4821,2.5034,2.5633,2.5743,2.6267,2.7673,2.7813,2.8152,2.8902,2.8975,2.8984,2.8984,2.8984,2.8984,2.8984,2.8984,2.8984,2.8984,2.8984,2.8984,2.8984,2.8984,2.8984,2.8957,2.8198,2.6866,2.5165,2.4889,2.388,2.2467,2.2214,2.1717,2.1211,2.1196,2.0801,2.0183,2.0168,1.9667,1.8869,0.0,0.0,0.0,0.0,0.0,0.0,0.0,0.0,0.0,0.0,0.0,0.0,0.0,0.0,0.0,0.0,1.3474,1.4385,1.4929,1.6029,1.6944,1.7545,1.7918,1.8225,1.8528,1.9028,1.9439,1.9766,2.0475,2.0816,2.0845,2.1458,2.1369,2.0747,2.0593,1.9864,1.8767,1.793,1.7252,1.6683,1.5832,1.4756,1.3658,1.2651,1.159,1.0547,0.0,1.0222,1.0827,1.0455,1.074,1.1281,1.1728,1.1877,1.195,1.2625,1.3596,1.4713,1.608,1.6987,1.7798,1.8986,1.9693,2.03,2.1121,2.1718,2.2181,2.2626,2.2992,2.329,2.3544,2.379,2.401,2.4137,2.4484,2.4821,2.4821,2.497,2.5238,2.5624,2.5852,2.6334,2.7325,2.7666,0.0,2.892,2.8984,2.8984,2.8984,2.8984,2.8984,2.8984,2.8984,2.8984,2.8984,2.8984,2.8984,2.8975,2.8718,2.8443,2.8217,2.7675,2.679,2.5789,2.511,2.4158,2.303,2.2384,2.1588,2.0902,2.1089,2.0703,1.9971,2.0128,1.9774,1.9123,0.0,0.0,0.0,0.0,0.0,0.0,0.0,0.0,0.0,0.0,0.0,0.0,0.0,0.0,0.0,0.0,0.0,1.3206,1.3904,1.494,1.5807,1.6472,1.6917,1.7081,1.6982,1.7569,1.7898,1.8026,1.8807,1.9237,1.9308,1.9898,1.98,1.9177,1.892,1.8251,1.7364,1.6677,1.6152,1.5666,1.482,1.3875,1.2778,1.1659,1.0541,0.0,0.89,0.9041,0.9539,0.9338,0.9831,1.0564,1.1048,1.1304,1.1544,1.2324,1.3317,1.4433,1.5739,1.6588,1.7387,1.8523,1.9257,1.9887,2.055,2.1454,2.2275,2.2714,2.2975,2.3168,2.3417,2.3481,2.3536,2.3779,2.4171,2.4548,2.4748,2.497,2.5238,2.5624,2.5844,2.628,2.7141,2.7407,2.7893,2.8709,2.8902,2.8984,2.8984,2.8984,2.8984,2.8984,2.8984,2.8984,2.8984,2.8984,2.8984,2.8975,2.8581,2.8177,2.7803,2.7361,2.6783,2.6072,2.5395,2.4492,2.3368,2.2539,2.1809,2.1181,2.1081,2.0688,2.0237,2.0237,1.9828,1.9279,0.0,0.0,0.0,0.0,0.0,0.0,0.0,0.0,0.0,0.0,0.0,0.0,0.0,0.0,0.0,0.0,0.0,0.0,1.3286,1.3623,1.4146,1.4897,1.5198,1.5218,1.5001,1.5061,1.5483,1.6253,1.6724,1.726,1.784,1.8419,1.8223,1.7473,1.7255,1.6795,1.618,1.5902,1.5689,1.534,1.4458,1.3367,1.2082,1.1241,1.003,0.8674,0.8663,0.8365,0.7992,0.8048,0.8901,0.9951,0.9951,1.0788,1.1883,1.2193,1.3054,1.4035,1.4769,1.5996,1.7094,1.7147,1.8408,1.9628,1.968,2.0831,2.2079,2.2724,2.2782,2.2934,2.3624,2.3253,2.3091,2.3666,2.3804,2.4065,2.4714,2.4821,2.5034,2.5633,2.5688,2.6106,2.7049,2.7169,2.7499,2.8269,0.0,2.8966,2.8984,2.8984,2.8984,2.8984,2.8984,2.8984,2.8984,2.8966,2.8948,2.8948,2.8526,2.8122,2.7719,2.7325,2.6709,2.6017,2.5789,2.4834,2.3368,2.2741,2.2369,2.2051,2.1067,2.0898,2.0992,2.0394,1.9828,1.9279,0.0,0.0,0.0,0.0,0.0,0.0,0.0,0.0,0.0,0.0,0.0,0.0,0.0,0.0,0.0,0.0,0.0,0.0,1.1109,1.2009,1.2883,1.3617,1.4091,1.4669,1.5271,1.5121,1.5144,1.5406,1.5543,1.5568,1.5581,1.6343,1.6397,1.5846,1.6144,1.5782,1.4894,1.4785,1.447,1.3885,1.2474,1.1723,1.1236,0.9598,0.8746,0.8394,0.8237,0.8122,0.8105,0.8621,0.9686,1.0656,1.0501,1.1052,1.1836,1.2144,1.2828,1.3646,1.4243,1.5144,1.6057,1.6677,1.7786,1.8893,1.9576,2.0831,2.2014,2.2358,2.2269,2.2294,2.2858,2.292,2.3008,2.3367,2.4081,2.4591,2.4757,2.4821,2.5034,2.5633,2.5688,2.6007,2.6674,2.7004,2.726,0.0,2.8141,2.8673,2.8966,2.8984,2.8984,2.8984,2.8984,2.8984,2.8984,2.8691,2.8544,2.8535,2.7582,2.7078,2.6961,2.634,2.5831,2.545,2.534,2.4731,2.3736,2.3111,2.2716,2.2305,2.1417,2.0969,2.0728,2.0347,1.9828,1.9279,0.0,0.0,0.0,0.0,0.0,0.0,0.0,0.0,0.0,0.0,0.0,0.0,0.0,0.0,0.0,0.0,0.0,0.0,0.0,1.0873,1.1558,1.2153,1.2913,1.3525,1.4041,1.4251,1.4409,1.4586,1.4564,1.4499,1.4351,1.4841,1.4914,1.4619,1.4813,1.442,1.3663,1.3402,1.2884,0.0,0.0,1.0176,0.9954,0.8671,0.811,0.7999,0.8019,0.8378,0.8851,0.9045,0.9856,1.085,1.0884,1.1441,1.2043,1.2018,1.2622,1.3416,1.3706,1.4552,1.5369,1.5832,1.6942,1.8014,1.8603,1.9754,2.0851,2.1269,2.1322,2.1494,2.2055,2.2292,2.2641,2.3216,2.39,2.4459,2.474,2.4821,2.5034,2.5633,2.5688,2.5962,2.6537,2.6784,2.6985,2.7169,2.7765,2.8214,2.8434,2.8443,2.8443,2.8443,2.8443,2.8394,2.8277,2.8,2.7833,2.7709,2.6897,2.6536,2.6527,2.5967,2.5514,2.5221,0.0,2.474,2.3857,2.3111,2.2934,2.2974,2.1658,2.1178,2.1194,2.061,1.9916,1.9279,0.0,0.0,0.0,0.0,0.0,0.0,0.0,0.0,0.0,0.0,0.0,0.0,0.0,0.0,0.0,0.0,0.0,0.0,0.0,0.0,1.0304,1.0786,1.1636,1.2148,1.2213,1.2938,1.3466,1.369,1.3707,1.3711,1.376,1.3612,1.3562,1.3612,1.3309,1.2867,1.2383,1.1872,1.1205,1.0475,0.9446,0.8881,0.8617,0.0,0.7743,0.7593,0.7889,0.8721,0.9649,0.9271,0.9872,1.0854,1.1181,1.1796,1.2299,1.1912,1.2465,1.3207,1.3207,1.4067,1.4928,1.4928,1.6092,1.7226,1.7445,1.8407,1.9398,1.9934,2.0272,2.066,2.1261,2.1664,2.2196,2.3174,2.3606,2.4094,2.4706,2.4821,2.5034,2.5569,2.5679,2.5907,2.6473,2.6582,2.6729,2.7077,2.7416,2.7711,2.7813,2.7765,2.7708,2.7708,2.7708,2.7594,2.7326,2.7206,2.7073,2.6836,2.637,2.6175,2.6166,2.5783,2.5404,2.5174,0.0,0.0,2.3968,2.3046,2.3215,2.3824,2.2006,2.1556,2.1864,2.0924,2.0069,1.9279,0.0,0.0,0.0,0.0,0.0,0.0,0.0,0.0,0.0,0.0,0.8867,0.9126,0.0,0.0,0.0,0.0,0.0,0.0,0.0,0.0,0.0,1.0182,1.0416,1.0881,1.1707,1.2272,1.2606,1.2662,1.2656,1.2775,1.297,1.2085,1.1884,1.2281,1.159,1.1067,1.0758,1.046,1.0116,0.9713,0.8635,0.8175,0.8072,0.73,0.0,0.0,0.7839,0.83,0.8742,0.9279,1.0522,1.1774,1.1385,1.1635,1.2105,1.2236,1.2413,1.2604,1.2881,1.3797,1.4659,1.4659,1.5927,1.7226,1.7445,1.82,1.9027,1.9494,1.9667,1.9998,2.1023,2.1534,2.2202,2.3448,2.3928,2.4267,2.477,2.4821,2.4923,2.5229,2.5514,2.5852,2.6181,2.6418,2.6619,2.6683,2.6756,2.7077,2.7785,2.7546,2.7383,2.7383,2.7383,2.7374,2.7326,2.6757,2.6474,2.6409,2.5731,2.5381,2.5381,2.5116,2.4923,2.4868,2.4868,0.0,2.459,2.3913,2.4024,2.4501,2.2838,2.2096,2.1864,2.0924,2.0069,1.9279,0.0,0.0,0.0,0.0,0.0,0.0,0.0,0.603,0.6786,0.7893,0.8428,0.8828,0.9087,0.9087,0.0,0.0,0.0,0.0,0.0,0.0,0.0,0.0,1.0053,1.0571,1.101,1.1652,1.1961,1.1975,0.0,1.1834,1.198,1.1438,1.1345,1.1536,1.1047,1.0507,0.9961,0.9567,0.9076,0.8489,0.7839,0.749,0.7341,0.0,0.0,0.0,0.7813,0.8238,0.8581,0.8992,0.9925,1.0963,1.1009,1.1576,1.2169,1.2005,1.2164,1.2441,1.2604,1.3364,1.4175,1.4331,1.5351,1.6417,1.6899,1.7362,1.7789,1.8282,1.8601,1.9059,1.991,2.0636,2.1482,2.2533,2.2989,2.3479,2.4162,2.4293,2.4526,2.5148,2.5514,2.5798,2.6072,2.6418,2.6591,2.6591,2.6591,2.6692,2.69,2.6751,2.6704,2.6704,2.6704,2.6527,2.6181,2.5875,2.5675,2.5517,2.5167,2.497,2.497,2.4868,2.4821,2.4821,2.4821,0.0,2.471,2.3809,2.3861,2.4314,2.2729,2.1997,2.164,2.0984,2.0127,1.9279,0.0,0.0,0.0,0.0,0.0,0.0,0.0,0.5855,0.665,0.7401,0.816,0.8652,0.8828,0.8861,0.8865,0.0,0.0,0.0,0.0,0.0,0.0,0.0,0.0,0.0,1.0253,0.0,0.0,1.134,1.1194,0.0,0.0,0.0,0.0,0.0,1.0556,1.0006,0.941,0.8833,0.8234,0.0,0.0,0.7054,0.0,0.0,0.0,0.0,0.0,0.8181,0.8464,0.8732,0.9257,0.9886,1.0382,1.1211,1.1946,1.1773,1.1946,1.2278,1.2387,1.3039,1.3748,1.4013,1.4773,1.56,1.6328,1.6493,1.6675,1.7174,1.772,1.8301,1.8901,1.97,2.0594,2.1608,2.2032,2.2557,2.3632,2.3804,2.4157,2.502,2.5404,2.5679,2.6017,2.63,2.6473,2.6473,2.6418,0.0,2.6127,2.6127,2.6072,2.6017,2.5953,2.5679,2.5221,2.5119,2.5017,2.4821,2.4821,2.4821,2.4821,2.4821,2.4821,2.4821,2.4821,0.0,0.0,2.3551,2.3513,2.4025,2.2567,2.1793,2.1438,2.1044,2.0205,1.9279,0.0,0.0,0.0,0.0,0.0,0.0,0.0,0.5947,0.665,0.7401,0.816,0.8612,0.8612,0.8747,0.878,0.0,0.0,0.0,0.0,0.0,0.0,0.0,0.0,0.0,0.0,0.0,0.0,1.0507,1.0708,0.0,0.0,0.0,0.0,0.0,0.0,0.8924,0.8814,0.8181,0.0,0.0,0.0,0.0,0.0,0.0,0.0,0.0,0.0,0.79,0.8007,0.875,0.9213,0.9536,0.9623,1.012,1.0849,1.1733,1.1841,1.1787,1.2273,1.3039,1.3699,1.3748,1.4396,1.5276,1.6037,1.6262,1.6441,1.7127,1.7549,1.7997,1.8862,1.9249,1.9999,2.1577,2.1826,2.2318,2.3599,2.3804,2.4048,2.477,2.5072,2.5395,2.5679,2.5962,2.6127,2.6127,2.5907,0.0,2.6072,2.6127,2.6017,2.5743,2.545,2.5284,2.5221,2.497,2.4812,2.4821,2.4821,2.4821,2.4821,2.4821,2.4821,2.4821,2.4821,0.0,0.0,2.3778,2.3666,2.4054,2.2767,2.1945,2.1438,2.1044,2.0205,1.9279,0.0,0.0,0.0,0.0,0.0,0.0,0.4691,0.542,0.6141,0.6869,0.7545,0.8143,0.8576,0.882,0.8913,0.0,0.0,0.0,0.0,0.0,0.0,0.0,0.0,0.0,0.0,0.0,0.9877,0.992,1.0019,0.0,0.0,0.0,0.0,0.0,0.0,0.8829,0.8627,0.8078,0.0,0.0,0.0,0.0,0.0,0.0,0.0,0.0,0.0,0.0,0.817,0.8901,0.9118,0.9141,0.9598,0.9832,1.0104,1.1029,1.15,1.1747,1.2299,1.293,1.3478,1.3645,1.4342,1.5223,1.6037,1.6306,1.6583,1.7181,1.738,1.7611,1.8121,1.8426,1.8949,1.9965,2.0442,2.1159,2.2673,2.312,2.3641,2.4689,2.5017,2.534,2.5679,2.5798,2.5907,2.6072,2.6017,0.0,2.6072,2.5962,2.5789,2.5688,2.5395,2.5221,2.5221,2.4915,2.4821,2.4821,2.4821,2.4821,2.4821,2.4821,2.4821,2.4821,2.4821,0.0,0.0,2.3736,2.3553,2.3783,2.2686,2.1671,2.0885,2.0913,2.0101,1.9078,0.0,0.0,0.0,0.0,0.0,0.4019,0.433,0.5027,0.5772,0.6547,0.7244,0.7942,0.8649,0.8995,0.912,0.8991,0.0,0.0,0.0,0.0,0.0,0.0,0.0,0.0,0.0,0.0,0.9368,0.9547,0.96,0.9579,0.0,0.0,0.96,0.9543,0.0,0.0,0.0,0.0,0.0,0.0,0.0,0.0,0.0,0.0,0.0,0.0,0.0,0.0,0.0,0.0,0.0,0.8996,0.9519,0.9609,0.974,1.0725,1.1283,1.1705,1.2222,1.2822,1.3369,1.3532,1.4126,1.4918,1.5859,1.6184,1.6469,1.716,1.7279,1.738,1.7628,1.79,1.8287,1.8909,1.9549,2.0506,2.1835,2.2435,2.3153,2.4226,2.4633,2.4942,2.5386,2.5514,2.5734,2.619,2.6072,0.0,2.6127,2.5907,2.5798,2.5688,2.5395,2.5221,2.534,2.5081,2.4923,2.4923,2.4812,2.4821,2.4821,2.4821,2.4821,2.4821,0.0,0.0,0.0,2.357,2.3302,2.3416,2.2461,2.1433,2.0534,2.0806,2.005,1.8921,0.0,0.0,0.0,0.0,0.0,0.0,0.433,0.5027,0.5798,0.6667,0.7443,0.82,0.8999,0.9294,0.94,0.9396,0.0,0.0,0.0,0.0,0.0,0.0,0.0,0.0,0.0,0.0,0.9185,0.9404,0.9539,0.9579,0.9579,0.9579,0.9531,0.9408,0.0,0.0,0.0,0.0,0.0,0.0,0.0,0.0,0.0,0.0,0.0,0.0,0.0,0.0,0.0,0.0,0.0,0.0,0.0,0.9385,0.9838,1.0958,1.1291,1.1438,1.2222,1.2822,1.3315,1.3315,1.3576,1.4173,1.5505,1.5588,1.5797,1.7015,1.7279,1.738,1.7628,1.79,1.8287,1.8909,1.975,2.0581,2.1296,2.1917,2.2567,2.3348,2.3641,2.4057,2.4744,2.5055,2.556,2.6527,0.0,0.0,2.6072,2.6127,2.5962,2.5688,2.5395,2.534,2.5679,2.534,2.5221,2.5165,2.4915,2.4821,2.4821,2.4821,2.4821,0.0,0.0,0.0,0.0,2.324,2.2986,2.3031,2.2078,2.1208,2.0534,2.0806,2.005,1.8921,0.0,0.0,0.0,0.0,0.0,0.0,0.0,0.491,0.5487,0.6288,0.6582,0.7079,0.7936,0.8013,0.8249,0.8779,0.0,0.0,0.0,0.0,0.0,0.0,0.0,0.0,0.0,0.0,0.8999,0.9177,0.9238,0.9267,0.9267,0.9267,0.9234,0.9173,0.8955,0.8732,0.0,0.0,0.0,0.0,0.0,0.0,0.0,0.0,0.0,0.0,0.0,0.0,0.0,0.0,0.0,0.0,0.0,0.0,0.0,1.0433,1.0626,1.0716,1.1278,1.1858,1.2336,1.2336,1.2961,1.3826,1.4772,1.5337,1.593,1.6888,1.7192,1.7326,1.7426,1.7667,1.8061,1.8862,1.959,2.0418,2.1541,2.2064,2.2468,2.2992,2.3707,2.4338,2.477,2.5017,2.534,2.5624,0.0,0.0,2.5505,2.5505,2.5615,2.5962,2.5679,2.5679,2.5962,2.5679,2.5569,2.5514,2.5238,2.5064,2.5072,2.4868,0.0,0.0,0.0,0.0,0.0,2.3659,2.3294,2.3023,2.2537,2.1463,2.0285,2.0712,1.9783,1.8338,0.0,0.0,0.0,0.0,0.0,0.0,0.0,0.4863,0.5303,0.632,0.6323,0.6637,0.7581,0.7841,0.814,0.8631,0.0,0.0,0.0,0.0,0.0,0.0,0.0,0.0,0.8723,0.8787,0.8877,0.8995,0.9153,0.9236,0.9236,0.9236,0.9245,0.9221,0.9055,0.8829,0.0,0.0,0.0,0.0,0.0,0.0,0.8734,0.0,0.0,0.0,0.0,0.0,0.0,0.0,0.0,0.0,0.0,0.0,0.0,0.0,1.0037,1.0192,1.0815,1.146,1.1874,1.1874,1.2531,1.3393,1.4182,1.4704,1.5406,1.6482,1.6817,1.6951,1.7232,1.7527,1.7929,1.855,1.9454,2.0305,2.1014,2.1656,2.2262,2.2818,2.3523,2.4229,2.488,2.5017,2.5128,2.5395,0.0,0.0,2.5395,2.5395,2.5615,2.6072,2.5852,2.5852,2.6127,2.5844,2.5633,2.5514,2.5183,2.5072,2.5017,2.4868,0.0,0.0,0.0,0.0,0.0,2.3614,2.3237,2.2877,2.2333,2.1318,2.013,2.0601,1.9569,1.8069,0.0,0.0,0.0,0.0,0.0,0.0,0.0,0.4905,0.5239,0.6528,0.6489,0.6736,0.7789,0.8329,0.8676,0.8726,0.0,0.0,0.0,0.0,0.0,0.0,0.0,0.0,0.8612,0.8723,0.88,0.88,0.9154,0.9376,0.9376,0.9376,0.9426,0.9489,0.93,0.9112,0.8867,0.8712,0.8589,0.8556,0.8746,0.8946,0.0,0.0,0.0,0.0,0.0,0.0,0.0,0.0,0.0,0.0,0.0,0.0,0.0,0.0,0.0,0.0,0.0,1.1362,1.1779,1.1779,1.2233,1.2828,1.3634,1.384,0.0,1.5859,1.6143,1.6379,1.7138,1.7481,1.7729,1.8117,1.9376,2.0208,1.9997,2.0955,2.2039,2.288,2.3216,2.3892,2.5084,2.497,2.5034,0.0,0.0,0.0,2.5633,2.5633,2.5798,2.6072,2.5789,2.5798,2.6127,2.5844,2.5569,2.5221,2.497,2.4821,2.4821,2.4821,0.0,0.0,0.0,0.0,0.0,2.3263,2.2895,2.2493,2.1733,2.0858,2.013,2.0483,1.9457,1.8122,0.0,0.0,0.0,0.0,0.0,0.0,0.0,0.0,0.0,0.0,0.5989,0.6289,0.6736,0.7089,0.7537,0.0,0.0,0.0,0.0,0.0,0.0,0.0,0.0,0.0,0.8612,0.8653,0.8625,0.8625,0.8888,0.8998,0.9042,0.922,0.9327,0.9332,0.9283,0.9125,0.892,0.9015,0.8919,0.8741,0.8928,0.906,0.0,0.0,0.0,0.0,0.9404,0.9474,0.0,0.0,0.0,0.0,0.0,0.0,0.0,0.0,0.9579,0.9694,1.0129,0.0,1.0748,1.0748,1.1451,1.2302,0.0,1.3471,1.4286,1.5629,1.5724,1.5954,1.7091,1.7052,1.7272,1.8564,1.9486,2.0151,2.0522,2.1336,2.2269,2.3478,2.3637,2.4002,2.4825,2.4812,2.4876,0.0,0.0,2.4923,2.5034,2.5034,2.5255,2.5798,2.5505,2.556,2.6072,2.5844,2.5688,2.5569,2.5238,2.5119,2.5128,2.4868,0.0,0.0,0.0,0.0,2.3684,2.3263,2.2895,2.2594,2.2392,2.142,2.0233,2.1105,1.9864,1.7852,0.0,0.0,0.0,0.0,0.0,0.0,0.0,0.0,0.0,0.0,0.0,0.0,0.0,0.0,0.0,0.0,0.0,0.0,0.0,0.0,0.0,0.0,0.0,0.8865,0.8686,0.8902,0.8947,0.886,0.9216,0.9349,0.9349,0.9433,0.9519,0.9607,0.9476,0.9354,0.918,0.9184,0.9142,0.9076,0.9173,0.0,0.0,0.0,0.0,0.0,0.9482,0.9543,0.0,0.9579,0.9579,0.9579,0.0,0.0,0.0,0.0,0.9677,0.9826,0.9969,1.0216,1.0413,1.0556,1.1296,1.2078,1.2322,1.2899,1.3673,1.4723,1.5105,1.5519,1.6416,1.6689,1.7136,1.8275,1.8742,1.9425,2.0739,2.1462,2.2348,2.3657,2.3804,2.4057,0.0,2.4821,0.0,0.0,0.0,2.4821,2.4821,2.4821,2.5034,2.5459,2.5276,2.545,2.5898,2.5624,2.5404,2.5302,2.5081,2.5026,2.5017,2.4868,2.4727,0.0,0.0,0.0,2.3383,2.3006,2.2783,2.2544,2.1776,2.0901,2.0181,2.0747,1.9554,1.7793,0.0,0.0,0.0,0.0,0.0,0.0,0.0,0.0,0.0,0.0,0.0,0.0,0.0,0.0,0.0,0.0,0.0,0.0,0.0,0.0,0.0,0.0,0.923,0.9051,0.8869,0.9292,0.9435,0.9224,0.97,0.9912,0.9908,0.9747,0.9777,0.9994,0.9842,0.9687,0.9556,0.9427,0.9448,0.95,0.9529,0.0,0.0,0.0,0.0,0.0,0.0,0.0,0.0,0.9677,0.9628,0.9579,0.9579,0.0,0.0,0.0,0.0,0.0,1.0068,1.0265,1.0511,1.0752,1.1389,1.1932,1.198,1.237,1.2953,1.3763,1.4436,1.5044,1.5658,1.635,1.6995,1.7655,1.7909,1.8751,2.0921,2.1626,2.2429,2.3796,2.3943,0.0,2.4731,0.0,0.0,0.0,0.0,2.4821,2.4821,2.4821,2.4923,2.5165,2.5174,2.5284,2.5624,2.5395,2.5128,2.4868,2.4868,2.4812,2.4821,2.4761,2.4547,0.0,0.0,0.0,2.3083,2.2757,2.2594,2.2443,2.0909,2.0233,2.013,2.0233,1.9146,1.7793,0.0,0.0,0.0,0.0,0.0,0.0,0.0,0.0,0.0,0.0,0.0,0.0,0.0,0.0,0.0,0.0,0.0,0.0,0.0,0.0,0.0,0.9587,0.9413,0.9282,0.906,0.9363,0.9499,0.9469,0.9767,0.9912,0.9908,0.9923,0.9951,1.0009,1.0319,1.0218,0.9845,1.0184,1.0165,1.0031,1.0201,0.0,0.0,0.0,0.0,0.0,0.0,0.0,0.0,0.9924,0.9772,0.9579,0.9579,0.0,0.0,0.0,0.0,0.0,1.0265,1.0511,1.0752,1.0801,1.1243,1.1731,1.1932,1.2224,1.2754,1.3715,1.3817,1.4189,1.5566,1.5771,1.6121,1.7244,1.811,1.9398,2.1833,2.2092,2.2635,2.4421,0.0,2.4697,2.4812,0.0,0.0,0.0,0.0,2.4821,2.4821,2.4821,2.4923,2.5165,2.497,2.5026,2.5276,2.5514,2.5459,2.5119,2.5119,2.5026,2.4812,2.447,2.4236,0.0,0.0,2.3169,2.3083,2.2757,2.2594,2.2493,2.1522,2.0704,2.0189,2.0858,1.9606,1.7635,0.0,0.0,0.0,0.0,0.0,0.0,0.0,0.0,0.0,0.0,0.0,0.0,0.0,0.0,0.0,0.0,0.0,0.0,0.0,0.0,0.9677,0.9826,0.9743,0.9658,0.9475,0.9949,1.0091,0.9879,1.0159,1.0199,1.0137,1.0173,1.0227,1.0341,1.0535,1.0445,1.025,1.0437,1.0425,1.0281,0.0,0.0,0.0,0.0,0.0,0.0,0.0,0.0,0.0,0.0,0.992,0.9772,0.9628,0.0,0.0,0.0,0.0,0.0,1.0556,1.0806,1.1047,1.1194,1.1443,1.1634,1.178,1.198,1.237,1.2948,1.3533,1.4146,1.4847,1.5632,1.6341,1.6916,1.8004,1.9249,2.0571,2.1457,2.2491,0.0,0.0,2.4821,0.0,0.0,0.0,0.0,0.0,0.0,2.4821,2.4821,2.4868,2.497,2.5026,2.5072,2.5221,2.5514,2.5467,2.497,2.497,2.4803,2.4496,2.4261,2.3962,2.3614,0.0,2.2997,2.2843,2.2671,2.2594,2.2493,2.1165,2.0439,2.0034,1.9502,1.9138,1.8833,0.0,0.0,0.0,0.0,0.0,0.0,0.0,0.0,0.0,0.0,0.0,0.0,0.0,0.0,0.0,0.0,0.0,0.0,0.0,0.9826,0.9826,1.0068,1.0167,1.0098,0.9952,1.0484,1.0583,1.0277,1.0459,1.0469,1.0322,1.0417,1.0521,1.0579,1.0721,1.0693,1.0614,1.066,1.0621,1.0605,0.0,0.0,0.0,0.0,0.0,0.0,0.0,0.0,0.0,0.0,0.0,0.0,0.0,0.0,0.0,1.0019,1.0265,1.056,1.0752,1.0998,1.1243,1.1541,1.1585,1.1649,1.1796,1.2002,1.2268,1.2664,1.3507,1.4265,1.4475,1.5712,1.6697,1.6698,1.7726,1.8731,1.9398,2.0636,2.1986,2.3223,2.3999,0.0,0.0,0.0,0.0,0.0,0.0,0.0,2.4821,2.4868,2.4868,2.4821,2.5072,2.5165,2.5119,2.5357,2.5302,2.4868,2.4837,2.4585,2.4176,2.3997,2.3604,2.3109,2.3023,2.2818,2.2594,2.2594,2.2594,2.2443,2.096,2.0388,2.0181,1.852,1.8833,1.9872,0.0,0.0,0.0,0.0,0.0,0.0,0.0,0.0,0.0,0.0,0.0,0.0,0.0,0.0,0.0,0.0,0.0,0.0,0.0,0.9969,1.0068,1.0364,1.0609,1.06,1.0342,1.0474,1.0523,1.0491,1.0393,1.0286,1.0327,1.0669,1.0749,1.0635,1.0976,1.1057,1.0862,1.1094,1.1135,1.1145,1.1145,0.0,0.0,0.0,0.0,0.0,0.0,0.0,0.0,0.0,0.0,0.0,0.0,0.0,1.0364,1.0364,1.056,1.0806,1.0801,1.0998,1.1243,1.1541,1.1585,1.1786,1.2482,1.2628,1.2891,1.361,1.384,1.414,1.4896,1.5937,1.6711,1.6677,1.7259,1.8155,1.9576,0.0,2.0828,2.3111,2.348,0.0,0.0,0.0,0.0,0.0,0.0,0.0,2.4821,2.5017,2.5072,2.4821,2.5072,2.5072,2.4821,2.4876,2.497,2.5165,2.4835,2.4544,2.4159,2.3511,2.316,2.3091,2.2791,2.262,2.2594,2.2594,2.2594,2.2493,2.1581,2.1224,2.1011,1.9346,1.9294,1.9872,0.0,0.0,0.0,0.0,0.0,0.0,0.0,0.0,0.0,0.0,0.0,0.0,0.0,0.0,0.0,0.0,0.0,0.0,0.0,0.9821,0.9871,1.0117,1.0413,1.0556,1.0659,1.0711,1.0688,1.0557,1.0368,1.045,1.0664,1.082,1.092,1.0967,1.1127,1.1151,1.109,1.1161,1.1194,1.1194,1.1194,1.1194,0.0,0.0,0.0,0.0,0.0,0.0,0.0,0.0,1.0708,1.0609,1.0462,1.0413,1.0413,1.0609,1.0703,1.085,1.0998,1.1096,1.1325,1.191,1.2044,1.2114,1.2399,1.2572,1.2899,1.3505,1.4047,1.4746,1.5891,1.6449,1.6789,1.6955,1.7318,1.7835,1.8577,1.9336,2.0211,2.132,0.0,0.0,0.0,0.0,0.0,0.0,0.0,0.0,0.0,2.4923,2.4923,2.4821,2.4923,2.4803,2.4407,2.4453,2.4379,2.4246,2.435,2.4098,2.3528,2.3246,2.2989,2.2808,2.2663,2.2594,2.2594,2.2594,2.2594,2.2493,2.1623,2.1326,2.1113,1.9398,1.9346,1.9872,0.0,0.0,0.0,0.0,0.0,0.0,0.0,0.0,0.0,0.0,0.0,0.0,0.0,0.0,0.0,0.0,0.0,0.0,1.0265,1.0019,1.0019,1.0364,1.0462,1.0659,1.09,1.0904,1.0825,1.0674,1.0537,1.0617,1.0896,1.0962,1.1061,1.1194,1.1194,1.1194,1.1194,1.1194,1.1194,1.1194,1.1194,1.1194,0.0,0.0,0.0,0.0,0.0,0.0,0.0,0.0,1.0949,1.0904,1.0703,1.0659,1.0708,1.085,1.0949,1.0949,1.1145,1.1194,1.133,1.1925,1.2269,1.2425,1.2526,1.2802,1.319,1.3737,1.4502,1.5352,1.6162,1.663,1.6955,1.7179,1.7325,1.7589,1.7834,1.8666,1.9513,0.0,0.0,0.0,0.0,0.0,0.0,0.0,0.0,0.0,0.0,2.4868,2.4808,0.0,2.4696,2.4508,2.4059,2.405,2.3862,2.3494,2.3751,2.3614,2.3109,2.2989,2.2843,2.2594,2.2594,2.2594,2.2594,2.2594,2.2594,2.2544,2.1937,2.1733,2.1522,1.9813,1.9613,1.9872,0.0,0.0,0.0,0.0,0.0,0.0,0.0,0.0,0.0,0.0,0.0,0.0,0.0,0.0,0.0,0.0,0.0,0.0,1.0806,1.0556,1.0659,1.1145,1.0949,1.09,1.1194,1.1,1.0896,1.0896,1.0896,1.0896,1.0905,1.1104,1.1194,1.1194,1.1194,1.1194,1.1194,1.1194,1.1194,1.1194,1.1194,1.1194,1.1194,0.0,0.0,0.0,0.0,0.0,0.0,0.0,1.1194,1.1194,1.1194,1.1194,1.1194,1.1194,1.1194,1.1194,1.1194,1.1194,1.1247,1.1546,1.2169,1.2756,1.307,1.345,1.3942,1.4502,1.5303,1.5832,1.5565,1.6424,1.7179,1.7179,1.7179,1.7277,1.7557,1.7899,1.8515,0.0,0.0,0.0,0.0,0.0,0.0,0.0,0.0,0.0,0.0,2.5064,0.0,0.0,2.4509,2.4381,2.3718,2.3709,2.3477,2.3109,2.3109,2.3109,2.3091,2.2766,2.2594,2.2594,2.2594,2.2594,2.2594,2.2594,2.2594,2.2594,2.2594,2.2594,2.2392,2.0696,2.0078,1.9872,0.0,0.0,0.0,0.0,0.0,0.0,0.0,0.0,0.0,0.0,0.0,0.0,0.0,0.0,0.0,0.0,0.0,0.0,1.0511,1.0462,1.0462,1.0605,1.0752,1.085,1.09,1.1039,1.1038,1.0896,1.0896,1.0967,1.1109,1.1165,1.1194,1.1194,1.1194,1.1194,1.1194,1.1194,1.1194,1.1194,1.1194,1.1194,1.1194,0.0,0.0,0.0,0.0,0.0,0.0,0.0,0.0,0.0,1.1194,1.1194,1.1194,1.1194,1.1194,1.1194,1.1194,1.1345,1.1614,1.2219,1.2705,1.3148,1.3742,1.3981,1.4207,1.4756,1.5089,1.5303,1.5452,1.5939,1.6264,1.6264,1.6577,1.6874,1.6957,1.7267,0.0,0.0,0.0,0.0,0.0,0.0,0.0,0.0,0.0,0.0,0.0,0.0,0.0,0.0,2.3952,2.3762,2.328,2.328,2.3091,2.2766,2.2766,2.2766,2.2766,2.2645,2.2594,2.2594,2.2594,2.2594,2.2594,2.2594,2.2594,2.2594,2.2594,2.2594,2.2392,2.0696,2.0078,1.9872,0.0,0.0,0.0,0.0,0.0,0.0,0.0,0.0,0.0,0.0,0.9764,1.0117,0.0,0.0,0.0,0.0,0.0,0.0,0.0,1.0609,1.0609,1.0703,1.0757,1.0855,1.0949,1.1096,1.1137,1.1014,1.1014,1.1075,1.1194,1.1194,1.1194,1.1194,1.1194,1.1247,1.134,1.1243,1.134,1.1487,1.1389,1.1438,1.1536,0.0,0.0,0.0,0.0,0.0,0.0,0.0,0.0,0.0,1.1194,1.1194,1.1194,1.1194,1.1292,1.134,1.134,1.1599,1.1979,1.2451,1.2859,1.3399,1.4051,1.4196,1.4299,1.4617,1.4826,1.5035,1.5244,1.5618,1.5945,1.6051,1.6318,1.6524,1.6524,1.6924,0.0,0.0,0.0,0.0,0.0,0.0,0.0,0.0,0.0,0.0,0.0,0.0,0.0,0.0,2.3451,2.3271,2.2895,2.2886,2.2826,2.2594,2.2594,2.2594,2.2594,2.2594,2.2594,2.2594,2.2594,2.2594,2.2594,2.2594,2.2594,2.2594,2.2594,2.2594,2.2392,2.0696,2.0078,1.9872,0.0,0.0,0.0,0.0,0.0,0.0,0.0,0.0,0.0,0.0,1.0861,1.1145,0.0,0.0,0.0,0.0,0.0,0.0,0.0,1.0949,1.0949,1.1194,1.0949,1.0949,1.1194,1.1194,1.1194,1.1194,1.1194,1.1194,1.1194,1.1194,1.1194,1.1243,1.1194,1.134,1.1639,1.134,1.1541,1.198,1.1736,1.178,1.198,1.198,0.0,0.0,0.0,0.0,0.0,0.0,0.0,0.0,1.1194,1.1194,1.1194,1.1194,1.1389,1.159,1.1614,1.1964,1.2334,1.2375,1.2957,1.3593,1.4089,1.4196,1.4196,1.4196,1.4617,1.4934,1.4934,1.541,1.5838,1.6111,1.6164,1.6164,1.6217,1.669,0.0,0.0,0.0,0.0,0.0,0.0,0.0,0.0,0.0,0.0,0.0,0.0,0.0,2.3074,2.3066,2.2895,2.2603,2.2594,2.2594,0.0,2.2594,2.2594,2.2594,2.2594,2.2594,2.2594,2.2594,2.2594,2.2594,2.2594,2.2594,2.2594,2.2594,2.2594,2.2392,2.0798,2.0181,1.9872,0.0,0.0,0.0,0.0,0.0,0.0,0.0,0.0,0.0,0.0,0.0,0.0,0.0,0.0,0.0,0.0,0.0,0.0,0.0,1.1145,1.1149,1.1194,1.1145,1.1145,1.1194,1.1194,1.1194,1.1194,1.1194,1.1194,1.1194,1.1194,1.1292,1.1487,1.1292,1.1487,1.1883,1.1634,1.1683,1.198,1.1932,1.1932,1.198,1.198,1.198,0.0,0.0,0.0,0.0,0.0,0.0,0.0,1.1194,1.1194,1.1194,1.1194,1.1389,1.1624,1.18,1.2224,1.2692,1.3055,1.3572,1.4073,1.418,1.4196,1.4196,1.4196,1.4299,1.4353,1.4353,1.4665,1.4928,1.4976,1.5143,1.5363,1.5636,0.0,0.0,0.0,0.0,0.0,0.0,0.0,0.0,0.0,0.0,0.0,0.0,0.0,0.0,2.2731,2.2723,2.268,2.2594,2.2594,2.2594,0.0,2.2594,2.2594,2.2594,2.2594,2.2594,2.2594,2.2594,2.2594,2.2594,2.2594,2.2594,2.2594,2.2594,2.2594,2.2493,2.142,2.0644,1.9923,0.0,0.0,0.0,0.0,0.0,0.0,0.0,0.0,0.0,0.0,0.0,0.0,0.0,0.0,0.0,0.0,0.0,0.0,0.0,0.0,1.1247,1.1389,1.1389,1.1438,1.1585,1.1443,1.1389,1.1389,1.1243,1.1194,1.1194,1.1194,1.134,1.1585,1.1438,1.1688,1.2175,1.1927,1.2024,1.237,1.2224,1.2273,1.237,1.237,1.2322,1.2175,1.2175,0.0,0.0,0.0,0.0,0.0,0.0,0.0,1.1194,1.1194,1.1389,1.1683,1.2009,1.2414,1.2864,1.3435,1.3901,1.4196,1.4196,1.4196,1.4196,1.4196,1.4196,1.4196,1.4196,1.4293,1.445,1.4606,1.4821,1.5095,1.5428,0.0,0.0,0.0,0.0,0.0,0.0,0.0,0.0,0.0,0.0,0.0,0.0,2.2536,2.28,2.2603,2.2594,2.2594,2.2594,2.2594,2.2594,2.2594,2.2594,2.2644,2.2795,2.2644,2.2695,2.2795,2.2644,2.2594,2.2594,2.2594,2.2594,2.2594,2.2594,2.2594,2.2493,2.1632,2.0806,1.9975,0.0,0.0,0.0,0.0,0.0,0.0,0.0,0.0,0.0,0.0,0.0,0.0,0.0,0.0,0.0,0.0,0.0,0.0,0.0,0.0,0.0,1.1585,1.1634,1.1785,1.198,1.178,1.1683,1.1683,1.1438,1.1345,1.1345,1.1292,1.1438,1.1736,1.1688,1.198,1.2516,1.2224,1.2419,1.291,1.2613,1.2662,1.2861,1.2861,1.271,1.2467,1.2467,1.2322,1.2029,1.1834,0.0,0.0,0.0,0.0,1.1345,1.1345,1.1541,1.184,1.2309,1.2678,1.3067,1.3681,1.4008,1.4196,1.4196,1.4196,1.4196,1.4196,1.4196,1.4196,1.4196,1.4196,1.4245,1.4498,1.4719,1.4987,1.5374,0.0,0.0,0.0,0.0,0.0,0.0,0.0,0.0,0.0,0.0,0.0,2.1224,2.2089,2.2594,2.2594,2.2594,2.2594,2.2594,2.2594,2.2594,2.2594,2.2594,2.2745,2.2996,2.2695,2.2745,2.2996,2.2695,2.2594,2.2594,2.2594,2.2594,2.2594,2.2594,2.2594,2.2493,2.1776,2.1011,2.0181,0.0,0.0,0.0,0.0,0.0,0.0,0.0,0.0,0.0,0.0,1.2635,1.2813,0.0,0.0,0.0,0.0,0.0,0.0,0.0,0.0,0.0,1.159,1.1829,1.198,1.198,1.198,1.1932,1.1932,1.1927,1.1883,1.1883,1.1639,1.1834,1.2273,1.2029,1.2322,1.3001,1.2516,1.2759,1.3394,1.3098,1.305,1.305,1.305,1.2953,1.2764,1.2764,1.257,1.2322,1.2322,1.2127,0.0,0.0,0.0,1.1883,1.1883,1.2078,1.2415,1.2852,1.3472,1.396,1.3857,1.4008,1.4196,1.4196,1.4196,1.4196,1.4196,1.4196,1.4196,1.4196,1.4196,1.4191,1.4245,1.4299,1.4461,1.4987,0.0,0.0,0.0,0.0,0.0,0.0,0.0,0.0,0.0,1.9828,0.0,2.0968,2.1987,2.2594,2.2594,2.2594,2.2594,2.2594,2.2594,2.2594,2.2594,2.2594,2.2745,2.2996,2.2695,2.2745,2.2996,2.2695,2.2594,2.2594,2.2594,2.2594,2.2594,2.2594,2.2594,2.2603,2.2493,2.1886,2.1011,0.0,0.0,0.0,0.0,0.0,0.0,0.0,0.0,0.0,0.0,0.0,1.2813,0.0,0.0,0.0,0.0,0.0,0.0,0.0,0.0,0.0,1.2029,1.2175,1.2273,1.2419,1.2322,1.2224,1.2224,1.2078,1.2078,1.2224,1.2127,1.2175,1.2419,1.2419,1.271,1.3098,1.305,1.3201,1.3491,1.3394,1.334,1.3298,1.3152,1.305,1.2953,1.2861,1.2716,1.2613,1.2467,1.2322,1.2224,1.2029,0.0,0.0,0.0,1.2078,1.2265,1.2621,1.3413,1.4105,1.3723,1.3911,1.4196,1.4196,1.4196,1.4196,1.4196,1.4196,1.4196,1.4196,1.4196,1.4196,1.4196,1.4196,1.4353,1.4713,0.0,0.0,0.0,0.0,0.0,0.0,0.0,0.0,0.0,1.9465,2.0447,2.0447,2.1827,2.2594,2.2594,2.2594,2.2594,2.2594,2.2594,2.2594,2.2594,2.2745,2.2896,2.2996,2.2896,2.2896,2.2996,2.2695,2.2594,2.2594,2.2594,2.2594,2.2594,2.2594,2.2594,2.2594,2.2594,2.2038,2.1165,0.0,0.0,0.0,0.0,0.0,0.0,0.0,0.0,0.0,0.0,0.0,0.0,0.0,0.0,0.0,0.0,0.0,0.0,0.0,0.0,0.0,1.237,1.2467,1.2613,1.2813,1.2613,1.2516,1.2516,1.2322,1.2322,1.2516,1.2516,1.2516,1.2565,1.2813,1.3007,1.3195,1.3443,1.3588,1.3684,1.3636,1.3588,1.3588,1.3394,1.3195,1.3098,1.291,1.2861,1.2764,1.257,1.2516,1.2467,1.2273,1.2224,0.0,0.0,0.0,1.2296,1.2483,1.3271,1.3927,1.3566,1.3793,1.4116,1.418,1.4196,1.4196,1.4196,1.4196,1.4196,1.4196,1.4196,1.4196,1.4196,1.4196,1.4293,1.4552,0.0,0.0,0.0,0.0,0.0,0.0,0.0,0.0,0.0,1.9198,2.0138,2.0292,2.1776,2.2594,2.2594,2.2594,2.2594,2.2594,2.2594,2.2594,2.2594,2.2795,2.2896,2.2896,2.2896,2.2896,2.2896,2.2695,2.2594,2.2594,2.2594,2.2594,2.2594,2.2594,2.2594,2.2594,2.2594,2.219,2.1522,0.0,0.0,0.0,0.0,0.0,0.0,0.0,0.0,0.0,0.0,0.0,0.0,1.2813,1.2813,1.2764,1.2764,1.2764,0.0,0.0,0.0,0.0,1.2419,1.2613,0.0,1.2813,1.2813,1.2764,1.2764,1.2764,1.2764,1.2764,1.2764,1.2856,1.305,1.3098,1.3249,1.3491,1.3491,1.3775,1.425,1.3973,1.3883,1.3883,1.3883,1.3539,1.3098,1.3098,1.2958,1.2813,1.2759,1.2764,1.2764,1.2764,1.2764,1.2764,0.0,0.0,0.0,1.2824,1.313,1.3513,1.3486,1.3658,1.39,1.4137,1.4196,1.4196,1.4196,1.4196,1.4196,1.4196,1.4196,1.4196,1.4196,1.4196,1.4293,1.4552,0.0,0.0,0.0,0.0,0.0,0.0,0.0,0.0,0.0,1.9309,2.0344,2.0822,2.1987,2.2594,2.2594,2.2594,2.2594,2.2594,2.2594,2.2594,2.2594,2.2594,2.2594,2.2594,2.2594,2.2594,2.2594,2.2603,2.2594,2.2594,2.2594,2.2594,2.2594,2.2594,2.2594,2.2594,2.2594,2.2594,2.2392,0.0,0.0,0.0,0.0,0.0,0.0,0.0,0.0,0.0,0.0,0.0,0.0,0.0,1.2813,1.2813,1.2813,1.2813,0.0,0.0,0.0,0.0,1.2662,1.2764,1.2813,1.2813,1.2813,1.2813,1.2813,1.2813,1.2813,1.2813,1.2813,1.2905,1.3098,1.3298,1.3491,1.3786,1.3919,1.4106,1.4298,1.4208,1.416,1.416,1.416,1.4064,1.3889,1.3869,1.3719,1.3502,1.3324,1.3128,1.2953,1.2861,1.2813,1.2813,1.2813,1.2926,1.3055,1.2872,1.3164,1.3443,1.3281,1.3421,1.3663,1.39,1.3954,1.3997,1.4159,1.4196,1.4196,1.4196,1.4196,1.4196,1.4196,1.4196,1.4245,1.4353,0.0,0.0,0.0,0.0,0.0,0.0,0.0,0.0,0.0,0.0,0.0,2.0344,2.1776,2.2594,2.2594,2.2594,2.2594,2.2594,2.2594,2.2594,2.2594,2.2594,2.2594,2.2594,2.2594,2.2594,2.2594,2.2594,2.2594,2.2594,2.2594,2.2594,2.2594,2.2594,2.2594,2.2594,2.2594,2.2594,2.2493,0.0,0.0,0.0,0.0,0.0,0.0,0.0,0.0,0.0,1.3249,0.0,0.0,0.0,0.0,1.3007,1.2905,1.2861,1.2813,1.2813,1.2813,1.2813,1.2813,1.2813,1.2813,1.2813,1.2813,1.2813,1.2813,1.2813,1.2813,1.291,1.291,1.3055,1.3394,1.3539,1.3738,1.3931,1.4442,1.4538,1.4346,1.458,1.4532,1.4298,1.4298,1.4352,1.4449,1.4439,1.4288,1.4012,1.3749,1.3401,1.305,1.2861,1.2813,1.2797,1.2667,1.2807,1.2937,1.2711,1.2937,1.3217,1.3125,1.3173,1.3391,1.3838,1.3917,1.395,1.4389,1.4407,1.4347,1.4347,1.4245,1.4196,1.4196,1.4196,1.4196,1.4196,0.0,0.0,0.0,0.0,0.0,0.0,0.0,0.0,0.0,0.0,0.0,2.0344,2.1776,2.2594,2.2594,2.2594,2.2594,2.2594,2.2594,2.2594,2.2594,2.2594,2.2594,2.2594,2.2594,2.2594,2.2594,2.2594,2.2594,2.2594,2.2594,2.2594,2.2594,2.2594,2.2594,2.2594,2.2594,2.2594,2.2493,0.0,0.0,0.0,0.0,0.0,0.0,0.0,0.0,1.3491,1.3491,0.0,0.0,0.0,0.0,0.0,1.3147,1.2958,1.2861,1.2813,1.2856,1.2856,1.2813,0.0,0.0,1.2813,1.2861,1.2861,1.2861,1.2856,1.3001,1.3147,1.3195,1.3437,1.3931,1.3979,1.3979,1.4027,1.4968,1.501,1.4394,1.5099,1.4962,1.431,1.431,1.4516,1.474,1.4758,1.4604,1.44,1.4132,1.3664,1.3109,1.2899,1.2851,1.2802,1.2516,1.2613,1.2737,0.0,0.0,0.0,1.3028,1.291,1.3024,1.4051,1.4075,1.4087,1.4803,1.475,1.4595,1.4606,1.4401,1.4196,1.4196,1.4196,1.4196,1.4196,0.0,0.0,0.0,0.0,0.0,0.0,0.0,0.0,0.0,0.0,2.0344,2.0865,2.1987,2.2594,2.2594,2.2594,2.2594,2.2594,2.2594,2.2594,2.2594,2.2594,2.2594,2.2594,2.2594,2.2594,2.2594,2.2594,2.2594,2.2594,2.2594,2.2594,2.2594,2.2594,2.2594,2.2594,2.2594,2.2594,2.2594,0.0,0.0,0.0,0.0,0.0,0.0,1.4058,1.3925,1.3786,0.0,0.0,0.0,1.3491,1.3491,1.3491,1.3394,1.3859,1.3908,1.3346,1.3859,1.3806,1.305,1.3576,1.3769,1.3619,1.4148,1.4478,1.4478,1.4621,1.4723,1.4771,1.4949,1.4949,1.4771,1.5343,1.5343,1.501,1.5296,1.5289,1.5099,1.5343,1.5178,1.4881,1.5077,1.5224,1.5344,1.5948,1.5733,1.5202,1.5397,1.4912,1.4223,1.3844,1.3814,1.3761,1.3262,1.283,1.2464,1.2259,0.0,0.0,0.0,0.0,0.0,1.3084,1.3248,1.3485,1.4071,1.427,1.4342,1.4572,1.4401,1.4196,1.4196,1.4196,1.4196,1.4196,0.0,0.0,0.0,0.0,0.0,0.0,0.0,0.0,0.0,1.9027,1.9908,2.0292,2.1776,2.2594,2.2594,2.2594,2.2594,2.2594,2.2594,2.2594,2.2594,2.2594,2.2594,2.2594,2.2594,2.2594,2.2594,2.2594,2.2594,2.2594,2.2594,2.2594,2.2594,2.2594,2.2594,2.2594,2.2594,2.2594,2.2594,0.0,0.0,0.0,0.0,0.0,0.0,1.5248,1.5112,1.5022,0.0,0.0,0.0,1.4777,1.4682,1.4627,1.4627,1.4949,1.4949,1.4478,1.4902,1.4902,1.4238,1.4669,1.4854,1.4711,1.514,1.5378,1.5378,1.552,1.5615,1.5717,1.59,1.5859,1.5724,1.6197,1.6386,1.6372,1.6372,1.619,1.5913,1.6001,1.5903,1.5631,1.5931,1.6272,1.6623,1.7065,1.6914,1.646,1.6075,1.5195,1.419,1.3997,1.3771,1.3624,1.3444,1.2999,1.2478,1.2293,1.2291,1.2442,1.2864,0.0,0.0,1.3206,1.332,1.3474,1.4025,1.4095,1.4167,1.4571,1.4223,1.4019,1.4327,1.436,1.4393,1.439,0.0,0.0,0.0,0.0,0.0,0.0,1.7067,0.0,1.8048,1.9183,2.0218,2.1105,2.208,2.2594,2.2594,2.2594,2.2594,2.2594,2.2594,2.2594,2.2594,2.2594,2.2594,2.2594,2.2594,2.2594,2.2594,2.2594,2.2594,2.2594,2.2594,2.2594,2.2594,2.2594,2.2594,2.2594,2.2594,2.2594,2.2594,0.0,0.0,0.0,0.0,0.0,1.6629,1.6629,1.6629,1.6629,0.0,1.6629,1.6629,1.6629,1.6386,1.6237,1.6237,1.6089,1.5988,1.5893,1.5988,1.594,1.5846,1.594,1.594,1.594,1.5988,1.6082,1.6082,1.6082,1.6231,1.6473,1.6473,1.6574,1.6723,1.6817,1.7138,1.7692,1.7785,1.7488,1.6961,1.7142,1.6977,1.666,1.6946,1.752,1.8143,1.8229,1.8164,1.7948,1.6581,1.5212,1.4023,1.3981,1.3535,1.3083,1.3479,1.3262,1.2817,1.2647,1.2701,1.3005,1.3609,1.3159,0.0,1.3952,1.3988,1.3866,0.0,1.4158,1.4097,1.4509,1.3969,1.3663,1.4315,1.4463,1.453,1.4615,0.0,0.0,0.0,0.0,0.0,1.7067,1.7378,1.7898,1.8722,1.9709,2.0952,2.2493,2.2594,2.2594,2.2594,2.2594,2.2594,2.2594,2.2594,2.2594,2.2644,2.2594,2.2594,2.2644,2.2594,2.2594,2.2594,2.2594,2.2594,2.2594,2.2594,2.2594,2.2594,2.2594,2.2594,2.2594,2.2594,2.2594,2.2594,0.0,0.0,1.5872,0.0,0.0,0.0,1.6803,1.6842,1.6936,1.7163,1.6983,1.6842,1.6842,1.6669,1.6534,1.6534,1.7037,1.7084,1.648,1.699,1.6983,1.6143,1.6709,1.6897,1.6695,1.7318,1.7652,1.7652,1.7854,1.8001,1.8048,1.8226,1.7978,1.7505,1.8125,1.8118,1.7738,1.835,1.88,1.9107,1.8516,1.8439,1.872,1.877,1.8901,1.9093,1.9522,1.9388,1.8897,1.792,1.7506,1.7184,1.6143,1.5449,1.5037,1.5029,1.4557,1.4002,1.3766,1.3707,1.384,1.4198,1.3961,0.0,1.4263,1.448,1.4497,1.4259,1.4325,1.4331,1.4079,1.3545,1.3252,1.3346,1.3729,1.4236,1.4837,1.4987,0.0,0.0,0.0,0.0,1.6736,1.7113,1.7694,1.8722,2.0233,2.1522,2.2544,2.2594,2.2594,2.2594,2.2594,2.2594,2.2594,2.2594,2.2695,2.2896,2.2695,2.2695,2.2896,2.2695,2.2594,2.2594,2.2594,2.2594,2.2594,2.2594,2.2594,2.2594,2.2594,2.2594,2.2594,2.2594,2.2594,2.2594,1.6183,1.6655,1.7178,1.7458,0.0,0.0,0.0,1.8257,1.8303,1.8442,1.835,1.8257,1.8257,1.8172,1.8087,1.8087,1.8404,1.845,1.7932,1.8249,1.8156,1.7505,1.7839,1.7986,1.7831,1.8218,1.8458,1.8458,1.8558,1.8658,1.8658,1.8735,1.8589,1.8257,1.8643,1.8681,1.8481,1.8819,1.9445,2.006,1.9146,1.9215,1.9876,2.0034,2.0186,2.0308,2.059,2.0163,1.9343,1.867,1.8393,1.8138,1.7077,1.6367,1.5843,1.5617,1.5061,1.4524,1.4391,1.4349,1.4468,1.4951,1.4712,0.0,0.0,1.4941,1.4884,1.4551,1.4569,1.4669,1.4686,1.4293,1.4056,1.4415,1.455,1.4826,1.5464,1.5253,1.5088,0.0,0.0,0.0,1.6271,1.6891,1.7972,1.9592,2.095,2.1946,2.2585,2.2594,2.2594,2.2594,2.2594,2.2594,2.2594,2.2594,2.2644,2.2795,2.2644,2.2695,2.2795,2.2644,2.2594,2.2594,2.2594,2.2594,2.2594,2.2594,2.2594,2.2594,2.2594,2.2594,2.2594,2.2594,2.2594,2.2594,1.7257,1.787,1.8527,1.8627,0.0,0.0,0.0,1.9671,1.9671,1.9725,1.9679,1.9704,1.977,1.9732,1.9686,1.9686,1.9686,1.9553,1.9296,1.9234,1.9096,1.8874,1.8827,1.8781,1.8781,1.8781,1.8781,1.8781,1.8781,1.8781,1.8781,1.8781,1.8781,1.8781,1.8874,1.9012,1.9188,1.9242,1.9769,2.0419,1.962,1.9822,2.0645,2.0974,2.1228,2.1432,2.1497,2.0931,1.9987,1.9452,1.8993,1.8564,1.7824,1.7069,1.6418,1.6246,1.5671,1.5068,1.5068,1.5068,1.5235,1.5775,1.5484,1.5193,0.0,0.0,0.0,1.5012,1.4969,1.5045,1.5288,1.5005,1.4911,0.0,0.0,0.0,0.0,1.545,0.0,0.0,0.0,0.0,0.0,1.7243,1.8684,2.0448,2.1377,2.2047,2.2474,2.2491,2.2525,2.2594,2.2594,2.2594,2.2594,2.2594,2.2653,2.2695,2.2594,2.2653,2.2695,2.2594,2.2594,2.2594,2.2594,2.2594,2.2594,2.2594,2.2594,2.2594,2.2594,2.2594,2.2594,2.2594,2.2594,2.2594,1.8519,1.8535,1.892,1.9396,1.9541,0.0,0.0,1.9891,1.9928,2.0201,2.0019,2.0008,2.0374,2.0182,2.0041,2.0041,2.0041,1.9909,1.9558,1.9333,1.9188,1.9142,1.892,1.8781,1.8781,1.8781,1.8781,1.8781,1.8781,1.8781,1.8781,1.8781,1.8781,1.8827,1.9058,1.9188,1.9242,1.9442,1.9924,2.0466,2.0381,2.0718,2.1315,2.1712,2.1873,2.195,2.2323,2.2154,2.1584,2.0776,2.0168,1.9651,1.9185,1.8275,1.7442,1.7821,1.7223,1.6484,1.6484,1.6484,1.6484,1.6566,1.6525,1.6484,0.0,0.0,1.6332,1.5744,0.0,1.5425,1.4874,0.0,0.0,0.0,0.0,0.0,1.4953,1.5256,1.5524,1.5789,0.0,0.0,0.0,0.0,1.9981,2.0224,2.0992,2.1645,2.2038,2.2055,2.221,2.2585,2.2594,2.2594,2.2594,2.2594,2.2695,2.2946,2.2695,2.2695,2.2946,2.2695,2.2594,2.2594,2.2594,2.2594,2.2594,2.2594,2.2594,2.2594,2.2594,2.2594,2.2594,2.2594,2.2594,2.2594,1.9866,1.9911,2.0138,2.0374,2.0428,2.0374,2.0382,2.0246,2.0155,2.0292,2.0201,2.0215,2.0368,2.0636,2.0819,2.0819,2.1101,2.1161,2.0733,2.0365,2.0054,1.9728,1.9448,1.9258,1.9258,1.9258,1.9258,1.9258,1.9258,1.9258,1.9258,1.9258,1.9258,1.9258,1.9396,1.9571,1.9837,1.9982,2.0423,2.1128,2.1128,2.1447,2.1878,2.2143,2.238,2.2579,2.2793,2.2462,2.1981,0.0,2.1501,0.0,0.0,1.9857,1.9146,1.8532,1.794,1.7366,1.7032,1.6935,1.6935,0.0,0.0,0.0,1.6894,0.0,1.6607,0.0,0.0,0.0,0.0,0.0,0.0,0.0,1.5622,0.0,0.0,0.0,1.5517,0.0,0.0,0.0,0.0,0.0,0.0,0.0,0.0,2.1268,2.1636,2.1653,2.1833,2.2218,2.2227,2.2379,2.2594,2.2594,2.2644,2.2745,2.2644,2.2644,2.2745,2.2644,2.2594,2.2594,2.2594,2.2594,2.2594,2.2594,2.2594,2.2594,2.2594,2.2594,2.2594,2.2594,2.2594,2.2594,2.1006,2.1006,2.0997,2.0997,2.0997,2.0952,2.0781,2.06,2.051,2.051,2.051,2.0553,2.062,2.1206,2.1591,2.1637,2.2076,2.2196,2.1813,2.1393,2.0904,2.0334,1.9999,1.9778,1.9587,1.9587,1.9587,1.9587,1.9587,1.9587,1.9587,1.9587,1.9587,1.9587,1.9671,1.9853,2.0201,2.0246,2.0789,2.1516,2.1516,2.1901,2.2467,2.2518,2.2772,2.3097,2.3097,2.2702,2.2235,2.2453,2.2367,0.0,2.1533,0.0,2.0306,1.9329,1.8601,1.8053,1.7589,0.0,0.0,0.0,0.0,0.0,0.0,0.0,0.0,0.0,0.0,0.0,0.0,0.0,1.6771,1.6689,0.0,1.6346,0.0,1.6122,0.0,0.0,0.0,0.0,0.0,0.0,0.0,0.0,0.0,0.0,2.1242,2.1268,2.1439,2.1824,2.1944,2.2124,2.2439,2.2542,2.2594,2.2594,2.2594,2.2594,2.2594,2.2594,2.2594,2.2594,2.2594,2.2594,2.2594,2.2594,2.2594,2.2594,2.2493,2.2434,2.2493,2.2594,2.2594,2.2594,2.1651,2.132,2.0997,2.0997,2.0997,2.0997,2.0997,2.0997,2.0997,2.0997,2.0997,2.1148,2.1538,2.1928,2.2301,2.2537,2.2676,2.2738,2.2582,2.2129,2.1565,2.0903,2.0598,2.0205,1.9596,1.9587,1.9587,1.9587,1.9587,1.9587,1.9587,1.9587,1.9587,1.9633,1.9799,1.9882,1.9936,2.0201,2.0698,2.1293,2.1293,2.2079,2.316,0.0,2.3019,2.3406,2.3406,0.0,0.0,2.2504,2.2397,0.0,0.0,0.0,0.0,0.0,0.0,0.0,0.0,0.0,0.0,1.7987,0.0,0.0,0.0,0.0,1.7392,0.0,0.0,0.0,1.7139,1.7098,1.7017,1.673,1.6705,0.0,0.0,0.0,0.0,0.0,0.0,0.0,0.0,0.0,0.0,0.0,0.0,0.0,2.0857,2.09,2.1062,2.1422,2.1799,2.2004,2.2013,2.2414,2.2594,2.2594,2.2594,2.2594,2.2594,2.2594,2.2594,2.2594,2.2594,2.2594,2.2594,2.2594,2.2594,2.2594,2.2232,2.2123,2.2182,2.2493,2.2594,2.2594,2.1696,2.1553,2.1454,2.1454,2.1454,2.1419,2.1293,2.1096,2.0997,2.0997,2.0997,2.1041,2.1183,2.2112,2.2791,2.2838,2.3701,2.4024,2.3642,2.3251,2.2763,2.2188,2.183,2.1327,2.074,2.0732,2.0511,2.0073,2.0073,2.0073,2.0073,2.0073,2.0073,2.0073,2.011,2.0246,2.0411,2.0259,2.093,2.2196,2.2473,2.2838,2.3169,0.0,0.0,2.3646,2.3447,2.3157,0.0,2.2577,2.2597,2.2677,2.2685,2.2174,2.159,2.1299,2.0548,0.0,0.0,0.0,1.8421,1.8421,0.0,0.0,0.0,0.0,0.0,0.0,0.0,0.0,0.0,1.7466,1.7221,1.7017,1.6976,1.6894,0.0,1.6853,0.0,0.0,0.0,1.733,0.0,0.0,0.0,0.0,1.9058,0.0,0.0,2.003,2.0412,2.1037,2.1191,2.1499,2.1996,2.2124,2.2354,2.2594,2.2594,2.2594,2.2594,2.2594,2.2594,2.2594,2.2594,2.2594,2.2594,2.2594,2.2493,2.2283,2.2123,2.1971,2.1827,2.1979,2.2131,2.2283,2.1696,2.1696,2.1696,2.1696,2.1696,2.1651,2.1526,2.1581,2.1608,2.1608,2.1826,2.1953,2.1953,2.2842,2.3484,2.3617,2.4389,2.4784,2.4529,2.4256,2.38,2.3257,2.2907,2.2283,2.1479,2.1432,2.1092,2.0428,2.0428,2.0464,2.0555,2.0473,2.0428,2.0428,2.0428,2.0449,2.0481,2.0192,2.1032,2.2599,2.3435,2.3684,0.0,0.0,2.3693,2.3615,0.0,2.3543,2.3274,2.3067,2.3088,2.3126,2.3176,2.2708,2.217,2.1875,2.1254,2.0589,2.0201,1.972,0.0,1.9296,1.88,0.0,1.8466,0.0,0.0,0.0,0.0,0.0,0.0,1.7837,1.7424,1.7221,1.7221,1.7139,0.0,1.7098,0.0,0.0,1.7383,1.7383,0.0,0.0,0.0,1.823,1.8701,1.9085,0.0,0.0,1.9922,2.0463,2.083,2.1199,2.1593,2.2054,2.2304,2.2405,2.2634,2.2695,2.2594,2.2594,2.2594,2.2594,2.2594,2.2594,2.2594,2.2594,2.2493,2.2283,2.2131,2.1928,2.1725,2.1725,2.1878,2.2131,2.1731,2.1731,2.1731,2.1731,2.175,2.1768,2.1768,2.2334,2.2767,2.2767,2.3288,2.3719,2.3719,2.4061,2.4412,2.4679,2.4831,2.5039,2.5284,2.5088,2.4654,2.4057,2.3825,2.3065,2.1838,2.1746,2.1412,2.0771,2.0771,2.0843,2.0997,2.0781,2.0699,2.0699,2.0673,2.0472,2.0096,2.007,2.0953,2.2511,2.4142,2.4444,2.3951,2.4596,2.417,2.332,2.3956,2.4202,2.4152,2.3895,2.3805,2.3746,2.3497,2.2855,2.2224,2.2224,2.1664,2.1042,2.1042,2.0766,2.0535,2.0535,0.0,0.0,0.0,0.0,1.9929,0.0,0.0,0.0,0.0,0.0,1.7659,1.7432,1.74,1.7392,1.7392,1.7392,1.7514,1.77,1.77,1.77,1.77,1.787,1.8136,1.8537,1.8562,1.8733,0.0,0.0,0.0,1.97,2.0666,2.1064,2.0929,2.2057,2.2434,2.2053,2.2655,2.2828,2.2594,2.2603,2.2594,2.2594,2.2594,2.2594,2.2594,2.2594,2.2594,2.2544,2.2232,2.1912,2.165,2.1666,2.1827,2.2072,2.2176,2.222,2.222,2.222,2.2339,2.2453,2.2453,2.3026,2.3428,2.3428,2.3606,2.3719,2.3719,2.424,2.4641,2.4669,2.5179,2.544,2.5294,2.5235,2.5041,2.4683,2.4575,2.4186,2.3416,2.3407,2.284,2.1679,2.1679,2.1435,2.0997,2.0952,2.0907,2.0898,2.0616,2.043,2.0281,1.9999,2.0587,2.1771,2.2971,2.337,2.3324,0.0,2.4055,2.3834,2.4291,2.444,2.4341,2.3886,2.3895,2.4053,2.3805,2.3253,2.2715,2.2715,2.2272,2.1776,2.1553,2.1262,2.0962,2.0779,2.03,1.9878,0.0,0.0,0.0,0.0,0.0,0.0,0.0,0.0,0.0,1.7668,1.7505,1.7432,1.7587,1.7619,1.7708,1.791,1.791,1.791,1.791,1.7951,1.7993,1.7916,1.8055,1.8266,0.0,0.0,0.0,1.9991,2.0244,2.0708,2.1415,2.1523,2.1908,2.2526,2.2336,2.2477,2.2896,2.2695,2.2594,2.2594,2.2594,2.2594,2.2594,2.2594,2.2443,2.2232,2.2131,2.1661,2.1054,2.1322,2.1573,2.1818,2.2397,2.2397,2.2476,2.2662,2.3051,2.3193,2.293,2.3453,2.3935,2.4107,2.4402,2.4564,2.4564,2.4919,2.516,2.516,2.5489,2.5635,2.5489,2.5489,2.5391,2.5235,2.5137,2.4791,2.4172,2.4163,2.3475,2.2162,2.2162,2.1898,2.132,2.1239,2.1096,2.0908,2.0703,2.0373,2.0061,2.0528,2.1101,2.1859,2.3308,2.3862,0.0,2.4468,2.4726,2.4764,2.4954,2.4883,2.4637,2.4332,2.4341,2.4461,2.4137,2.3638,2.3186,2.301,2.259,2.2185,2.2043,2.1875,2.1699,2.1558,2.1252,2.1,2.1,2.1,2.1065,0.0,0.0,0.0,0.0,0.0,0.0,1.8346,1.794,1.7708,1.7829,1.8096,1.8179,1.8017,1.8267,0.0,1.8017,1.8,1.7951,1.7821,1.7951,0.0,0.0,0.0,0.0,1.9817,2.0386,2.0864,2.1334,2.1557,2.1906,2.2342,2.2457,2.2739,2.3197,2.3117,2.3138,2.3238,2.3138,2.2987,2.2887,2.2795,2.25,2.2029,2.171,2.132,2.0925,2.0982,2.1014,2.1114,2.274,2.274,2.2872,2.3309,2.3845,2.4088,2.3622,2.4091,2.4612,2.5078,2.5623,2.6014,2.6014,2.6014,2.6014,2.6014,2.6014,2.6014,2.6014,2.6014,2.6014,2.6014,2.5771,2.5392,2.487,2.4727,2.4041,2.2878,2.274,2.2453,2.1945,2.173,2.1431,2.1117,2.0964,2.0528,1.998,2.1259,2.1957,2.2408,2.4233,2.4868,2.4775,2.546,2.5693,2.5684,2.5625,2.5333,2.4932,2.4932,2.4894,2.4741,2.4391,2.3985,2.3521,2.3106,2.2763,2.2441,2.2397,2.2441,2.2441,2.2397,2.2397,2.2397,2.2397,2.2397,2.2397,2.2397,2.1805,0.0,0.0,0.0,0.0,1.9202,1.857,0.0,0.0,1.8596,1.8698,1.8293,0.0,0.0,0.0,0.0,1.8017,1.8108,1.8117,0.0,0.0,0.0,0.0,0.0,2.0721,0.0,2.1087,0.0,2.2135,2.2006,2.2664,2.3196,2.3556,2.365,2.3831,2.4084,2.3827,2.3552,2.3258,2.3067,2.26,2.1933,2.1298,2.1002,2.0954,2.0616,2.0376,2.0256,2.4423,2.4466,2.4551,2.4775,2.4924,2.5228,2.5884,2.6225,2.6646,2.7327,2.751,2.762,2.762,2.762,2.762,2.762,2.762,2.762,2.762,2.762,2.762,2.762,2.7573,2.7474,2.7353,2.6785,2.6064,2.531,2.4673,2.4032,2.34,2.3021,2.2771,2.2663,2.1953,2.1553,2.1428,2.1355,0.0,2.3009,2.3892,2.4465,2.4775,2.546,2.5693,2.5635,2.5322,2.5228,2.5235,2.5235,2.486,2.4372,2.4297,2.3739,2.3096,2.3021,2.2853,2.2662,2.2441,2.2574,2.2662,2.2441,2.2397,2.2397,2.2397,2.2397,2.2397,2.2397,2.1883,2.1463,2.1463,0.0,0.0,0.0,0.0,0.0,0.0,0.0,1.8504,1.9444,1.9219,1.9134,0.0,0.0,0.0,1.8783,1.8809,0.0,0.0,0.0,0.0,0.0,0.0,0.0,0.0,0.0,0.0,2.2556,2.2474,2.2934,2.3836,2.362,2.3724,2.4084,2.3827,2.3498,2.3103,2.2859,2.2492,2.2018,2.1388,2.1053,2.084,2.0239,1.9899,1.986,2.521,2.521,2.5306,2.5516,2.5774,0.0,0.0,2.7854,2.8063,2.8028,2.8189,2.8338,2.8338,2.861,2.8769,2.8769,2.8535,2.8338,2.8338,2.8125,2.7998,2.7998,2.7998,2.7998,2.7998,2.7657,2.6926,2.5875,0.0,0.0,2.379,2.3589,2.3325,2.3126,2.2483,2.2187,2.2178,0.0,0.0,2.3869,2.4661,2.5022,2.5129,2.5498,2.5342,2.4982,2.4805,2.4769,2.4802,2.4802,2.4629,2.4323,2.4111,2.3756,2.338,2.3105,2.2992,2.2925,2.2784,2.2882,2.2925,2.2794,2.274,2.274,2.274,2.274,2.274,2.274,2.2456,2.2138,2.2008,2.1272,0.0,0.0,0.0,0.0,0.0,0.0,1.888,1.9382,1.9435,1.9444,0.0,0.0,0.0,0.0,0.0,0.0,0.0,0.0,0.0,0.0,0.0,0.0,0.0,0.0,0.0,2.2744,2.26,2.2907,2.3626,2.3457,2.3566,2.3895,2.3597,2.3295,2.296,2.2238,2.1768,2.1435,2.0951,2.0658,2.0549,2.0087,1.9936,1.9987,2.6293,2.6178,2.6189,2.6453,2.6784,2.7431,2.8468,2.8976,2.9071,2.853,2.8914,2.9196,2.9196,2.9688,2.9949,2.9851,2.9423,2.9152,2.9044,2.865,2.8456,2.8456,2.8456,2.8456,2.8456,2.8315,2.7722,0.0,0.0,0.0,0.0,2.4171,2.3894,0.0,0.0,0.0,0.0,0.0,2.4311,2.4819,2.5522,2.5771,2.5715,2.5715,2.5341,2.4808,2.4719,2.4679,2.4669,2.458,2.4427,2.4228,2.3896,2.3721,2.3584,2.3198,2.3091,2.3091,2.3091,2.3091,2.3091,2.3091,2.3091,2.3091,2.3091,2.3091,2.3091,2.3091,2.2969,2.2794,2.253,2.1958,0.0,0.0,0.0,0.0,0.0,0.0,1.9502,1.9516,1.9867,1.9903,1.9353,0.0,0.0,0.0,0.0,0.0,0.0,0.0,0.0,0.0,0.0,2.2185,2.2353,0.0,2.2574,0.0,2.2773,2.3017,2.3474,2.3434,2.3541,2.3765,2.3486,2.3149,2.2712,2.1719,2.1208,2.1044,2.0594,2.0464,2.0419,2.011,2.011,2.0246,2.8722,2.8445,2.8198,2.8391,0.0,0.0,2.9299,2.9425,2.9587,2.9966,3.0444,3.0763,3.0763,3.1266,3.1392,3.0889,3.0797,3.057,3.008,3.0011,2.9988,2.9988,2.9988,2.9988,2.9988,2.9347,2.8965,0.0,0.0,2.6541,0.0,0.0,0.0,0.0,0.0,0.0,0.0,2.457,2.4935,2.5707,2.5794,2.6036,2.6415,2.6415,2.637,2.6262,2.583,2.5683,2.562,2.5252,2.4574,2.3838,2.3799,2.3516,2.3149,2.311,2.3091,2.3091,2.3091,2.3091,2.3091,2.3091,2.3091,2.3091,2.3091,2.3091,2.3091,2.3091,2.3101,2.3013,2.2794,2.2677,2.2551,0.0,0.0,0.0,0.0,0.0,2.0407,2.1176,2.0948,2.0605,2.0376,2.0045,0.0,0.0,1.9936,0.0,0.0,0.0,0.0,2.1996,0.0,2.2097,2.2141,2.2539,0.0,2.2803,2.2964,2.332,2.3744,2.3738,2.388,2.4063,2.3775,2.3177,2.23,2.187,2.1661,2.1563,2.1105,2.0952,2.0862,2.0419,2.0292,2.0246,0.0,0.0,0.0,0.0,0.0,0.0,0.0,2.9956,3.0178,3.0193,3.0686,3.1019,3.1019,3.1467,3.1733,3.1479,3.1192,3.0928,3.0709,3.0399,3.0216,3.0216,3.0216,3.0216,3.0216,2.9897,2.9568,0.0,0.0,0.0,0.0,0.0,0.0,0.0,0.0,2.5967,2.5774,2.5867,2.6058,2.6231,2.6537,2.6521,2.6302,2.6302,2.6088,2.5689,2.5498,2.5423,2.5445,2.5253,2.4933,2.4658,2.4658,2.4492,2.4337,2.4337,2.4337,2.4337,2.4337,2.4337,2.4337,2.4337,2.4337,2.4251,2.3864,2.3777,2.3647,2.3178,2.3091,2.3101,2.3013,2.3222,2.3298,0.0,0.0,0.0,0.0,0.0,0.0,2.206,2.1913,2.1624,2.1159,0.0,0.0,0.0,0.0,0.0,0.0,0.0,0.0,2.1898,0.0,2.2151,2.2706,2.2882,2.2969,2.2969,2.2925,2.3013,2.3187,2.3044,2.2961,2.2898,2.2626,2.2216,2.1744,2.1392,2.1186,2.106,2.0736,2.06,2.0555,2.0201,2.0155,2.0246,3.0852,0.0,3.0414,0.0,3.028,3.0484,2.9999,3.0345,3.0578,3.0261,3.0549,3.0836,3.0996,3.1467,3.1756,3.1559,3.1215,3.095,3.079,3.0422,3.0216,3.0216,3.0216,0.0,3.0216,3.0216,2.9953,2.9476,2.8942,0.0,0.0,0.0,0.0,0.0,2.7439,2.722,2.6599,2.6962,2.6921,2.6745,2.7056,2.6933,2.6487,2.6487,2.6207,2.579,2.579,2.579,2.579,2.579,2.579,2.5706,2.5327,2.52,2.52,2.52,2.52,2.52,2.52,2.52,2.52,2.52,2.52,2.5062,2.4594,2.4498,2.4337,2.382,2.3744,2.3744,2.3744,2.3983,2.4129,2.3821,0.0,0.0,0.0,2.3515,0.0,2.2776,2.2753,2.252,2.1799,2.1175,0.0,0.0,0.0,0.0,0.0,0.0,0.0,0.0,0.0,0.0,0.0,2.3276,2.3222,2.3091,2.2891,2.2847,2.2882,2.2574,2.2309,2.2097,2.183,2.1607,2.1472,2.1275,2.1096,2.0888,2.0708,2.0564,2.0464,2.0283,2.0292,2.0382,3.2376,3.2013,3.1504,3.097,3.1339,3.1339,3.034,3.0578,3.0713,3.0261,3.0227,3.0422,3.0962,3.1467,3.1618,3.1065,3.1019,3.079,3.0262,3.0216,3.0216,0.0,0.0,3.0216,3.0216,3.0216,3.0216,3.0204,0.0,0.0,2.8375,0.0,0.0,2.8008,2.8205,2.7998,2.747,2.7482,2.7371,2.719,2.719,2.719,2.719,2.719,2.719,2.719,2.719,2.719,2.719,2.719,2.719,2.6933,2.5622,2.52,2.52,2.52,2.52,2.52,2.52,2.52,2.52,2.52,2.52,2.52,2.52,2.52,2.52,2.52,2.5158,2.5158,2.5158,2.52,2.52,2.5189,0.0,0.0,0.0,0.0,0.0,2.3323,2.3358,2.315,2.2388,2.1785,0.0,0.0,0.0,0.0,0.0,0.0,0.0,2.3366,2.4091,0.0,2.3503,2.3667,2.358,2.3091,2.2891,2.2882,2.3091,2.2608,2.2309,2.2097,2.183,2.1696,2.1696,2.1687,2.1562,2.1392,2.1401,2.1203,2.0997,2.0997,2.0871,2.0654,3.2636,3.2494,3.2276,3.1981,3.1893,3.1673,3.1026,3.1083,3.0949,3.0306,3.0352,3.0466,3.0457,3.0618,3.0641,0.0,3.0468,3.0399,0.0,3.0216,3.0216,3.0216,3.0216,3.0216,3.0216,3.0216,3.0306,3.0487,0.0,0.0,0.0,2.9285,2.8963,2.8217,2.8661,2.8335,2.7482,2.733,2.733,2.7412,2.726,2.719,2.719,2.719,2.719,2.7231,2.7371,2.7342,2.7231,2.7371,2.7412,2.733,2.6757,2.655,2.655,2.655,2.655,2.655,2.655,2.655,2.655,2.655,2.655,2.6426,2.5988,2.5527,2.52,2.52,2.52,2.52,2.52,2.5569,2.5904,2.5904,0.0,0.0,0.0,0.0,2.6154,2.5329,2.5314,2.5039,0.0,2.3695,0.0,0.0,0.0,0.0,0.0,0.0,0.0,0.0,2.3805,0.0,2.4647,2.4423,2.4294,2.4294,2.4079,2.382,2.3537,2.2618,2.2495,2.3023,2.2618,2.2618,2.2882,2.2369,2.2078,2.183,2.1329,2.1096,2.0997,2.0997,2.0952,2.0871,3.3332,3.3244,3.3111,3.2889,3.2685,3.2361,3.1827,3.1749,3.1439,3.0713,3.0758,3.0713,3.0397,3.0352,0.0,3.0216,3.0216,3.0216,3.0216,3.0216,3.0216,3.0216,3.0216,3.0216,3.0216,0.0,0.0,3.0442,3.0118,2.985,2.9712,3.027,2.9871,2.8729,2.9268,2.8833,2.7765,2.7615,2.7615,2.7655,2.7505,2.7476,2.7435,2.7342,2.7394,2.7476,2.7482,2.7493,2.7476,2.7626,2.7655,2.7615,2.7371,2.7301,2.7301,2.7231,2.719,2.719,2.719,2.719,2.719,2.719,2.719,2.7097,2.6663,2.6249,2.5957,2.5957,2.5957,2.5957,2.5957,2.629,2.658,2.658,0.0,2.719,2.719,0.0,0.0,0.0,0.0,0.0,0.0,2.4912,0.0,0.0,0.0,0.0,0.0,0.0,0.0,2.4041,2.4643,0.0,2.5189,2.4893,2.4765,2.4765,2.4584,2.4112,2.3406,2.3047,2.3013,2.3242,2.3178,2.3343,2.357,2.2853,2.2422,2.2167,2.1499,2.123,2.115,2.123,2.123,2.1096,3.4351,3.4181,0.0,0.0,3.3588,0.0,3.2635,3.2491,3.2162,3.1451,3.135,3.116,3.0713,3.0623,3.0532,3.0261,0.0,0.0,0.0,3.0216,3.0216,3.0216,3.0216,0.0,3.0216,3.0261,3.0261,3.0261,3.0306,3.0306,3.0306,3.0826,3.0476,2.9444,2.9887,2.9373,2.8179,2.8179,2.807,2.7893,2.7893,2.7893,2.7881,2.7615,2.7696,2.7881,2.7615,2.7696,2.7893,2.7893,2.7893,2.7841,2.7563,2.7482,2.7441,2.726,2.719,2.719,2.719,2.719,2.719,2.719,2.719,2.719,2.719,2.719,2.719,2.719,2.719,2.719,2.719,2.719,2.719,2.719,2.719,2.719,2.719,0.0,0.0,0.0,0.0,0.0,0.0,2.5664,2.5521,0.0,0.0,0.0,0.0,0.0,2.5103,2.5529,2.6222,2.6177,2.5327,2.5285,2.502,2.4584,2.4541,2.3993,2.2969,2.382,2.3734,2.3013,2.3594,2.3887,2.3844,2.3178,2.2731,2.2448,2.1945,2.1607,2.1482,2.1651,2.1562,2.1392,0.0,0.0,3.4487,3.4441,3.4297,3.3937,3.3134,3.3032,3.2678,3.1721,3.1617,3.1484,3.116,3.1005,3.0883,3.0838,3.0634,3.0442,3.0216,3.0397,3.0397,3.0216,3.0397,3.0532,3.0532,3.0691,3.0871,3.1038,3.1261,3.1339,3.135,3.1484,3.0902,2.9699,2.9814,2.9148,2.7962,2.7962,2.7921,2.7893,2.7893,2.7893,2.7881,2.7841,2.7841,2.7921,2.8018,2.799,2.7893,2.7893,2.7893,2.7852,2.7383,2.7371,2.7441,2.726,2.719,2.719,2.719,2.719,2.719,2.719,2.719,2.719,2.719,2.719,2.719,2.719,2.719,2.719,2.719,2.719,2.719,2.719,2.719,2.719,2.719,2.719,0.0,0.0,2.6974,2.6974,2.6974,2.6819,2.6803,0.0,0.0,0.0,0.0,0.0,2.5819,2.5742,2.6304,2.6467,2.626,2.6063,2.5853,2.5549,2.5031,2.4733,2.4637,2.4112,2.4155,2.4637,2.4413,2.4541,2.4807,2.4166,2.3691,2.3387,2.2564,2.222,2.2132,2.183,2.1651,2.1607,3.5294,3.5214,3.5155,3.526,3.5014,3.4649,3.4313,3.3821,3.3266,3.2483,3.2259,3.1925,3.135,3.1184,3.1107,3.1029,3.0883,3.0724,3.0601,3.0691,3.0736,3.0556,3.0691,3.0781,3.0781,3.0826,3.0859,3.0982,3.1273,3.1362,3.1362,3.1484,3.1009,3.0105,2.9995,2.9404,2.8495,2.8258,2.8163,2.8163,2.8163,2.8163,2.8163,2.807,2.807,2.8163,2.8179,2.8191,2.8163,2.8163,2.8111,2.799,2.7638,2.7505,2.7441,2.726,2.719,2.719,2.719,2.726,2.7383,2.7476,2.7516,2.7476,2.7383,2.733,2.7301,2.7231,2.719,2.719,2.719,2.726,2.7301,2.7231,2.726,2.7301,2.7231,2.719,0.0,2.719,2.719,2.719,2.719,2.719,2.719,2.719,0.0,0.0,2.7167,2.6764,2.6443,2.6321,2.6591,2.6644,2.6396,2.6199,2.6032,2.5895,2.5506,2.5242,2.5073,2.485,2.4893,2.5073,2.5115,2.5242,2.5338,2.4637,2.4209,2.3874,2.2828,2.2397,2.2344,2.1865,2.1696,2.1651,3.6015,3.5824,3.5716,3.592,3.5583,3.5282,3.5369,3.4615,3.3819,3.3268,3.2913,3.2362,3.1496,3.1395,3.1306,3.1107,3.1107,3.1118,3.1029,3.1017,3.1017,3.0984,3.1017,3.1017,3.0984,3.0781,3.0668,3.0713,3.0916,3.1062,3.1118,3.1261,3.1065,3.0553,3.0241,2.9797,2.9268,2.8739,2.851,2.851,2.851,2.851,2.8471,2.8299,2.8339,2.8471,2.8299,2.8351,2.8471,2.8431,2.8311,2.8099,2.7881,2.7626,2.74,2.726,2.719,2.719,2.719,2.733,2.7563,2.7788,2.7881,2.7841,2.7563,2.7522,2.7441,2.7219,2.719,2.7231,2.7219,2.7371,2.7441,2.7353,2.7354,2.736,2.7249,0.0,2.711,2.7179,2.719,2.719,2.719,2.719,2.7213,2.7293,2.7305,0.0,0.0,2.7284,2.716,2.716,2.7012,2.6719,2.6424,2.625,2.6167,2.6167,2.6114,2.5774,2.5179,2.5752,2.5666,2.5073,2.5644,2.577,2.5559,2.485,2.4456,2.4209,2.3047,2.2564,2.2441,2.1998,2.1785,2.1696,3.6063,3.5968,3.5872,3.5668,3.5595,3.5385,3.4977,3.4767,3.4324,3.3322,3.2946,3.2581,3.1954,3.1761,3.1617,3.1572,3.1761,3.1596,3.1029,3.1139,3.1184,3.1029,3.1139,3.1184,3.0984,3.0972,3.1005,3.1172,3.1217,3.135,3.1572,3.1617,3.134,3.0812,3.0326,2.9797,2.9268,2.8739,2.851,2.851,2.851,2.851,2.851,2.8471,2.8471,2.851,2.8471,2.8471,2.8431,2.8122,2.7962,2.7881,2.7435,2.7272,2.7219,2.7231,2.719,2.719,2.719,2.733,2.7522,2.7563,2.7748,2.7841,2.7563,2.7522,2.7441,2.7219,2.719,2.726,2.74,2.7482,2.7563,2.776,2.7305,2.7046,2.7383,0.0,2.6749,2.7133,2.719,2.719,2.719,2.719,2.7403,2.7828,2.7862,2.8046,2.8448,2.8428,2.8428,2.8428,2.7448,2.7043,2.7366,2.742,2.7425,2.7425,2.7184,2.6802,2.6335,2.6432,2.6203,2.5728,2.5696,2.5644,2.5559,2.5031,2.4818,2.4733,2.3917,2.3353,2.2916,2.2476,2.2043,2.1696,3.6063,3.6098,3.6146,3.586,3.5943,3.5904,3.5526,3.5194,3.473,3.3949,3.3374,3.2832,3.2321,3.1942,3.1705,3.1705,3.1793,3.1717,3.1407,3.1717,3.1673,3.1184,3.1407,3.1306,3.0781,3.0927,3.1062,3.1139,3.1261,3.135,3.1484,3.1484,3.1352,3.1089,3.0233,2.9828,2.9677,2.8859,2.851,2.851,2.851,2.851,2.851,2.851,2.851,2.851,2.851,2.851,2.8471,2.8283,2.8151,2.803,2.7829,2.7574,2.7371,2.7371,2.726,2.7231,2.733,2.7441,2.7563,2.7805,2.7978,2.803,2.7898,2.7886,2.7817,2.7638,2.7464,2.7412,2.7655,2.7708,2.7748,2.7881,2.7709,0.0,0.0,2.7877,2.7801,2.8187,2.8214,2.8172,2.8023,2.8023,2.8115,2.8356,2.8367,2.8459,2.8689,2.87,2.87,2.87,2.8052,2.781,2.8026,2.7972,2.7821,2.7701,2.7558,2.7349,2.6988,2.6736,2.6464,2.6278,2.5931,2.5686,2.5559,2.5391,2.5126,2.4818,2.4262,2.3787,2.3406,2.2969,2.2652,2.2441,3.6063,3.6146,3.6133,3.586,3.5991,3.6038,3.5764,3.5406,3.5004,3.4398,3.3652,3.3031,3.256,3.1997,3.1705,3.1705,3.1749,3.1761,3.1705,3.2125,3.2081,3.1439,3.1496,3.1261,3.0724,3.0781,3.0838,3.0927,3.1038,3.1172,3.1229,3.1261,3.1306,3.1258,3.0255,2.9917,3.0013,2.8915,2.8471,2.851,2.8471,2.8471,2.851,2.851,2.851,2.851,2.851,2.851,2.851,2.8431,2.8339,2.8167,2.8047,2.7805,2.7522,2.7522,2.7412,2.7301,2.7412,2.7441,2.7603,2.7966,2.8099,2.8099,2.8059,2.8059,2.7978,2.7829,2.772,2.7749,2.8098,2.8204,2.8274,2.8397,0.0,0.0,0.0,2.8727,2.8719,2.9064,2.9036,2.8939,2.87,2.87,2.8746,2.8873,2.8884,2.893,2.9045,2.9056,2.9056,2.9056,2.879,2.8657,2.8657,2.8552,2.8376,2.8122,2.8077,2.7833,2.7468,2.7075,2.6791,2.6562,2.6234,2.592,2.5654,2.5612,2.5391,2.5031,2.4594,2.4251,2.3917,2.356,2.3309,2.3188,3.6063,3.5812,3.556,3.532,3.5271,3.5223,3.492,3.509,3.4944,3.4149,3.362,3.309,3.2551,3.1997,3.1705,3.1705,3.1849,3.1893,3.1705,3.2125,3.2169,3.1705,3.1273,3.1017,3.0972,3.0499,3.0397,3.0623,3.0623,3.0769,3.1017,3.1229,3.1306,3.1258,3.0426,3.0086,3.0013,2.8741,2.8339,2.8471,2.8299,2.8339,2.851,2.851,2.851,2.851,2.851,2.851,2.8471,2.8299,2.8219,2.8127,2.7684,2.7522,2.7522,2.7522,2.7482,2.7441,2.726,2.7371,2.751,2.7563,2.7748,2.7881,2.7603,2.7551,2.7563,2.7522,2.7752,2.8171,2.8822,2.913,2.9407,2.9882,0.0,0.0,2.9653,2.8939,2.8517,2.9021,2.8896,2.87,2.87,2.87,2.8907,2.9401,2.9435,2.963,3.0078,3.0101,3.0101,3.0101,2.9632,2.9402,2.9402,2.9636,2.9636,2.9373,2.9109,2.8648,2.7947,2.7903,2.7413,2.6584,2.6551,2.6279,2.5853,2.5696,2.5559,2.5517,2.5242,2.485,2.4456,2.4413,2.3993,2.346,3.586,3.5812,3.5764,3.5464,3.5464,3.5368,3.5078,3.5126,3.5054,3.4559,3.403,3.3561,3.3044,3.2503,3.2046,3.1741,3.1893,3.1893,3.1705,3.1893,3.1893,3.1705,3.1083,3.0769,3.0769,3.0397,3.0352,3.0623,3.0781,3.0883,3.0984,3.1229,3.1306,3.1258,3.0298,2.9887,2.9827,2.8671,2.8179,2.8122,2.8179,2.8259,2.8339,2.8471,2.851,2.851,2.851,2.851,2.8471,2.8431,2.8391,2.8339,2.8007,2.7857,2.7708,2.7383,2.7505,2.7667,2.7313,2.726,2.733,2.7482,2.7563,2.7655,2.7748,2.7982,2.8163,2.8163,2.8417,2.8777,2.9314,2.9268,2.9355,3.0001,0.0,2.9527,3.039,2.9898,2.9667,3.0194,3.0052,2.9819,2.9642,2.9642,2.9722,2.9929,2.994,3.0021,3.0204,3.0216,3.0216,3.0216,2.992,2.9828,2.994,2.992,2.9794,2.9485,2.922,2.889,2.8473,2.8132,2.7805,2.7445,2.714,2.6791,2.6311,2.6269,2.5967,2.5612,2.5475,2.5242,2.4935,2.4935,2.4765,2.4562,3.5895,3.5908,3.592,3.5668,3.562,3.5476,3.5126,3.5126,3.5126,3.4823,3.4318,3.3862,3.3561,3.2911,3.2346,3.1961,3.1902,3.1849,3.1705,3.1705,3.1617,3.1496,3.0892,3.0623,3.0623,3.0442,3.0442,3.0623,3.0883,3.0984,3.0984,3.1229,3.1306,3.1258,3.0224,2.9772,2.9713,2.8508,2.7938,2.7881,2.7938,2.8047,2.8219,2.8339,2.8431,2.851,2.851,2.851,2.851,2.851,2.8471,2.8391,2.8191,2.795,2.7708,2.7476,2.7598,2.7708,2.7476,2.7313,2.7231,2.7371,2.7412,2.7499,2.7836,2.8222,2.8585,2.8791,2.9152,2.9503,2.9901,2.9785,2.9804,3.0291,3.013,3.0131,3.0823,3.0564,3.0484,3.0836,3.0634,3.0397,3.0216,3.0216,3.0216,3.0216,3.0216,3.0216,3.0216,3.0216,3.0216,3.0216,3.0045,3.0057,3.0216,3.0011,2.9794,2.9485,2.9301,2.9082,2.8792,2.8418,2.8143,2.798,2.7642,2.7151,2.6584,2.6584,2.6258,2.5686,2.5686,2.5591,2.5411,2.5411,2.538,2.5338,3.6405,3.6193,3.592,3.5668,3.562,3.5428,3.4884,3.503,3.5126,3.4823,3.4318,3.3994,3.3994,3.3128,3.2515,3.2503,3.1985,3.1717,3.1705,3.1705,3.1496,3.1029,3.0724,3.0623,3.0623,3.0623,3.0623,3.0623,3.0883,3.0984,3.1029,3.1229,3.1306,3.1258,3.0236,2.9784,2.9713,2.8181,2.7667,2.7893,2.7615,2.7765,2.8167,2.8219,2.8299,2.851,2.851,2.851,2.851,2.851,2.8391,2.8179,2.7962,2.7696,2.7563,2.7841,2.7708,2.7563,2.7841,2.7557,2.719,2.719,2.719,2.7369,2.7874,2.8175,2.8524,2.9249,2.9852,3.026,3.049,3.0752,3.0984,3.0984,3.0984,3.0984,3.0984,3.0769,3.0623,3.0623,3.0352,3.0216,3.0216,3.0216,3.0216,3.0216,3.0216,3.0216,3.0216,3.0216,3.0216,3.0216,3.0216,3.0216,3.0216,3.0011,2.9794,2.9485,2.9485,2.9266,2.8803,2.8803,2.8495,2.8002,2.8002,2.7467,2.6595,2.6595,2.6343,2.5906,2.5895,2.5895,2.5895,2.5895,2.577,2.5601,3.6098,3.5908,3.5668,3.562,3.5416,3.5223,3.4823,3.4884,3.4872,3.4823,3.4643,3.4402,3.403,3.3718,3.3284,3.2563,3.2346,3.2082,3.1729,3.1528,3.135,3.1229,3.1005,3.0769,3.0623,3.0442,3.0397,3.0623,3.0883,3.1062,3.1229,3.1439,3.1484,3.127,3.0604,2.9934,2.9258,2.8412,2.78,2.7394,2.7493,2.7603,2.7725,2.8047,2.8219,2.8299,2.8471,2.851,2.851,2.851,2.8391,2.8139,2.7736,2.7563,2.7482,2.7423,2.7598,2.7708,2.7476,2.7423,2.7371,2.7219,2.7495,2.7835,2.814,2.8804,2.9491,2.9859,3.0261,3.058,3.0826,3.0631,3.0589,3.1139,3.0949,3.0904,3.1407,3.0994,3.0679,3.0871,3.0499,3.0216,3.0216,3.0216,3.0216,3.0216,3.0216,3.0216,3.0216,3.0216,3.0216,3.0216,3.0057,3.0057,3.0216,3.0011,2.984,2.9783,2.9588,2.9312,2.8989,2.8989,2.8866,2.8538,2.8538,2.8189,2.7544,2.7206,2.6835,2.6376,2.6037,2.5895,2.5895,2.5895,2.5864,2.5812,3.6015,3.5872,3.5716,3.562,3.5476,3.5271,3.4981,3.4884,3.4775,3.4775,3.4775,3.4667,3.4342,3.4114,3.3658,3.2887,3.2418,3.2034,3.1729,3.1528,3.1395,3.1306,3.1184,3.096,3.0623,3.0544,3.0544,3.0623,3.0883,3.1062,3.1184,3.1362,3.1318,3.116,3.0496,2.9921,2.9323,2.853,2.793,2.7506,2.7411,2.7441,2.7522,2.7805,2.8059,2.8219,2.8339,2.8379,2.8379,2.8379,2.8179,2.7846,2.7493,2.7371,2.7371,2.733,2.7464,2.7603,2.7637,2.7683,2.7718,2.7895,2.7992,2.8165,2.8758,2.9456,3.0045,3.0443,3.0725,3.0859,3.0871,3.0589,3.0487,3.0937,3.0802,3.0758,3.1205,3.0892,3.0623,3.0691,3.0408,3.0216,3.0216,3.0216,3.0216,3.0216,3.0216,3.0216,3.0216,3.0216,3.0216,3.0216,3.0091,3.0091,3.0216,3.0091,2.9977,2.9886,2.9737,2.9542,2.9255,2.9174,2.9035,2.8896,2.885,2.8484,2.798,2.7674,2.7173,2.6562,2.631,2.607,2.5895,2.5895,2.5895,2.5895,3.6015,3.6015,3.592,3.5668,3.562,3.5524,3.5223,3.4981,3.4775,3.4775,3.4775,3.4775,3.4775,3.4354,3.3862,3.3404,3.2415,3.1765,3.1705,3.1705,3.1572,3.135,3.1306,3.1116,3.0668,3.0871,3.0871,3.0623,3.0871,3.0984,3.0984,3.0984,3.0984,3.0916,3.019,2.9813,2.9709,2.8579,2.8092,2.8,2.7506,2.7359,2.754,2.7493,2.7765,2.8127,2.8179,2.8179,2.8179,2.8139,2.7846,2.7441,2.726,2.719,2.7242,2.7458,2.74,2.7456,2.8129,2.8226,2.8257,2.8978,2.8673,2.8484,2.9613,3.0065,3.0417,3.0923,3.1139,3.1128,3.0668,3.0578,3.0578,3.0623,3.0623,3.0623,3.0668,3.0668,3.0532,3.0261,3.0216,3.0216,3.0216,3.0216,3.0216,3.0216,3.0216,3.0216,3.0216,3.0216,3.0216,3.0216,3.0216,3.0216,3.0216,3.0216,3.0091,2.9931,2.9931,2.9783,2.9531,2.9266,2.9128,2.9082,2.8896,2.8552,2.8056,2.8012,2.7467,2.6639,2.6606,2.6332,2.5895,2.5895,2.5895,2.5895,3.6051,3.6015,3.592,3.5668,3.562,3.5524,3.5223,3.4981,3.4775,3.4775,3.4775,3.4775,3.4775,3.4679,3.4402,3.3874,3.2923,3.213,3.1741,3.1705,3.1661,3.1617,3.1395,3.1261,3.1172,3.0859,3.0769,3.0927,3.0769,3.0769,3.0984,3.0984,3.0883,3.0668,3.0506,3.0117,2.9569,2.9307,2.893,2.8505,2.8012,2.7858,2.7842,2.7591,2.7551,2.7684,2.7869,2.7962,2.7909,2.7736,2.7603,2.7441,2.726,2.719,2.73,2.7743,2.7858,2.792,2.8456,2.8734,2.9001,2.9532,2.9709,2.9859,3.0324,3.0646,3.092,3.1205,3.0994,3.0713,3.0623,3.0442,3.0397,3.0838,3.0927,3.096,3.1128,3.1005,3.0826,3.0532,3.0352,3.0216,3.0216,3.0216,3.0216,3.0216,3.0216,3.0216,3.0216,3.0216,3.0216,3.0216,3.0216,3.0216,3.0216,3.0216,3.017,3.0136,3.0136,3.0,2.9783,2.9748,2.9508,2.9082,2.9035,2.8877,2.8571,2.8154,2.7653,2.713,2.6726,2.6332,2.5895,2.5895,2.5895,2.5895,3.6216,3.6098,3.592,3.5668,3.5716,3.5716,3.5428,3.5175,3.492,3.4835,3.4775,3.4775,3.4775,3.4775,3.457,3.4042,3.3092,3.2382,3.2082,3.1862,3.1705,3.1705,3.1439,3.135,3.1484,3.0892,3.0679,3.0826,3.0679,3.0623,3.0601,3.0601,3.0544,3.0397,3.0397,3.0213,2.9825,2.9596,2.9343,2.9033,2.8528,2.8322,2.8299,2.8138,2.8117,2.8254,2.839,2.8444,2.8402,2.8171,2.8076,2.8034,2.7973,2.7931,2.7977,2.8241,2.8322,2.8468,2.906,2.9341,2.9599,3.032,3.0549,3.0605,3.0749,3.0918,3.1017,3.1139,3.096,3.0769,3.0623,3.0487,3.0544,3.0927,3.0871,3.0871,3.1139,3.096,3.0724,3.0442,3.0306,3.0216,3.0216,3.0216,3.0216,3.0216,3.0216,3.0216,3.0216,3.0216,3.0216,3.0216,3.0216,3.0216,3.0216,3.0216,3.0216,3.0216,3.0091,3.0057,3.0057,2.9829,2.9542,2.9255,2.9174,2.8989,2.8781,2.8484,2.8102,2.761,2.714,2.6671,2.6223,2.5983,2.5895,2.5895,3.6555,3.631,3.6098,3.5847,3.5908,3.592,3.5716,3.5416,3.5126,3.4823,3.4775,3.4775,3.4738,3.4775,3.457,3.3994,3.313,3.2599,3.2515,3.2018,3.1705,3.1705,3.1439,3.1395,3.1617,3.0994,3.0679,3.0679,3.0578,3.0442,3.0216,3.0216,3.0216,3.0216,3.0216,3.0216,3.0181,2.9791,2.9619,2.9573,2.9045,2.8838,2.8827,2.8735,2.8786,2.8958,2.8958,2.8958,2.8915,2.8743,2.87,2.87,2.87,2.87,2.8712,2.8804,2.887,2.9028,2.9767,2.9994,3.0276,3.1066,3.1139,3.1017,3.0927,3.0927,3.0927,3.0927,3.0883,3.0793,3.0578,3.0532,3.0623,3.0883,3.0724,3.0679,3.0883,3.0724,3.0487,3.0216,3.0216,3.0216,3.0216,3.0216,3.0216,3.0216,3.0216,3.0216,3.0216,3.0216,3.0216,3.0216,3.0216,3.0216,3.0216,3.0216,3.0216,3.0216,3.0011,2.9966,3.0136,2.9772,2.9531,2.9485,2.9266,2.9035,2.8839,2.8716,2.8353,2.7827,2.7381,2.6911,2.641,2.6048,2.5895,2.5895,3.7453,3.7142,3.6875,3.6581,3.6228,3.5968,3.5968,3.5524,3.5126,3.4823,3.4775,3.4726,3.4482,3.4677,3.4522,3.3827,3.3384,3.2984,3.2527,3.2018,3.1705,3.1705,3.1439,3.1306,3.135,3.1095,3.0927,3.0927,3.0499,3.0261,3.0216,3.0216,3.0216,3.0216,3.0216,3.0216,3.0216,3.0147,3.0112,3.0078,2.9584,2.9389,2.9343,2.8873,2.87,2.8743,2.8743,2.8743,2.8743,2.87,2.87,2.87,2.87,2.87,2.8792,2.9251,2.951,2.9778,3.0334,3.0787,3.1089,3.1038,3.1139,3.1128,3.0769,3.0668,3.0668,3.0668,3.0487,3.0318,3.0261,3.0261,3.0352,3.0623,3.0623,3.0623,3.0623,3.0623,3.0487,3.0216,3.0216,3.0216,3.0216,3.0216,3.0216,3.0216,3.0216,3.0216,3.0216,3.0216,3.0216,3.0216,3.0216,3.0216,3.0216,3.0216,3.0216,3.0216,3.0011,2.9886,2.9931,2.9886,2.9737,2.9485,2.9439,2.9301,2.9002,2.8355,2.7805,2.737,2.6857,2.6431,2.5994,2.5928,2.5895,2.5895,3.7559,3.7281,3.6968,3.6568,3.6534,3.643,3.586,3.5572,3.5271,3.4823,3.4677,3.4482,3.4261,3.4445,3.4496,3.4318,3.3923,3.3489,3.2971,3.243,3.1985,3.1717,3.1439,3.135,3.1528,3.1038,3.0826,3.0984,3.0589,3.0352,3.0216,3.0216,3.0216,3.0216,3.0216,3.0216,3.0216,3.0216,3.0216,3.0193,2.9986,2.9894,2.9871,2.9642,2.955,2.955,2.955,2.955,2.955,2.955,2.955,2.955,2.955,2.955,2.9596,2.9825,3.0074,3.0332,3.0711,3.096,3.1139,3.1139,3.1038,3.0847,3.0668,3.0487,3.0442,3.0578,3.0532,3.0442,3.0442,3.0442,3.0442,3.0578,3.0476,3.0442,3.0578,3.0487,3.0352,3.0216,3.0216,3.0216,3.0216,3.0216,3.0216,3.0216,3.0216,3.0216,3.0216,3.0216,3.0216,3.0216,3.0216,3.0216,3.0216,3.0216,3.0216,3.0216,3.0011,2.9886,2.9886,2.9886,2.9737,2.9485,2.9485,2.9191,2.8651,2.8214,2.7707,2.7261,2.6759,2.6332,2.5895,2.5895,2.5895,2.5895]}]]